[[{"header":{"parameterUnit":"m.s-1","parameterCategory":1,"la1":30.6,"la2":29.2853,"lo1":-89.7004,"lo2":-87.6739,"dy":0.0162,"dx":0.0183,"nx":112,"ny":82,"refTime":"2023-03-31T12:00:00:Z","depth":0,"parameterNumber":2,"parameterNumberName":"U-component_of_WINDS"},"data":[0.0,0.0,0.0,0.0,0.0,0.0,0.0,0.0,0.0,0.0,0.0,0.0,0.0,0.0,0.0,0.0,0.0,0.0,0.0,0.0,0.0,0.0,0.0,0.0,0.0,0.0,0.0,0.0,0.0,0.0,0.0,0.0,0.0,0.0,0.0,0.0,0.0,0.0,0.0,0.0,0.0,0.0,0.0,0.0,0.0,0.0,0.0,0.0,0.0,0.0,0.0,0.0,0.0,0.0,0.0,0.0,0.0,0.0,0.0,0.0,0.0,0.0,0.0,0.0,0.0,0.0,0.0,0.0,0.0,0.0,0.0,0.0,0.0,0.0,0.0,0.0,0.0,0.0,0.0,0.0,0.0,0.0,0.0,0.0,0.0,0.0,0.0,0.0,0.0,0.0,-4.413,-4.6574,-4.8075,-4.9292,-5.0315,-4.9924,-4.7182,-4.1409,0.0,0.0,0.0,0.0,0.0,0.0,0.0,0.0,0.0,0.0,0.0,0.0,0.0,0.0,0.0,0.0,0.0,0.0,0.0,0.0,0.0,0.0,0.0,0.0,0.0,0.0,0.0,0.0,0.0,0.0,0.0,0.0,0.0,0.0,0.0,0.0,0.0,0.0,0.0,0.0,0.0,0.0,0.0,0.0,0.0,0.0,0.0,0.0,0.0,0.0,0.0,0.0,0.0,0.0,0.0,0.0,0.0,0.0,0.0,0.0,0.0,0.0,0.0,0.0,0.0,0.0,0.0,0.0,0.0,0.0,0.0,0.0,0.0,0.0,0.0,0.0,0.0,0.0,0.0,0.0,0.0,0.0,0.0,0.0,0.0,0.0,0.0,0.0,0.0,0.0,0.0,0.0,0.0,0.0,0.0,0.0,0.0,0.0,0.0,0.0,0.0,0.0,0.0,0.0,-4.5381,-4.8879,-4.9482,-4.97,-4.9896,-4.9821,-4.7713,-4.2884,0.0,0.0,0.0,0.0,0.0,0.0,0.0,0.0,0.0,0.0,0.0,0.0,0.0,0.0,0.0,0.0,0.0,0.0,0.0,0.0,0.0,0.0,0.0,0.0,0.0,0.0,0.0,0.0,0.0,0.0,0.0,0.0,0.0,0.0,0.0,0.0,0.0,0.0,0.0,0.0,0.0,0.0,0.0,0.0,0.0,0.0,0.0,0.0,0.0,0.0,0.0,0.0,0.0,0.0,0.0,0.0,0.0,0.0,0.0,0.0,0.0,0.0,0.0,0.0,0.0,0.0,0.0,0.0,0.0,0.0,0.0,0.0,0.0,0.0,0.0,0.0,0.0,0.0,0.0,0.0,0.0,0.0,0.0,0.0,0.0,0.0,0.0,0.0,0.0,0.0,0.0,0.0,0.0,0.0,0.0,0.0,0.0,0.0,0.0,0.0,0.0,0.0,0.0,-4.3923,-4.6903,-4.8638,-4.8824,-4.8824,-4.8824,-4.8824,-4.6993,-4.269,-4.2498,0.0,0.0,0.0,0.0,0.0,0.0,0.0,0.0,0.0,0.0,0.0,0.0,0.0,0.0,0.0,0.0,0.0,0.0,0.0,0.0,0.0,0.0,0.0,0.0,0.0,0.0,0.0,0.0,0.0,0.0,0.0,0.0,0.0,0.0,0.0,0.0,0.0,0.0,0.0,0.0,0.0,0.0,0.0,0.0,0.0,0.0,0.0,0.0,0.0,0.0,0.0,0.0,0.0,0.0,0.0,0.0,0.0,0.0,0.0,0.0,0.0,0.0,0.0,0.0,0.0,0.0,0.0,0.0,0.0,0.0,0.0,0.0,0.0,0.0,0.0,0.0,0.0,0.0,0.0,0.0,0.0,0.0,0.0,0.0,0.0,0.0,0.0,0.0,0.0,0.0,0.0,0.0,0.0,0.0,0.0,0.0,0.0,0.0,0.0,0.0,0.0,0.0,-4.523,-4.7502,-4.8,-4.8033,-4.8001,-4.8001,-4.8001,-4.6254,-4.2116,-4.186,0.0,0.0,0.0,0.0,0.0,0.0,0.0,0.0,0.0,0.0,0.0,0.0,0.0,0.0,0.0,0.0,0.0,0.0,0.0,0.0,0.0,0.0,0.0,0.0,0.0,0.0,0.0,0.0,0.0,0.0,0.0,0.0,0.0,0.0,0.0,0.0,0.0,0.0,0.0,0.0,0.0,0.0,0.0,0.0,0.0,0.0,0.0,0.0,0.0,0.0,0.0,0.0,0.0,0.0,0.0,0.0,0.0,0.0,0.0,0.0,0.0,0.0,0.0,0.0,0.0,0.0,0.0,0.0,0.0,0.0,0.0,0.0,0.0,0.0,0.0,0.0,0.0,0.0,0.0,0.0,0.0,0.0,0.0,0.0,0.0,0.0,0.0,0.0,0.0,0.0,0.0,0.0,0.0,0.0,0.0,0.0,0.0,0.0,0.0,0.0,0.0,0.0,-4.3764,-4.5979,-4.7979,-4.8082,-4.8001,-4.8001,-4.8001,-4.6113,-4.1718,-4.1437,0.0,0.0,0.0,0.0,0.0,0.0,0.0,0.0,0.0,0.0,0.0,0.0,0.0,0.0,0.0,0.0,0.0,0.0,0.0,0.0,0.0,0.0,0.0,0.0,0.0,0.0,0.0,0.0,0.0,0.0,0.0,0.0,0.0,0.0,0.0,0.0,0.0,0.0,0.0,0.0,0.0,0.0,0.0,0.0,0.0,0.0,0.0,0.0,0.0,0.0,0.0,0.0,0.0,0.0,0.0,0.0,0.0,0.0,0.0,0.0,0.0,0.0,0.0,0.0,0.0,0.0,0.0,0.0,0.0,0.0,0.0,0.0,0.0,0.0,0.0,0.0,0.0,0.0,0.0,0.0,0.0,0.0,0.0,0.0,0.0,0.0,0.0,0.0,0.0,0.0,0.0,0.0,0.0,0.0,0.0,0.0,0.0,0.0,0.0,0.0,0.0,0.0,-4.4976,-4.75,0.0,-4.8244,-4.8115,-4.8115,-4.8066,-4.6113,-4.169,0.0,0.0,0.0,0.0,0.0,0.0,0.0,0.0,0.0,0.0,0.0,0.0,0.0,0.0,0.0,0.0,0.0,0.0,0.0,0.0,0.0,0.0,0.0,0.0,0.0,0.0,0.0,0.0,0.0,0.0,0.0,0.0,0.0,0.0,0.0,0.0,0.0,0.0,0.0,0.0,0.0,0.0,0.0,0.0,0.0,0.0,0.0,0.0,0.0,0.0,0.0,0.0,0.0,0.0,0.0,0.0,0.0,0.0,0.0,0.0,0.0,0.0,0.0,0.0,0.0,0.0,0.0,0.0,0.0,0.0,0.0,0.0,0.0,0.0,0.0,0.0,0.0,0.0,0.0,0.0,0.0,0.0,0.0,0.0,0.0,0.0,0.0,0.0,0.0,0.0,0.0,0.0,0.0,0.0,0.0,0.0,0.0,0.0,0.0,0.0,0.0,0.0,-4.1624,-4.5693,-4.8595,0.0,-4.842,-4.8292,-4.8292,-4.8147,-4.6175,-4.1763,0.0,0.0,0.0,0.0,0.0,0.0,0.0,0.0,0.0,0.0,0.0,0.0,0.0,0.0,0.0,0.0,0.0,0.0,0.0,0.0,0.0,0.0,0.0,0.0,0.0,0.0,0.0,0.0,0.0,0.0,0.0,0.0,0.0,0.0,0.0,0.0,0.0,0.0,0.0,0.0,0.0,0.0,0.0,0.0,0.0,0.0,0.0,0.0,0.0,0.0,0.0,0.0,0.0,0.0,0.0,0.0,0.0,0.0,0.0,0.0,0.0,0.0,0.0,0.0,0.0,0.0,0.0,0.0,0.0,0.0,0.0,0.0,0.0,0.0,0.0,0.0,0.0,0.0,0.0,0.0,0.0,0.0,0.0,0.0,0.0,0.0,0.0,0.0,0.0,0.0,0.0,0.0,0.0,0.0,0.0,0.0,0.0,0.0,0.0,0.0,0.0,0.0,-4.1088,-4.5584,-4.8818,-4.8818,-4.8627,-4.8515,-4.8515,-4.8324,-4.6346,0.0,0.0,0.0,0.0,0.0,0.0,0.0,0.0,0.0,0.0,0.0,0.0,0.0,0.0,0.0,0.0,0.0,0.0,0.0,0.0,0.0,0.0,0.0,0.0,0.0,0.0,0.0,0.0,0.0,0.0,0.0,0.0,0.0,0.0,0.0,0.0,0.0,0.0,0.0,0.0,0.0,0.0,0.0,0.0,0.0,0.0,0.0,0.0,0.0,0.0,0.0,0.0,0.0,0.0,0.0,0.0,0.0,0.0,0.0,0.0,0.0,0.0,0.0,0.0,0.0,0.0,0.0,0.0,0.0,0.0,0.0,0.0,0.0,0.0,0.0,0.0,0.0,0.0,0.0,0.0,0.0,0.0,0.0,0.0,0.0,0.0,0.0,0.0,0.0,0.0,0.0,0.0,0.0,0.0,0.0,0.0,0.0,0.0,0.0,0.0,0.0,0.0,0.0,-4.1096,-4.5555,-4.8818,-4.8818,-4.8627,-4.8547,-4.8707,-4.8532,-4.653,-4.2133,0.0,0.0,0.0,0.0,0.0,0.0,0.0,0.0,0.0,0.0,0.0,0.0,0.0,0.0,0.0,0.0,0.0,0.0,0.0,0.0,0.0,0.0,0.0,0.0,0.0,0.0,0.0,0.0,0.0,0.0,0.0,0.0,0.0,0.0,0.0,0.0,0.0,0.0,0.0,0.0,0.0,0.0,0.0,0.0,0.0,0.0,0.0,0.0,0.0,0.0,0.0,0.0,0.0,0.0,0.0,0.0,0.0,0.0,0.0,0.0,0.0,0.0,0.0,0.0,0.0,0.0,0.0,0.0,0.0,0.0,0.0,0.0,0.0,0.0,0.0,0.0,0.0,0.0,0.0,0.0,0.0,0.0,0.0,0.0,0.0,0.0,0.0,0.0,0.0,0.0,0.0,0.0,0.0,0.0,0.0,0.0,0.0,0.0,0.0,0.0,0.0,0.0,-4.0736,-4.5428,-4.8801,-4.8863,-4.8784,-4.8753,-4.8863,-4.8721,-4.7116,-4.3574,0.0,0.0,0.0,0.0,0.0,0.0,0.0,0.0,0.0,0.0,0.0,0.0,0.0,0.0,0.0,0.0,0.0,0.0,0.0,0.0,0.0,0.0,0.0,0.0,0.0,0.0,0.0,0.0,0.0,0.0,0.0,0.0,0.0,0.0,0.0,0.0,0.0,0.0,0.0,0.0,0.0,0.0,0.0,0.0,0.0,0.0,0.0,0.0,0.0,0.0,0.0,0.0,0.0,0.0,0.0,0.0,0.0,0.0,0.0,0.0,0.0,0.0,0.0,0.0,0.0,0.0,0.0,0.0,0.0,0.0,0.0,0.0,0.0,0.0,0.0,0.0,0.0,0.0,0.0,0.0,0.0,0.0,0.0,0.0,0.0,0.0,0.0,0.0,0.0,0.0,0.0,0.0,0.0,0.0,0.0,0.0,0.0,0.0,0.0,0.0,0.0,0.0,-4.0121,-4.5142,-4.8832,-4.894,-4.897,-4.897,-4.9001,-4.8863,-4.7858,-4.5618,0.0,0.0,0.0,0.0,0.0,0.0,0.0,0.0,0.0,0.0,0.0,0.0,0.0,0.0,0.0,0.0,0.0,0.0,0.0,0.0,0.0,0.0,0.0,0.0,0.0,0.0,0.0,0.0,0.0,0.0,0.0,0.0,0.0,0.0,0.0,0.0,0.0,0.0,0.0,0.0,0.0,0.0,0.0,0.0,0.0,0.0,0.0,0.0,0.0,0.0,0.0,0.0,0.0,0.0,0.0,0.0,0.0,0.0,0.0,0.0,-4.0242,0.0,0.0,0.0,0.0,0.0,0.0,0.0,0.0,0.0,0.0,0.0,0.0,0.0,0.0,0.0,0.0,0.0,0.0,0.0,0.0,0.0,0.0,0.0,0.0,0.0,0.0,0.0,0.0,0.0,0.0,0.0,0.0,0.0,0.0,0.0,0.0,0.0,0.0,0.0,0.0,0.0,-3.9656,-4.4834,-4.8578,-4.861,-4.8753,-4.8894,-4.9001,-4.8863,-4.7827,-4.5572,-4.4721,0.0,0.0,0.0,0.0,0.0,0.0,0.0,0.0,0.0,0.0,0.0,0.0,0.0,0.0,0.0,0.0,0.0,0.0,0.0,0.0,0.0,0.0,0.0,0.0,0.0,0.0,0.0,0.0,0.0,0.0,0.0,0.0,0.0,0.0,0.0,0.0,0.0,0.0,0.0,0.0,0.0,0.0,0.0,0.0,0.0,0.0,0.0,0.0,0.0,0.0,0.0,0.0,0.0,0.0,0.0,0.0,0.0,0.0,0.0,0.0,-4.0107,0.0,0.0,0.0,0.0,0.0,0.0,0.0,0.0,0.0,0.0,0.0,0.0,0.0,0.0,0.0,0.0,0.0,0.0,0.0,0.0,0.0,0.0,0.0,0.0,0.0,0.0,0.0,0.0,0.0,0.0,0.0,0.0,0.0,0.0,0.0,0.0,0.0,0.0,0.0,0.0,-3.9023,-4.3815,-4.7305,-4.7389,-4.7819,-4.8096,-4.8193,-4.8467,-4.8171,-4.6965,-4.5405,0.0,0.0,0.0,0.0,0.0,0.0,0.0,0.0,0.0,0.0,0.0,0.0,0.0,0.0,0.0,0.0,0.0,0.0,0.0,0.0,0.0,0.0,0.0,0.0,0.0,0.0,0.0,0.0,0.0,0.0,0.0,0.0,0.0,0.0,0.0,0.0,0.0,0.0,0.0,0.0,0.0,0.0,0.0,0.0,0.0,0.0,0.0,0.0,0.0,0.0,0.0,0.0,0.0,-4.115,-4.1261,-4.0593,-4.1293,-4.0968,-3.9969,-4.215,-4.2937,-4.2511,-4.0801,0.0,0.0,0.0,0.0,0.0,0.0,0.0,0.0,0.0,0.0,0.0,0.0,0.0,0.0,0.0,0.0,0.0,0.0,0.0,0.0,0.0,0.0,0.0,0.0,-3.9322,-4.0269,0.0,0.0,0.0,0.0,0.0,0.0,0.0,0.0,0.0,0.0,0.0,0.0,-3.8452,-4.283,-4.5957,-4.6119,-4.673,-4.7122,-4.7122,-4.7671,-4.8065,-4.8065,-4.57,-4.4107,0.0,0.0,0.0,0.0,0.0,0.0,0.0,0.0,0.0,0.0,0.0,0.0,0.0,0.0,0.0,0.0,0.0,0.0,0.0,0.0,0.0,0.0,0.0,0.0,0.0,0.0,0.0,0.0,0.0,0.0,0.0,0.0,-3.2808,-3.4335,0.0,0.0,0.0,0.0,0.0,0.0,0.0,0.0,0.0,0.0,0.0,0.0,0.0,-3.9427,-3.9305,-4.1031,-4.1849,-4.1881,-4.3402,-4.4072,-4.3957,-4.4072,-4.3923,-4.3508,-4.2155,0.0,-4.2385,-4.1825,0.0,0.0,0.0,0.0,0.0,0.0,0.0,0.0,0.0,0.0,0.0,0.0,0.0,0.0,0.0,0.0,0.0,0.0,0.0,0.0,0.0,0.0,-4.253,-4.3046,-4.1982,-4.1325,0.0,-4.1223,-3.9303,-4.0414,-3.8558,0.0,0.0,0.0,0.0,0.0,0.0,0.0,-3.8404,-4.2801,-4.5921,-4.5921,-4.6189,-4.6349,-4.6349,-4.6276,-4.624,-4.624,-4.5769,-4.4589,-4.26,-4.4402,0.0,0.0,0.0,0.0,0.0,0.0,0.0,0.0,0.0,0.0,0.0,0.0,0.0,0.0,0.0,0.0,0.0,0.0,0.0,0.0,0.0,0.0,0.0,0.0,0.0,0.0,0.0,0.0,0.0,-3.3227,-3.3966,-3.5404,-3.5911,-3.5764,0.0,0.0,0.0,0.0,0.0,0.0,0.0,0.0,0.0,-3.9346,-4.0333,-4.0843,-4.0776,-4.2625,-4.3541,-4.3557,-4.4269,-4.461,-4.461,-4.461,-4.4534,-4.4412,-4.3558,-4.3328,-4.3511,-4.2022,-4.1564,-4.1678,0.0,0.0,0.0,0.0,-3.6399,-3.6704,-3.6947,-3.8147,0.0,-3.9456,0.0,0.0,0.0,0.0,0.0,0.0,0.0,0.0,0.0,0.0,-4.247,-4.3853,-4.3419,-4.297,-4.4098,-4.218,-4.0384,0.0,-3.8774,-3.6314,-3.4399,0.0,0.0,0.0,0.0,-3.9708,-3.9764,-4.2723,-4.4812,-4.4812,-4.519,-4.5431,-4.5431,-4.5629,-4.5615,-4.5255,-4.4736,-4.3796,-4.2297,-4.3287,-4.2113,0.0,0.0,0.0,0.0,0.0,0.0,0.0,0.0,0.0,0.0,0.0,0.0,0.0,0.0,0.0,0.0,0.0,0.0,0.0,0.0,0.0,0.0,0.0,0.0,0.0,0.0,0.0,0.0,-3.4505,-3.5055,-3.6608,-3.7136,-3.7034,0.0,0.0,0.0,0.0,0.0,0.0,-4.0293,-3.966,-3.9658,-4.0473,-4.1716,-4.2371,-4.2371,-4.3833,-4.461,-4.461,-4.461,-4.461,-4.461,-4.461,-4.461,-4.461,-4.461,-4.461,-4.4464,-4.2668,-4.191,-4.1775,-4.1258,-4.0147,-3.8777,-3.8342,-3.8479,-3.8906,-3.8906,-4.0182,-4.1836,-4.1763,-4.1413,-4.0897,-4.0416,0.0,0.0,0.0,0.0,-3.9257,-4.0751,-4.1528,-4.2328,-4.3991,-4.4243,-4.4243,-4.4549,-4.2861,-4.1428,0.0,-3.9797,-3.7491,-3.5705,0.0,0.0,0.0,0.0,-4.0826,-4.0859,-4.2685,-4.3988,-4.3988,-4.4366,-4.454,-4.4355,-4.475,-4.4674,-4.3898,-4.3358,-4.2722,-4.1945,-4.2157,-4.1081,-3.8542,0.0,0.0,0.0,0.0,0.0,0.0,0.0,0.0,0.0,0.0,0.0,0.0,0.0,0.0,0.0,0.0,0.0,0.0,0.0,0.0,0.0,0.0,0.0,0.0,0.0,0.0,0.0,0.0,0.0,-3.8078,-3.9526,0.0,0.0,0.0,0.0,-3.845,-3.8512,-3.9388,-4.1395,-4.1483,-4.2309,-4.424,-4.4409,-4.4471,-4.4471,-4.4564,-4.461,-4.461,-4.461,-4.461,-4.461,-4.461,-4.461,-4.461,-4.461,-4.461,-4.4572,-4.4464,-4.4319,-4.393,-4.2025,-4.1092,-4.0644,-3.8928,-3.9501,-4.1143,-4.1072,-4.2417,-4.409,-4.3898,-4.2568,-4.0674,-3.8808,-3.8187,0.0,0.0,-3.9654,-4.1224,-4.1484,-4.3002,-4.4449,-4.4556,-4.4587,-4.4587,-4.4587,-4.3002,-4.2083,0.0,-4.2432,-4.0695,-3.9843,0.0,-3.9751,-3.7296,-3.9141,-4.0859,-4.0959,-4.275,-4.3988,-4.3988,-4.4011,-4.3791,-4.3115,-4.3107,-4.2705,-4.161,-4.1813,-4.1708,-4.1073,-4.1453,-4.1393,-4.0842,-3.8936,0.0,0.0,0.0,0.0,0.0,0.0,0.0,0.0,0.0,0.0,0.0,0.0,0.0,0.0,0.0,0.0,0.0,0.0,0.0,0.0,0.0,0.0,0.0,0.0,0.0,0.0,0.0,0.0,-3.8185,-3.8554,0.0,-3.9428,-3.949,-3.9801,-4.0447,-4.1678,-4.274,-4.3479,-4.351,-4.3848,-4.4594,-4.461,-4.461,-4.461,-4.461,-4.461,-4.461,-4.461,-4.461,-4.461,-4.461,-4.461,-4.461,-4.461,-4.461,-4.461,-4.461,-4.4549,-4.4434,-4.3697,-4.3368,-4.3254,-4.2569,-4.2806,-4.3405,-4.3405,-4.3881,-4.4473,-4.4396,-4.3716,-4.2811,-4.2097,-4.1884,-4.1921,-4.1958,-4.2683,-4.3457,-4.351,-4.4048,-4.461,-4.461,-4.461,-4.461,-4.461,-4.4018,-4.3725,-4.4373,-4.2846,-4.1198,-4.0458,-4.1935,-4.233,-3.968,-4.1555,-4.3254,-4.3315,-4.3937,-4.4228,-4.3799,-4.3639,-4.3289,-4.2618,-4.2393,-4.1843,-4.0823,-4.0853,-4.0457,-3.9429,-3.9802,-3.9862,-3.9587,-3.8848,-3.6689,0.0,0.0,0.0,0.0,0.0,0.0,0.0,0.0,0.0,0.0,0.0,0.0,0.0,0.0,0.0,0.0,0.0,0.0,0.0,0.0,0.0,0.0,0.0,0.0,0.0,0.0,-3.6322,-3.8585,-3.8862,-3.9416,-4.0755,-4.0878,-4.137,-4.2509,-4.387,-4.461,-4.461,-4.461,-4.461,-4.461,-4.461,-4.461,-4.461,-4.461,-4.461,-4.461,-4.461,-4.461,-4.461,-4.461,-4.4218,-4.3618,-4.4317,-4.4225,-4.3618,-4.4295,-4.461,-4.461,-4.461,-4.461,-4.461,-4.461,-4.461,-4.461,-4.461,-4.461,-4.461,-4.461,-4.4435,-4.4205,-4.4205,-4.4205,-4.4205,-4.4205,-4.4381,-4.461,-4.461,-4.461,-4.461,-4.461,-4.461,-4.461,-4.461,-4.4086,-4.3771,-4.4486,-4.351,-4.2232,-4.1078,-4.2386,-4.2725,-4.0182,-4.1386,-4.2525,-4.2525,-4.2925,-4.3048,-4.2586,-4.2861,-4.2787,-4.2113,-4.1265,-4.0618,-4.0287,-3.9727,-3.9227,-3.8833,-3.8421,-3.8013,-3.7627,-3.6719,-3.4905,-3.2125,0.0,0.0,0.0,0.0,0.0,0.0,0.0,0.0,0.0,0.0,0.0,0.0,0.0,0.0,0.0,0.0,0.0,0.0,0.0,0.0,0.0,0.0,0.0,-3.3567,-3.5845,-3.8061,-3.9447,-4.0801,-4.214,-4.347,-4.3608,-4.3886,-4.4564,-4.461,-4.461,-4.461,-4.4548,-4.4533,-4.4548,-4.4533,-4.4533,-4.4548,-4.4594,-4.461,-4.461,-4.461,-4.461,-4.461,-4.461,-4.3525,-4.1801,-4.3741,-4.3479,-4.1848,-4.3824,-4.461,-4.461,-4.461,-4.461,-4.461,-4.461,-4.461,-4.4572,-4.4564,-4.4579,-4.461,-4.461,-4.4572,-4.4572,-4.4572,-4.4572,-4.4572,-4.4572,-4.4572,-4.461,-4.461,-4.461,-4.461,-4.461,-4.461,-4.461,-4.461,-4.3063,-4.2263,-4.4202,-4.461,-4.3972,-4.2032,-4.1694,-4.1016,-3.9,-3.8708,0.0,-3.8662,-3.9782,-4.0566,-4.0536,-4.1709,-4.2232,-4.1617,-3.9662,-3.891,-3.992,-3.8461,-3.8098,-3.9326,-3.7575,-3.6222,-3.5434,-3.2763,-3.2414,-3.4414,0.0,0.0,0.0,0.0,0.0,0.0,0.0,0.0,0.0,0.0,0.0,0.0,0.0,0.0,0.0,0.0,0.0,0.0,0.0,0.0,0.0,0.0,-3.7107,-3.7107,-3.7754,-3.9108,-4.1478,-4.2094,-4.2648,-4.3531,-4.3608,-4.3886,-4.4564,-4.461,-4.461,-4.461,-4.3202,-4.2648,-4.3125,-4.2679,-4.2648,-4.3156,-4.4095,-4.461,-4.461,-4.461,-4.461,-4.461,-4.461,-4.4317,-4.3787,-4.4341,-4.4302,-4.3802,-4.4356,-4.461,-4.461,-4.461,-4.461,-4.461,-4.461,-4.461,-4.4449,-4.3479,-4.3771,-4.461,-4.461,-4.4396,-4.4166,-4.4166,-4.4166,-4.4166,-4.4166,-4.4396,-4.461,-4.461,-4.461,-4.461,-4.461,-4.461,-4.461,-4.461,-4.4194,-4.3963,-4.4502,-4.461,-4.4402,-4.3848,-4.3756,-4.3571,-4.2987,-4.291,0.0,-4.2284,-4.2509,-4.2371,-4.1401,-4.0309,-3.9955,-4.072,-3.8954,-3.829,-3.9489,-3.9119,-3.8902,-3.895,-3.8463,-3.8076,-3.7828,-3.5285,-3.4227,0.0,0.0,0.0,0.0,0.0,0.0,0.0,0.0,0.0,0.0,0.0,0.0,0.0,0.0,0.0,0.0,0.0,0.0,0.0,0.0,0.0,0.0,-3.7323,-3.9647,-4.0509,-4.0385,-4.0924,-4.2786,-4.3017,-4.3264,-4.3963,-4.4024,-4.4194,-4.4594,-4.461,-4.461,-4.461,-4.3479,-4.2771,-4.2617,-4.2771,-4.2771,-4.2602,-4.3925,-4.461,-4.461,-4.461,-4.461,-4.461,-4.461,-4.4125,0.0,-4.4218,-4.4132,-4.3402,-4.4271,-4.461,0.0,0.0,0.0,0.0,0.0,-4.461,-4.4502,-4.3694,-4.3941,-4.461,-4.461,-4.4435,-4.4243,-4.4243,-4.3663,-4.3006,-4.3006,-4.2527,-4.2248,-4.311,-4.3325,-4.3541,-4.4425,-4.461,-4.461,-4.461,-4.3963,-4.3571,-4.4456,-4.391,0.0,-4.4433,-4.3879,-4.3033,-4.2171,-4.1801,-4.1463,-4.1078,-4.1278,-4.1155,-4.0385,-3.9739,-3.9644,-4.0428,-3.8677,0.0,0.0,0.0,-3.8295,-3.763,-3.7281,0.0,0.0,0.0,-3.3859,-3.4631,0.0,0.0,0.0,-3.2835,-3.1835,0.0,0.0,0.0,0.0,0.0,0.0,0.0,0.0,0.0,0.0,0.0,0.0,0.0,0.0,0.0,0.0,-3.9154,-4.1509,-4.3347,-4.314,-4.3048,-4.3655,-4.3716,-4.3963,-4.4548,-4.461,-4.461,-4.461,-4.461,-4.461,-4.461,0.0,0.0,0.0,0.0,-4.371,-4.2617,-4.3925,-4.461,-4.461,-4.461,-4.461,-4.461,-4.461,-4.3618,-4.2032,-4.3818,-4.3571,-4.2078,-4.3848,-4.461,-4.461,-4.461,-4.461,-4.4594,-4.444,-4.4486,-4.4594,-4.444,0.0,0.0,-4.461,-4.461,-4.461,-4.461,-4.334,-4.194,-4.194,-4.0616,-3.9616,-4.1463,-4.194,-4.2386,-4.4194,-4.461,-4.461,-4.461,-4.3187,-4.2463,-4.4271,-4.3156,-4.2494,-4.4302,-4.311,-4.1278,-3.937,-3.8569,-3.8123,-3.7984,-3.8492,-3.8831,-3.8739,0.0,0.0,-4.0474,-3.8677,-3.8337,-4.0332,-3.878,-3.7344,-3.6347,-3.5692,-3.4203,-3.1851,-3.1973,-3.3,-3.4835,-3.5054,-3.6222,-3.8101,-3.3758,-3.2993,0.0,0.0,0.0,0.0,0.0,0.0,0.0,0.0,0.0,0.0,0.0,0.0,0.0,0.0,0.0,-3.9564,-4.1571,-4.3162,-4.3547,-4.3963,-4.4271,-4.4409,-4.4425,-4.4471,-4.461,-4.461,-4.461,-4.461,-4.461,-4.461,-4.461,-4.3048,-4.2309,-4.2602,-4.2325,-4.2325,-4.2602,-4.3925,-4.461,-4.461,0.0,0.0,-4.461,-4.461,-4.4409,-4.4018,-4.444,-4.4394,-4.4033,-4.4456,-4.461,-4.461,-4.461,-4.461,-4.4486,-4.3387,-4.3664,-4.4471,-4.3356,-4.3679,-4.461,-4.461,-4.461,-4.461,-4.461,-4.4348,0.0,-4.4002,-4.371,-4.3494,-4.3932,-4.4002,-4.4132,-4.4533,-4.461,-4.461,-4.461,-4.4279,-4.411,-4.4533,-4.4302,-4.4125,-4.4548,-4.4302,-4.3716,-4.2777,-4.2515,-4.2053,-4.0955,-4.0924,-4.0786,-4.0166,-3.8908,-3.8754,-4.0351,-3.8677,-3.8238,-3.998,-3.9736,-3.9273,-3.8757,-3.8581,-3.813,-3.7293,-3.7009,-3.7041,-3.7476,-3.7513,-3.776,-3.8188,-3.7223,-3.7236,0.0,0.0,0.0,0.0,0.0,0.0,0.0,0.0,0.0,0.0,0.0,-3.5969,0.0,0.0,-3.9171,-4.0286,-4.1678,-4.2925,-4.3978,-4.4409,-4.461,-4.461,-4.461,-4.461,-4.461,-4.461,-4.461,-4.461,-4.461,-4.461,-4.461,-4.3633,-4.294,-4.2617,-4.2925,-4.294,-4.2602,-4.3925,-4.461,-4.461,-4.461,-4.461,-4.461,-4.461,-4.461,-4.461,-4.461,-4.461,-4.461,-4.461,-4.461,-4.461,-4.461,-4.461,-4.4533,-4.3833,-4.4002,-4.4479,-4.3818,-4.4033,-4.461,-4.461,-4.461,-4.461,-4.461,-4.3879,-4.3094,-4.3094,-4.234,-4.1786,-4.2817,-4.3094,-4.334,-4.4341,-4.461,-4.461,-4.461,-4.461,-4.461,-4.461,-4.461,-4.461,-4.461,-4.461,-4.4379,-4.3701,-4.3039,-4.234,-4.1678,-4.1294,-4.0889,-4.0536,-3.9582,-3.9398,-4.0397,-3.9567,-3.9346,-4.02,-3.991,-3.961,-3.94,-3.9002,-3.8708,-3.8501,-3.8315,-3.8202,-3.8202,-3.8202,-3.8202,-3.8202,-3.8427,-3.8501,0.0,0.0,0.0,0.0,0.0,0.0,0.0,0.0,-3.6056,-3.6792,-3.7748,-3.8341,-3.8054,-3.8937,-4.0047,-4.114,-4.1801,-4.274,-4.4356,-4.461,-4.461,-4.461,-4.461,-4.461,-4.461,-4.461,-4.461,-4.461,-4.461,-4.461,-4.461,-4.461,-4.4095,-4.3017,-4.4033,-4.4064,-4.3002,-4.4048,-4.461,-4.461,-4.461,-4.4687,-4.4772,-4.4772,-4.4887,-4.501,-4.501,-4.501,-4.501,-4.501,-4.501,-4.4995,-4.4872,-4.4772,-4.4795,-4.4671,-4.461,-4.461,-4.461,-4.461,-4.461,-4.461,-4.461,-4.461,-4.461,-4.3448,-4.2171,-4.2171,-4.097,-4.0078,-4.174,-4.2171,-4.2586,-4.4225,-4.461,-4.461,-4.461,-4.461,-4.461,-4.461,-4.461,-4.461,-4.461,-4.4502,-4.424,-4.3685,-4.2556,-4.1755,-4.1617,-4.097,-4.0489,-4.0489,-4.0489,-4.0489,-4.0489,-4.0489,-4.0489,-4.0489,-3.995,-3.9615,-3.9615,-3.8855,-3.8427,-3.8427,-3.8277,-3.8202,-3.8202,-3.8202,-3.8202,-3.8202,-3.8523,-3.856,-3.6421,-3.3064,-3.1463,-3.4139,-3.5657,-3.6745,0.0,0.0,-4.1843,-4.0586,-4.1901,-4.3313,-4.3637,-4.3811,-4.3994,-4.4132,-4.4225,-4.4363,-4.4594,-4.461,-4.461,-4.461,-4.461,-4.461,-4.461,-4.461,-4.461,-4.461,-4.461,-4.461,-4.461,-4.461,-4.4548,-4.4356,-4.4533,-4.4548,-4.4394,-4.4548,-4.461,-4.461,-4.461,-4.4895,-4.548,-4.548,-4.5803,-4.6372,-4.6372,-4.6372,-4.6372,-4.6372,-4.6372,-4.6311,-4.5711,-4.548,-4.5403,-4.4803,-4.461,-4.461,-4.461,-4.461,-4.461,-4.461,-4.461,-4.461,-4.461,-4.4456,-4.4271,-4.4271,-4.4117,-4.3956,-4.4187,-4.4271,-4.4295,-4.4564,-4.461,-4.461,-4.461,-4.461,-4.461,-4.461,-4.461,-4.461,-4.461,-4.4117,-4.3701,-4.3624,-4.2956,-4.2279,-4.1678,-4.097,-4.0489,-4.0489,-4.0489,-4.0489,-4.0489,-4.0489,-4.0489,-4.0489,-4.042,-4.0385,-4.0385,-3.9651,-3.9271,-3.9271,-3.856,-3.8202,-3.8202,-3.8202,-3.8202,-3.8202,-3.824,-3.8427,-3.8792,-3.8318,-3.8564,-3.9868,-4.1222,-4.2428,-4.3121,-4.3807,-4.4096,-4.3334,-4.3994,-4.461,-4.432,-4.3484,-4.3233,0.0,-4.3602,-4.3248,-4.4456,-4.461,-4.461,-4.461,-4.3895,-4.3571,-4.3994,-4.4379,-4.4456,-4.4055,-4.4394,-4.461,-4.461,-4.461,-4.461,-4.461,-4.461,-4.461,-4.461,-4.501,-4.5172,-4.5172,-4.5572,-4.5895,-4.6172,-4.6172,-4.6326,-4.6603,-4.6603,-4.6603,-4.6603,-4.6603,-4.6603,-4.6573,-4.628,-4.6172,-4.6034,-4.501,-4.461,-4.461,-4.461,-4.461,-4.461,-4.461,-4.461,-4.461,-4.461,-4.461,-4.461,-4.461,-4.461,-4.461,-4.461,-4.4435,-4.432,-4.4534,-4.4435,-4.432,-4.4549,-4.461,-4.461,-4.461,-4.461,-4.461,-4.461,-4.4379,-4.4194,-4.4194,-4.3279,-4.2509,-4.2217,-4.1925,-4.1479,-4.0868,-4.0631,-4.0436,-4.0226,-4.0401,-4.0489,-4.0489,-4.0331,-4.0207,-4.0207,-3.9702,-3.94,-3.94,-3.9075,-3.8892,-3.8892,-3.8892,-3.8892,-3.8892,-3.9141,-3.9213,-3.989,-4.1125,-4.2406,-4.3621,-4.4789,-4.5826,-4.6437,-4.5949,-4.5316,-4.5036,-4.5221,-4.5274,-4.4594,-4.3686,-4.337,-4.4416,-4.354,-4.3164,-4.4409,-4.461,-4.4409,-4.3818,-4.3079,-4.2494,-4.2202,-4.331,-4.3987,-4.3886,-4.4348,-4.461,-4.461,-4.461,-4.461,-4.461,-4.4795,-4.4902,-4.4902,-4.5526,-4.5865,-4.588,-4.6357,-4.6696,-4.688,-4.7065,-4.7157,-4.7157,-4.7157,-4.7157,-4.7157,-4.7157,-4.7157,-4.7127,-4.6942,-4.688,-4.6742,-4.5572,-4.5126,-4.5126,-4.5126,-4.5041,-4.4902,-4.4902,-4.4764,-4.461,-4.461,-4.461,-4.461,-4.461,-4.461,-4.4572,-4.4458,-4.4205,-4.405,-4.4189,-4.4011,-4.3934,-4.4358,-4.4435,-4.4473,-4.4587,-4.461,-4.4572,-4.4473,-4.4435,-4.4435,-4.4435,-4.3622,-4.2947,-4.2894,-4.2585,-4.2096,-4.1353,-4.0776,-4.0345,-4.0111,-4.0142,-4.0211,-4.0211,-4.0051,-3.996,-3.9839,-3.9559,-3.9328,-3.922,-3.9111,-3.9075,-3.9075,-3.9075,-3.9075,-3.9075,-3.9358,-3.9358,-3.8323,-3.7866,-3.7941,-4.2157,-4.3752,-4.4513,-4.5488,-4.5969,-4.6024,-4.5499,-4.5794,-4.6048,-4.5717,-4.6205,-4.6173,-4.4805,-4.5153,-4.5358,-4.467,-4.461,-4.3864,-4.1925,-4.2232,-4.1571,0.0,-4.1093,-4.3187,-4.4486,-4.461,-4.461,-4.461,-4.461,-4.461,-4.461,-4.5218,-4.5557,-4.5557,-4.6219,-4.6573,-4.6573,-4.6588,-4.6942,-4.7588,-4.825,-4.8558,-4.8558,-4.8558,-4.8558,-4.8558,-4.8558,-4.8558,-4.8481,-4.7835,-4.7573,-4.7496,-4.6788,-4.6542,-4.6542,-4.6542,-4.6095,-4.5557,-4.5557,-4.511,-4.461,-4.461,-4.461,-4.461,-4.461,-4.461,-4.4511,-4.4127,-4.4026,-4.391,-4.3448,-4.3329,-4.3463,-4.391,-4.4026,-4.4127,-4.4534,-4.461,-4.4473,-4.4104,-4.4026,-4.4026,-4.4026,-4.3981,-4.3876,-4.358,-4.2609,-4.1886,-4.1871,-4.0934,-4.0307,-4.027,-3.9775,-3.9436,-3.9436,-3.9803,-3.9839,-3.9451,-3.94,-3.922,-3.8819,-3.8427,-3.824,-3.824,-3.824,-3.824,-3.824,-3.824,-3.824,-3.7447,0.0,-4.2206,-4.3627,-4.5175,-4.6437,-4.6817,-4.6876,-4.6791,-4.6477,-4.544,-4.4475,-4.4122,-4.312,-4.2525,-4.3055,-4.256,-4.2695,-4.4361,-4.3033,-4.2309,-4.3433,-4.2186,0.0,0.0,0.0,0.0,-4.2602,-4.387,-4.461,-4.461,-4.461,-4.4825,-4.5234,-4.5464,-4.5803,-4.6249,-4.6927,-4.7265,-4.7281,-4.7711,-4.8065,-4.8281,-4.8512,-4.862,-4.862,-4.862,-4.862,-4.862,-4.862,-4.862,-4.8589,-4.8358,-4.8266,-4.825,-4.8019,-4.7942,-4.7804,-4.6911,-4.6449,-4.6249,-4.6249,-4.5803,-4.5249,-4.5249,-4.4926,-4.461,-4.461,-4.461,-4.4511,-4.4089,-4.3988,-4.3949,-4.3778,-4.3778,-4.3817,-4.3988,-4.4205,-4.4281,-4.384,-4.4189,-4.4473,-4.4065,-4.4205,-4.432,-4.4026,-4.3988,-4.3974,-4.3861,-4.2894,-4.2074,-4.179,-4.1285,-4.0875,-4.0571,-4.0211,-4.0023,-4.0023,-3.9763,-3.9523,-3.94,-3.94,-3.9328,-3.9184,-3.9075,-3.9002,-3.9002,-3.9002,-3.9002,-3.9002,-3.9002,-3.8855,0.0,-4.1473,-4.4249,-4.5159,-4.6389,-4.7354,-4.7201,-4.7302,-4.7387,-4.7116,-4.6241,-4.5095,-4.3816,-4.2722,-4.208,-4.2376,-4.1841,-4.2183,-4.4306,-4.3079,-4.2355,-4.3387,-4.2186,-4.1663,0.0,0.0,0.0,-4.1648,-4.3217,-4.4055,-4.3541,-4.4225,-4.4895,-4.5572,-4.6049,-4.6511,-4.6942,-4.7635,-4.7973,-4.7973,-4.8404,-4.862,-4.862,-4.862,-4.8219,-4.7573,-4.8296,-4.8204,-4.7588,-4.8312,-4.862,-4.862,-4.862,-4.862,-4.862,-4.862,-4.862,-4.8496,-4.7619,-4.7157,-4.6957,-4.6957,-4.6496,-4.5957,-4.5957,-4.548,-4.4941,-4.4941,-4.4756,-4.4511,-4.4089,-4.3988,-4.3949,-4.3778,-4.3738,-4.3778,-4.3949,-4.4205,-4.4266,-4.384,-4.4228,-4.4473,-4.4065,-4.4205,-4.4281,-4.4026,-4.3988,-4.3949,-4.3778,-4.3127,-4.249,-4.2079,-4.1558,-4.1096,-4.0876,-4.0492,-4.0246,-4.0246,-4.001,-3.9684,-3.9336,-3.9483,-3.9364,-3.898,-3.8965,-3.8965,-3.8965,-3.8965,-3.8965,-3.8965,-3.8965,-3.8819,-4.1688,-4.3223,-4.4045,-4.6566,-4.7302,-4.727,-4.6738,-4.727,-4.777,-4.7324,-4.7719,-4.7289,0.0,0.0,-4.4314,-4.2579,-4.2812,-4.3547,-4.4418,-4.4456,-4.3694,0.0,0.0,0.0,0.0,0.0,0.0,-4.1663,0.0,-4.3131,-4.1863,-4.3602,-4.4957,-4.5664,-4.6942,-4.7619,-4.765,-4.8296,-4.862,-4.862,-4.862,-4.862,-4.862,-4.862,-4.7573,-4.5849,-4.7773,-4.7527,-4.5895,-4.7819,-4.862,-4.862,-4.862,-4.862,-4.862,-4.862,-4.862,-4.862,-4.862,-4.8189,-4.765,-4.765,-4.7204,-4.665,-4.665,-4.6172,-4.5634,-4.5603,-4.5126,-4.4542,-4.4104,-4.4026,-4.3895,-4.3463,-4.3329,-4.3488,-4.3895,-4.4026,-4.4127,-4.4473,-4.4534,-4.4458,-4.4104,-4.4026,-4.4026,-4.3988,-4.3988,-4.3817,-4.3369,-4.329,-4.313,-4.2729,-4.1781,-4.1149,-4.1149,-4.0539,-4.0147,-4.0147,-4.0485,-4.0246,-3.9276,-3.9616,-3.9323,-3.8318,-3.8275,-3.826,-3.826,-3.8217,-3.8202,-3.8202,-3.8202,-3.8202,-4.0758,-4.3627,-4.6684,-4.729,-4.7352,-4.7233,-4.7075,-4.7334,-4.7161,-4.5494,-4.4185,-4.251,0.0,0.0,0.0,-4.0389,-4.0024,0.0,-4.3504,-4.2563,0.0,-4.2294,0.0,-4.2786,-4.3233,-4.3771,0.0,0.0,-4.3279,-4.4387,-4.4556,-4.5049,-4.5865,-4.705,-4.7419,-4.785,-4.8358,-4.8527,-4.862,-4.862,-4.862,-4.862,-4.862,-4.862,-4.8327,-4.7865,-4.8389,-4.8327,-4.7881,-4.8404,-4.862,-4.862,-4.862,-4.862,-4.862,-4.862,-4.862,-4.862,-4.862,-4.8496,-4.8358,-4.8358,-4.7896,-4.7357,-4.7357,-4.688,-4.6234,-4.5726,-4.5464,-4.5141,-4.4226,-4.4205,-4.4358,-4.3934,-4.405,-4.4228,-4.405,-4.4243,-4.4281,-4.3723,-4.3934,-4.4205,-4.4396,-4.4473,-4.4243,-4.3581,-4.3778,-4.3949,-4.3832,-4.325,-4.2809,-4.2688,-4.2205,-4.1845,-4.1845,-4.1221,-4.0844,-4.0844,-4.0459,-4.0149,-3.9871,-3.9989,-3.9901,-3.9625,-3.9175,-3.8942,-3.8942,-3.8449,-3.8202,-3.8202,-3.8202,-3.8202,-4.3174,-4.5451,-4.7671,-4.7537,-4.7537,-4.7289,-4.6227,-4.6236,-4.5766,-4.3122,-4.2079,-4.0745,-3.7953,-3.709,0.0,0.0,0.0,0.0,-4.3291,-4.2655,-4.2082,0.0,-4.2602,0.0,-4.4486,-4.461,-4.411,0.0,-4.3941,-4.4495,-4.4295,-4.5387,-4.6511,-4.7573,-4.7896,-4.8235,-4.862,-4.862,-4.862,-4.862,-4.862,-4.862,-4.862,-4.862,-4.8127,-4.7342,0.0,-4.8112,-4.7357,-4.825,-4.862,-4.862,-4.862,-4.862,-4.862,-4.862,-4.862,-4.862,-4.862,-4.862,-4.862,-4.862,-4.8358,-4.805,-4.805,-4.7573,-4.6957,-4.6573,-4.5931,-4.5238,-4.4816,-4.4511,-4.432,-4.4281,-4.4435,-4.4549,-4.432,-4.4435,-4.4458,-4.3957,-4.4073,-4.4358,-4.4572,-4.4473,-4.4166,-4.3699,-4.366,-4.3699,-4.3699,-4.309,-4.2607,-4.2474,-4.2242,-4.2092,-4.2092,-4.1758,-4.1541,-4.1541,-4.1192,-4.0844,-4.0554,-4.0539,-4.0394,-4.0104,-3.977,-3.9596,-3.9596,-3.9218,-3.903,-3.903,-3.903,-3.903,-4.6504,-4.7374,-4.7638,-4.7537,-4.7737,-4.7424,-4.5351,-4.4935,-4.4085,-4.0974,-4.0619,-4.0134,-3.7761,-3.7911,-3.8979,-4.0878,0.0,-4.1588,-4.2935,-4.3298,-4.3137,-4.2412,-4.2571,-4.3217,-4.4502,-4.4533,-4.4548,-4.4695,-4.4841,-4.4341,-4.3202,-4.5418,-4.7034,-4.7711,-4.8312,-4.862,-4.862,-4.862,-4.862,-4.862,-4.862,-4.862,-4.862,-4.862,-4.765,-4.6095,-4.785,0.0,-4.6126,-4.7881,-4.862,-4.862,-4.862,-4.862,-4.862,-4.862,-4.862,-4.862,-4.862,-4.862,-4.862,-4.862,-4.862,-4.862,-4.862,-4.8204,-4.7711,-4.7635,-4.6492,-4.5337,-4.5663,-4.4923,-4.4226,-4.4634,-4.4671,-4.461,-4.461,-4.461,-4.461,-4.461,-4.461,-4.4572,-4.4534,-4.4243,-4.3949,-4.3817,-4.3488,-4.321,-4.3145,-4.289,-4.2581,-4.2201,-4.2133,-4.2092,-4.2092,-4.2092,-4.2092,-4.2092,-4.2092,-4.1845,-4.125,-4.1221,-4.096,-4.0379,-4.0278,-4.0234,-4.0234,-4.0133,-4.0104,-4.0104,-4.0104,-4.0104,-4.527,-4.6224,-4.7488,-4.7638,-4.7704,-4.7688,-4.7424,-4.5474,0.0,-4.0981,-3.8631,-3.6846,-3.6487,-3.7117,-3.8422,-4.0668,-4.0769,-4.0459,-4.0183,-4.1187,-4.1681,0.0,-4.2371,-4.3747,-4.4533,0.0,0.0,0.0,0.0,-4.6142,-4.5911,-4.6865,-4.7742,-4.8419,-4.8558,-4.862,-4.862,-4.862,-4.862,-4.862,-4.862,-4.862,-4.862,-4.862,-4.8419,-4.8112,-4.8466,0.0,-4.8127,-4.8466,-4.862,-4.862,-4.862,-4.862,-4.862,-4.862,-4.862,-4.862,-4.862,-4.862,-4.862,-4.862,-4.862,-4.862,-4.862,-4.8543,-4.8327,-4.7758,-4.7094,-4.6544,-4.6438,-4.5611,-4.4871,-4.5341,-4.4987,-4.461,-4.461,-4.461,-4.461,-4.461,-4.461,-4.4496,-4.4166,-4.4065,-4.3738,-4.305,-4.285,-4.2703,-4.2366,-4.2541,-4.2648,-4.2622,-4.2284,-4.2092,-4.2092,-4.2092,-4.2092,-4.2092,-4.2092,-4.2049,-4.1932,-4.1918,-4.186,-4.1758,-4.1207,-4.0916,-4.0916,-4.0365,-4.0104,-4.0104,-4.0104,-4.0104,-4.4894,-4.5896,-4.7471,-4.777,-4.7919,-4.729,-4.4704,0.0,0.0,-3.6858,-3.514,-3.4293,-3.3972,-3.4937,0.0,-3.9931,-4.0642,-4.0994,-4.1542,-4.2256,0.0,-4.1685,-4.2489,-4.3325,0.0,0.0,0.0,0.0,0.0,-4.6003,-4.7065,-4.7758,-4.8281,-4.8604,-4.862,-4.862,-4.862,-4.862,-4.862,-4.862,-4.862,-4.862,-4.862,-4.862,-4.862,-4.862,-4.862,0.0,-4.7127,-4.8173,-4.7989,-4.7142,-4.8204,-4.862,-4.862,-4.862,-4.862,-4.862,-4.862,-4.862,-4.862,-4.862,-4.862,-4.862,-4.862,-4.862,-4.8501,-4.7946,-4.7205,-4.6565,-4.6414,-4.5552,-4.4851,-4.5299,-4.5137,-4.4819,-4.451,-4.4434,-4.4328,-4.3979,-4.3918,-4.3879,-4.366,-4.3463,-4.317,-4.2769,-4.25,-4.2325,-4.2133,-4.2284,-4.2392,-4.2392,-4.2216,-4.2092,-4.2092,-4.2092,-4.2092,-4.2092,-4.2092,-4.2092,-4.2092,-4.2092,-4.2092,-4.2092,-4.1787,-4.1613,-4.1613,-4.1294,-4.1134,-4.1134,-4.1134,-4.1134,-4.513,-4.6061,-4.732,-4.7721,-4.7984,-4.6919,-4.2196,-4.0776,-3.8956,-3.3573,-3.2417,-3.2369,-3.2447,-3.3662,-3.5811,0.0,-4.0146,-4.0998,-4.2717,-4.2764,-4.2589,0.0,-4.2721,0.0,0.0,0.0,0.0,0.0,0.0,0.0,-4.7727,-4.8327,-4.862,-4.862,-4.862,-4.862,-4.862,-4.862,-4.862,-4.862,-4.862,-4.862,-4.862,-4.862,-4.862,-4.862,-4.862,0.0,0.0,-4.7773,-4.7419,-4.5788,-4.7819,-4.862,-4.862,-4.862,-4.862,-4.862,-4.862,-4.862,-4.862,-4.862,-4.862,-4.862,-4.862,-4.862,-4.8537,-4.8133,-4.7274,-4.6486,-4.6444,-4.5611,-4.4881,-4.5153,-4.5206,-4.5057,-4.459,-4.4471,-4.4336,-4.3813,-4.3604,-4.3459,-4.3379,-4.2979,-4.2648,-4.2581,-4.2325,-4.2092,-4.2092,-4.2092,-4.2092,-4.2092,-4.2092,-4.2092,-4.2092,-4.2092,-4.2092,-4.2092,-4.2092,-4.2092,-4.2092,-4.2092,-4.2092,-4.2092,-4.2092,-4.2092,-4.2092,-4.2092,-4.2092,-4.2092,-4.2092,-4.2092,-4.6013,-4.668,-4.6772,-4.7167,-4.7638,-4.7165,-4.3889,0.0,-3.8544,-3.5355,-3.2531,-3.1434,-3.4121,-3.5485,-3.697,-3.9317,-3.8595,-3.8407,-4.034,-3.9679,-3.9868,-4.233,0.0,0.0,0.0,0.0,0.0,0.0,0.0,0.0,-4.8512,-4.8573,-4.862,-4.862,-4.862,-4.862,-4.862,-4.862,-4.862,-4.862,-4.862,-4.862,-4.862,-4.862,-4.862,-4.862,-4.862,0.0,0.0,-4.7773,-4.7419,-4.5788,-4.7819,-4.862,-4.862,-4.862,-4.862,-4.862,-4.862,-4.862,-4.862,-4.862,-4.862,-4.862,-4.862,-4.862,-4.8537,-4.8133,-4.7636,-4.7219,-4.7204,-4.6367,-4.5472,-4.5272,-4.5206,-4.5176,-4.5132,-4.5117,-4.5102,-4.5042,-4.459,-4.405,-4.364,-4.3071,-4.2581,-4.2201,-4.2133,-4.2092,-4.2092,-4.2092,-4.2092,-4.2092,-4.2092,-4.2092,-4.2092,-4.2092,-4.2092,-4.2092,-4.2092,-4.2092,-4.2092,-4.2092,-4.2092,-4.2092,-4.2092,-4.2092,-4.2092,-4.2092,-4.2092,-4.2092,-4.2092,-4.2092,-4.2961,-4.4702,-4.6547,-4.7064,-4.7422,-4.6419,-4.1703,0.0,-3.7852,-3.3193,-3.1247,-3.0742,-3.1852,-3.2929,-3.4232,-3.6098,-3.6238,0.0,-4.0223,-4.0313,-4.0898,-4.3175,0.0,0.0,0.0,0.0,0.0,0.0,0.0,0.0,-4.8558,-4.862,-4.862,-4.862,-4.862,-4.862,-4.862,-4.862,-4.862,-4.862,-4.862,-4.862,-4.862,-4.862,-4.862,-4.862,-4.862,0.0,0.0,-4.7281,-4.6711,-4.411,-4.7357,-4.862,-4.862,-4.862,-4.862,-4.862,-4.862,-4.862,-4.862,-4.862,-4.862,-4.862,-4.862,-4.862,-4.8537,-4.8133,-4.7681,-4.7207,-4.6946,-4.6315,-4.5741,-4.5654,-4.5624,-4.5521,-4.511,-4.5022,-4.4919,-4.4552,-4.4273,-4.4055,-4.3885,-4.3624,-4.329,-4.2729,-4.2629,-4.2498,-4.215,-4.2092,-4.2092,-4.2092,-4.2092,-4.2092,-4.2092,-4.2092,-4.2092,-4.2092,-4.2092,-4.2092,-4.2092,-4.2092,-4.2092,-4.2092,-4.2092,-4.2092,-4.2092,-4.2092,-4.2092,-4.2092,-4.2092,-4.2092,-4.1212,-4.3648,-4.6353,-4.6823,-4.6481,-4.4785,0.0,0.0,-3.6338,-3.1331,-3.0338,-3.0375,-3.021,-3.0957,-3.2148,-3.398,-3.4659,-3.6174,-3.9634,-4.0126,-4.0882,0.0,0.0,0.0,0.0,0.0,0.0,0.0,0.0,0.0,-4.8543,-4.862,-4.862,-4.862,-4.862,-4.862,-4.862,-4.862,-4.862,-4.862,-4.862,-4.8296,-4.7742,-4.8343,-4.8296,-4.7758,-4.8358,0.0,0.0,-4.7204,-4.6588,-4.3833,-4.7265,-4.8537,-4.8453,-4.8578,-4.8537,-4.8453,-4.8578,-4.862,-4.862,-4.862,-4.862,-4.862,-4.862,-4.862,-4.8495,-4.7964,-4.7322,-4.6815,-4.6462,-4.615,-4.588,-4.588,-4.588,-4.575,-4.5285,-4.5184,-4.5053,-4.4632,-4.4385,-4.4255,-4.4255,-4.411,-4.3834,-4.3355,-4.3123,-4.2832,-4.2411,-4.2208,-4.2092,-4.2092,-4.2092,-4.2092,-4.2092,-4.2092,-4.2092,-4.2092,-4.2092,-4.2092,-4.2092,-4.2092,-4.2092,-4.2092,-4.2092,-4.2092,-4.2092,-4.2092,-4.2092,-4.2092,-4.2092,-4.2092,-4.1904,-4.4335,-4.6132,-4.6262,-4.4623,-4.215,0.0,-3.6453,-3.3766,-3.0641,-3.0227,-3.0375,-3.021,-3.0631,-3.1767,-3.4038,-3.4278,0.0,-3.7944,-3.8106,0.0,0.0,0.0,0.0,0.0,0.0,0.0,0.0,0.0,0.0,-4.862,-4.862,-4.862,-4.862,-4.862,-4.862,-4.862,-4.862,-4.862,-4.862,-4.862,-4.7573,-4.5695,-4.7696,-4.7511,0.0,0.0,0.0,0.0,-4.7773,-4.7404,-4.5757,-4.7819,-4.837,-4.8049,-4.8453,-4.8328,-4.8049,-4.8453,-4.862,-4.862,-4.862,-4.862,-4.862,-4.862,-4.862,-4.8412,-4.7553,-4.6639,-4.5925,-4.5925,-4.588,-4.588,-4.588,-4.588,-4.588,-4.588,-4.588,-4.588,-4.5866,-4.5329,-4.4879,-4.4879,-4.4385,-4.3993,-4.3979,-4.3413,-4.2992,-4.2977,-4.2469,-4.2092,-4.2092,-4.2092,-4.2092,-4.2092,-4.2092,-4.2092,-4.2092,-4.2092,-4.2092,-4.2092,-4.2092,-4.2092,-4.2092,-4.2092,-4.2092,-4.2092,-4.2092,-4.2092,-4.2092,-4.2092,-4.2092,-3.7464,-3.9265,-4.0832,-4.0498,-3.9962,-3.8743,-3.5948,-3.4774,-3.3461,-3.0581,-3.021,-3.0295,-3.0,-3.0069,-3.0997,-3.3501,-3.3533,0.0,0.0,0.0,0.0,0.0,0.0,0.0,0.0,0.0,0.0,0.0,0.0,0.0,-4.8543,-4.862,-4.862,-4.862,-4.862,-4.862,-4.862,-4.862,-4.862,-4.862,-4.862,-4.7436,-4.5327,-4.7574,-4.739,0.0,0.0,0.0,0.0,-4.7773,-4.7419,-4.5749,-4.7507,-4.8286,-4.837,-4.788,-4.7837,-4.7964,-4.7794,-4.7709,-4.7709,-4.7709,-4.7709,-4.7709,-4.7709,-4.7922,-4.7992,-4.7077,-4.6594,-4.6284,-4.597,-4.588,-4.588,-4.588,-4.588,-4.588,-4.588,-4.588,-4.588,-4.588,-4.5721,-4.5576,-4.5576,-4.5416,-4.5126,-4.4676,-4.4414,-4.4139,-4.3732,-4.3108,-4.2716,-4.2716,-4.2339,-4.2092,-4.2092,-4.2092,-4.2092,-4.2092,-4.2092,-4.2092,-4.2092,-4.2092,-4.2092,-4.2092,-4.2092,-4.2092,-4.2092,-4.2092,-4.2092,-4.2092,-4.2092,-4.2092,-3.5031,-3.6722,-3.8032,-3.778,-3.7004,0.0,-3.4266,-3.3177,-3.2019,-3.0303,-3.1029,-3.1505,-3.0102,-3.0457,-3.1253,-3.2112,-3.2964,0.0,0.0,0.0,0.0,0.0,0.0,0.0,0.0,0.0,0.0,0.0,0.0,0.0,-4.8486,-4.862,-4.862,-4.862,-4.862,-4.862,-4.862,-4.862,-4.862,-4.862,-4.8453,-4.7272,-4.5367,-4.741,-4.7242,0.0,0.0,0.0,0.0,-4.8096,-4.7865,-4.6825,-4.7688,-4.8175,-4.8301,-4.7553,-4.7467,-4.7666,-4.7381,-4.7309,-4.7294,-4.7381,-4.7424,-4.7381,-4.7207,-4.7279,-4.7366,-4.6771,-4.6462,-4.6284,-4.597,-4.588,-4.588,-4.588,-4.588,-4.588,-4.588,-4.588,-4.588,-4.588,-4.588,-4.588,-4.588,-4.588,-4.575,-4.5329,-4.5053,-4.4748,-4.4371,-4.3776,-4.3268,-4.3021,-4.2658,-4.2339,-4.2121,-4.2092,-4.2092,-4.2092,-4.2092,-4.2092,-4.2092,-4.2092,-4.2092,-4.2092,-4.2092,-4.2092,-4.2092,-4.2092,-4.2092,-4.2092,-4.2092,-4.2092,0.0,-3.5992,-3.7001,-3.708,-3.5222,-3.3412,-3.3558,-3.1675,0.0,-3.0156,-3.2476,-3.3607,-3.0729,-3.1829,-3.2499,-3.0427,0.0,0.0,0.0,0.0,0.0,0.0,0.0,0.0,0.0,0.0,0.0,0.0,0.0,0.0,-4.8449,-4.8578,-4.8578,-4.8495,-4.8537,-4.8578,-4.8578,-4.8578,-4.8501,-4.8321,-4.8099,-4.7047,-4.5317,-4.7143,-4.7078,0.0,0.0,0.0,0.0,-4.8578,-4.8537,-4.8453,-4.8049,-4.7922,-4.788,-4.7381,-4.7222,-4.7266,-4.7222,-4.7222,-4.7251,-4.7452,-4.7553,-4.7452,-4.7019,-4.6756,-4.6639,-4.6594,-4.6284,-4.594,-4.5925,-4.5925,-4.5925,-4.588,-4.588,-4.588,-4.588,-4.588,-4.588,-4.588,-4.5925,-4.5925,-4.5925,-4.5925,-4.5925,-4.5925,-4.5402,-4.4951,-4.4951,-4.4429,-4.3819,-4.3195,-4.305,-4.276,-4.2208,-4.2121,-4.2092,-4.2092,-4.2092,-4.2092,-4.2092,-4.2092,-4.2092,-4.2092,-4.2092,-4.2092,-4.2092,-4.2092,-4.2092,-4.2092,-4.2092,-4.2092,-3.1058,0.0,-3.1785,-3.1257,-3.072,-3.0361,0.0,-3.0135,-3.04,-3.2659,-3.386,-3.4227,0.0,0.0,0.0,0.0,0.0,0.0,0.0,0.0,0.0,0.0,0.0,0.0,0.0,0.0,0.0,0.0,0.0,-4.7183,-4.7593,-4.8244,-4.8286,-4.7639,-4.7964,-4.8133,-4.8133,-4.8453,-4.7507,-4.5389,-4.7137,-4.5893,-4.2055,-4.5762,-4.647,0.0,0.0,0.0,-4.8133,-4.8133,-4.7922,-4.7538,-4.7121,-4.7164,-4.7337,-4.655,-4.6462,-4.6727,-4.6373,-4.6314,-4.6491,-4.6771,-4.6858,-4.6815,-4.6727,-4.6756,-4.68,-4.6639,-4.6506,-4.6373,-4.618,-4.6135,-4.609,-4.5925,-4.588,-4.588,-4.588,-4.588,-4.588,-4.588,-4.6001,-4.6135,-4.6135,-4.6135,-4.6135,-4.6135,-4.587,-4.5648,-4.5648,-4.5082,-4.4618,-4.4458,-4.3573,-4.2934,-4.2789,-4.2368,-4.2092,-4.2092,-4.2092,-4.2092,-4.2092,-4.2092,-4.2092,-4.2092,-4.2092,-4.2092,-4.2092,-4.2092,-4.2092,-4.2092,-4.2092,-4.2092,-2.9595,-2.9706,-2.9911,-3.0788,-3.0164,-2.9662,-3.1102,-3.0516,-3.0532,-3.3493,-3.4217,-3.4264,0.0,0.0,0.0,0.0,-3.3486,0.0,0.0,0.0,0.0,0.0,0.0,0.0,0.0,0.0,0.0,0.0,0.0,-4.6319,-4.7249,-4.7767,-4.7794,-4.7294,-4.7553,-4.7681,-4.7681,-4.788,-4.6781,-4.4428,-4.6421,-4.5622,-4.257,-4.5592,-4.6625,0.0,0.0,0.0,-4.7946,-4.6978,-4.6852,-4.7251,-4.6771,-4.6902,-4.7222,-4.6373,-4.6284,-4.655,-4.6328,-4.6358,-4.6521,-4.6594,-4.6683,-4.6712,-4.6712,-4.68,-4.6844,-4.6683,-4.6594,-4.655,-4.6403,-4.6314,-4.6225,-4.6239,-4.606,-4.5925,-4.6001,-4.606,-4.606,-4.606,-4.6225,-4.6358,-4.6358,-4.6358,-4.6358,-4.6358,-4.618,-4.606,-4.606,-4.565,-4.5227,-4.4922,-4.4023,-4.3326,-4.3021,-4.244,-4.2092,-4.2092,-4.2092,-4.2092,-4.2092,-4.2092,-4.2092,-4.2092,-4.2092,-4.2092,-4.2092,-4.2092,-4.2092,-4.2092,-4.2092,-4.2092,-2.9098,-2.9098,-2.9777,-3.2613,-3.1265,-3.0052,-3.3026,-3.1598,-3.0638,-3.4059,-3.4764,-3.471,0.0,-3.4512,0.0,0.0,0.0,0.0,0.0,0.0,0.0,0.0,0.0,0.0,0.0,0.0,0.0,0.0,0.0,-4.535,-4.6854,-4.7163,-4.7222,-4.7077,-4.7179,-4.7179,-4.7077,-4.7222,-4.6264,-4.4225,-4.5824,-4.5735,-4.4229,-4.5782,-4.6975,-4.7704,0.0,0.0,-4.7701,-4.5882,-4.5935,-4.7077,-4.6683,-4.6771,-4.7033,-4.6447,-4.6358,-4.655,-4.6639,-4.6756,-4.6887,-4.6771,-4.68,-4.6975,-4.6975,-4.6975,-4.6931,-4.6771,-4.6727,-4.6683,-4.6639,-4.6491,-4.6358,-4.6535,-4.6284,-4.606,-4.6225,-4.6254,-4.6254,-4.6254,-4.6447,-4.6639,-4.6639,-4.6639,-4.6639,-4.6639,-4.6403,-4.621,-4.621,-4.6001,-4.5663,-4.5097,-4.4487,-4.3863,-4.3195,-4.2586,-4.2194,-4.2107,-4.2092,-4.2092,-4.2092,-4.2092,-4.2092,-4.2092,-4.2092,-4.2092,-4.2092,-4.2092,-4.2092,-4.2092,-4.2092,-4.2092,-2.9098,-2.9098,-2.9777,-3.2613,-3.1191,-2.9935,-3.3001,-3.1526,-3.1085,-3.6605,-3.7744,0.0,0.0,-4.0153,-4.0348,0.0,0.0,0.0,0.0,0.0,0.0,0.0,0.0,0.0,0.0,0.0,0.0,0.0,0.0,-4.4859,-4.5259,-4.6547,-4.6961,-4.615,-4.6506,-4.6506,-4.6105,-4.6902,-4.5908,-4.3217,-4.5521,-4.5389,-4.3261,-4.5171,-4.6284,-4.68,0.0,-4.6606,-4.7032,-4.6518,-4.6358,-4.6343,-4.6314,-4.618,-4.615,-4.6417,-4.6403,-4.6299,-4.6712,-4.6873,-4.6931,-4.7121,-4.7207,-4.7251,-4.7251,-4.7251,-4.7207,-4.7207,-4.7164,-4.7121,-4.6931,-4.6829,-4.6756,-4.6639,-4.655,-4.6506,-4.655,-4.655,-4.655,-4.655,-4.6712,-4.6829,-4.6829,-4.6829,-4.6829,-4.6829,-4.6476,-4.621,-4.621,-4.6001,-4.5837,-4.575,-4.514,-4.4501,-4.3892,-4.3239,-4.2629,-4.2121,-4.2092,-4.2092,-4.2092,-4.2092,-4.2092,-4.2092,-4.2092,-4.2092,-4.2092,-4.2092,-4.2092,-4.2092,-4.2092,-4.2092,-2.9098,-2.9098,-3.014,-3.4494,-3.2262,-3.0647,-3.7034,-3.3848,-3.1733,-3.9414,-3.7242,0.0,0.0,0.0,-3.6968,-3.4353,0.0,0.0,0.0,0.0,0.0,0.0,0.0,0.0,0.0,0.0,0.0,0.0,0.0,0.0,-4.5084,-4.6138,-4.658,-4.6284,-4.6239,-4.6239,-4.6284,-4.6535,-4.552,-4.3232,-4.5536,-4.5389,-4.329,-4.5347,-4.6462,-4.6697,0.0,-4.5994,-4.7031,-4.5788,-4.5751,-4.6403,-4.6403,-4.6373,-4.6284,-4.6506,-4.6668,-4.68,-4.6887,-4.6975,-4.7164,-4.7251,-4.7309,-4.7309,-4.7309,-4.7309,-4.7309,-4.7309,-4.7309,-4.7266,-4.7164,-4.7019,-4.6916,-4.699,-4.6771,-4.6639,-4.6712,-4.6756,-4.6756,-4.6756,-4.6931,-4.7121,-4.7121,-4.7121,-4.7121,-4.7121,-4.6712,-4.6447,-4.6565,-4.618,-4.6015,-4.6239,-4.5463,-4.4865,-4.4719,-4.3658,-4.2731,-4.2136,-4.2092,-4.2092,-4.2092,-4.2092,-4.2092,-4.2092,-4.2092,-4.2092,-4.2092,-4.2092,-4.2092,-4.2092,-4.2092,-4.2092,-2.9098,-2.9098,-3.0282,-3.5268,-3.2693,-3.132,-4.0397,-3.5798,-3.2141,-4.1208,-3.7218,0.0,0.0,-3.5936,0.0,0.0,0.0,0.0,0.0,0.0,0.0,0.0,0.0,0.0,0.0,0.0,0.0,0.0,0.0,0.0,-4.5126,-4.5727,-4.6256,-4.6594,-4.6239,-4.6239,-4.6594,-4.6447,-4.561,-4.4172,-4.5785,-4.5726,-4.4202,-4.5873,-4.6668,-4.6755,-4.5369,-4.5704,-4.7088,-4.5424,-4.5522,-4.6683,-4.6683,-4.6727,-4.6771,-4.6683,-4.6946,-4.7266,-4.7062,-4.7121,-4.7309,-4.7309,-4.7309,-4.7309,-4.7309,-4.7309,-4.7309,-4.7309,-4.7309,-4.7309,-4.7309,-4.7164,-4.7062,-4.7251,-4.7033,-4.6815,-4.6975,-4.6975,-4.6975,-4.6975,-4.7164,-4.7309,-4.7309,-4.7309,-4.7309,-4.7309,-4.6946,-4.6712,-4.6887,-4.6403,-4.6194,-4.655,-4.5815,-4.523,-4.5069,-4.3859,-4.2815,-4.2136,-4.2092,-4.2092,-4.2092,-4.2092,-4.2092,-4.2092,-4.2092,-4.2092,-4.2092,-4.2092,-4.2092,-4.2092,-4.2092,-4.2092,-2.9098,-2.9098,-2.9825,-3.285,-3.1324,-3.1394,-4.0132,-3.5589,-3.2013,-4.0832,-4.0057,0.0,0.0,-3.8867,0.0,0.0,0.0,0.0,0.0,0.0,0.0,0.0,0.0,0.0,0.0,0.0,0.0,0.0,0.0,0.0,-4.4606,-4.5284,-4.5932,-4.658,-4.655,-4.655,-4.6594,-4.6756,-4.6682,-4.6388,-4.6535,-4.6521,-4.6388,-4.6535,-4.6594,-4.6624,-4.6491,-4.6623,-4.6916,-4.6564,-4.6594,-4.6887,-4.6887,-4.7019,-4.7222,-4.6975,-4.7077,-4.7309,-4.7266,-4.7266,-4.7309,-4.7309,-4.7309,-4.7309,-4.7309,-4.7309,-4.7309,-4.7309,-4.7309,-4.7309,-4.7309,-4.7309,-4.7266,-4.7309,-4.7266,-4.7251,-4.7266,-4.7266,-4.7266,-4.7266,-4.7309,-4.7309,-4.7309,-4.7309,-4.7309,-4.7309,-4.7062,-4.6873,-4.6916,-4.6668,-4.655,-4.6594,-4.6506,-4.5903,-4.4469,-4.3752,-4.3011,-4.2136,-4.2092,-4.2092,-4.2092,-4.2092,-4.2092,-4.2092,-4.2092,-4.2092,-4.2092,-4.2092,-4.2092,-4.2092,-4.2092,-4.2092,-2.9098,-2.9098,-3.0188,-3.4762,-3.2487,-3.142,-4.028,-3.7069,-3.4766,-4.362,-4.0731,0.0,0.0,0.0,0.0,0.0,0.0,0.0,0.0,0.0,0.0,0.0,0.0,0.0,0.0,0.0,0.0,0.0,0.0,0.0,-4.4815,-4.5482,-4.6206,-4.7019,-4.6727,-4.6727,-4.7033,-4.6931,-4.6931,-4.7033,-4.7033,-4.6946,-4.68,-4.6946,-4.6946,-4.68,-4.6946,-4.7077,-4.7164,-4.7077,-4.7077,-4.7164,-4.7164,-4.7207,-4.7309,-4.7207,-4.7207,-4.7309,-4.7309,-4.7309,-4.7309,-4.7309,-4.7309,-4.7309,-4.7309,-4.7309,-4.7309,-4.7309,-4.7309,-4.7309,-4.7309,-4.7309,-4.7309,-4.7309,-4.7309,-4.7309,-4.7309,-4.7309,-4.7309,-4.7309,-4.7309,-4.7309,-4.7309,-4.7309,-4.7309,-4.7309,-4.7062,-4.6975,-4.7121,-4.6815,-4.6727,-4.699,-4.6902,-4.6342,-4.5211,-4.4394,-4.3679,-4.2952,-4.2502,-4.2242,-4.2092,-4.2201,-4.2242,-4.2092,-4.2092,-4.2092,-4.2092,-4.2092,-4.2092,-4.2092,-4.2092,-4.2092,-2.9098,-2.9098,-3.0235,-3.4984,-3.2613,-3.139,-4.0172,-3.7845,-3.6121,-4.4089,-4.2192,-3.8628,-3.7067,0.0,0.0,0.0,0.0,0.0,0.0,0.0,0.0,0.0,0.0,0.0,0.0,0.0,0.0,0.0,0.0,0.0,0.0,-4.5394,-4.6137,-4.697,-4.6887,-4.699,-4.7309,-4.7121,-4.7121,-4.7309,-4.7309,-4.7207,-4.7019,-4.7207,-4.7207,-4.7019,-4.7207,-4.7309,-4.7309,-4.7309,-4.7309,-4.7309,-4.7309,-4.7309,-4.7309,-4.7309,-4.7309,-4.7309,-4.7309,-4.7309,-4.7309,-4.7309,-4.7309,-4.7309,-4.7309,-4.7309,-4.7309,-4.7309,-4.7309,-4.7309,-4.7309,-4.7309,-4.7309,-4.7309,-4.7309,-4.7309,-4.7309,-4.7309,-4.7309,-4.7309,-4.7309,-4.7309,-4.7309,-4.7309,-4.7309,-4.7309,-4.7164,-4.7062,-4.7266,-4.7033,-4.6946,-4.7266,-4.7164,-4.6664,-4.5824,-4.5194,-4.442,-4.3443,-4.3016,-4.2611,-4.2107,-4.2242,-4.2242,-4.2092,-4.2092,-4.2133,-4.2201,-4.2201,-4.2201,-4.2201,-4.2201,-4.2175,-2.913,-2.913,-2.9777,-3.2613,-3.1198,-3.131,-3.9634,-3.7537,-3.5508,-4.1297,-4.4822,-4.6025,-4.3287,-4.2135,0.0,0.0,0.0,0.0,0.0,0.0,0.0,0.0,0.0,0.0,0.0,0.0,0.0,0.0,0.0,0.0,0.0,-4.4948,-4.56,-4.6294,-4.697,-4.7309,-4.7309,-4.7309,-4.7309,-4.7309,-4.7309,-4.7309,-4.7309,-4.7309,-4.7309,-4.7309,-4.7309,-4.7309,-4.7309,-4.7309,-4.7309,-4.7309,-4.7309,-4.7309,-4.7309,-4.7309,-4.7309,-4.7309,-4.7309,-4.7309,-4.7309,-4.7309,-4.7309,-4.7309,-4.7309,-4.7309,-4.7309,-4.7309,-4.7309,-4.7309,-4.7309,-4.7309,-4.7309,-4.7309,-4.7309,-4.7309,-4.7309,-4.7309,-4.7309,-4.7309,-4.7309,-4.7309,-4.7309,-4.7309,-4.7309,-4.7309,-4.7309,-4.7309,-4.7309,-4.7309,-4.7309,-4.7309,-4.7309,-4.6954,-4.6111,-4.5994,-4.5274,-4.3529,-4.3593,-4.3231,-4.2162,-4.2092,-4.2092,-4.2092,-4.2092,-4.2216,-4.2392,-4.2392,-4.2392,-4.2392,-4.2392,-4.2284,-3.1514,-3.0598,-2.9777,-3.2613,0.0,0.0,-3.5214,-3.6149,-3.7793,-4.2235,-4.3943,-4.3792,-4.0988,0.0,0.0,0.0,0.0,0.0,0.0,0.0,0.0,0.0,0.0,0.0,0.0,0.0,0.0,0.0,0.0,0.0,0.0,-4.4951,-4.5593,-4.6294,-4.697,-4.7309,-4.7309,-4.7309,-4.7309,-4.7309,-4.7309,-4.7309,-4.7309,-4.7309,-4.7309,-4.7309,-4.7309,-4.7309,-4.7309,-4.7309,-4.7309,-4.7309,-4.7309,-4.7309,-4.7309,-4.7309,-4.7309,-4.7309,-4.7309,-4.7309,-4.7309,-4.7309,-4.7309,-4.7309,-4.7309,-4.7309,-4.7309,-4.7309,-4.7309,-4.7309,-4.7309,-4.7309,-4.7309,-4.7309,-4.7309,-4.7309,-4.7309,-4.7309,-4.7309,-4.7309,-4.7309,-4.7309,-4.7309,-4.7309,-4.7309,-4.7309,-4.7309,-4.7309,-4.7309,-4.7309,-4.7309,-4.7309,-4.7309,-4.7176,-4.6939,-4.6362,-4.5788,-4.5274,-4.4704,-4.3715,-4.2136,-4.2242,-4.2242,-4.2092,-4.2242,-4.2366,-4.2392,-4.2541,-4.2622,-4.2622,-4.2474,-4.2351,-3.285,-3.2051,0.0,-3.5616,-3.5142,-3.3988,-3.511,0.0,0.0,0.0,-4.4886,-4.4441,-4.2747,0.0,0.0,0.0,0.0,0.0,0.0,0.0,0.0,0.0,0.0,0.0,0.0,0.0,0.0,0.0,0.0,0.0,0.0,-4.4543,-4.5212,-4.5892,-4.6565,-4.7038,-4.7309,-4.7309,-4.7309,-4.7309,-4.7309,-4.7309,-4.7309,-4.7309,-4.7309,-4.7309,-4.7309,-4.7309,-4.7309,-4.7309,-4.7309,-4.7309,-4.7309,-4.7309,-4.7309,-4.7309,-4.7309,-4.7309,-4.7309,-4.7309,-4.7309,-4.7309,-4.7309,-4.7309,-4.7309,-4.7309,-4.7309,-4.7309,-4.7309,-4.7309,-4.7309,-4.7309,-4.7309,-4.7309,-4.7309,-4.7309,-4.7309,-4.7309,-4.7309,-4.7309,-4.7309,-4.7309,-4.7309,-4.7309,-4.7309,-4.7309,-4.7309,-4.7309,-4.7309,-4.7309,-4.7309,-4.7309,-4.7309,-4.7309,-4.7309,-4.6806,-4.6362,-4.6009,-4.5509,-4.459,-4.3184,-4.2919,-4.2587,-4.2107,-4.2284,-4.2433,-4.25,-4.2729,-4.2795,-4.2795,-4.2688,-4.2581,-3.3609,-3.3498,-3.4525,-3.9645,-3.7575,0.0,-3.8459,-3.8762,-4.0003,-4.5691,0.0,-4.6649,-4.6844,0.0,0.0,0.0,0.0,0.0,0.0,0.0,0.0,0.0,0.0,0.0,0.0,0.0,0.0,0.0,0.0,0.0,0.0,-4.3942,-4.4569,-4.5203,-4.5933,-4.6601,-4.7204,-4.7279,-4.7309,-4.7309,-4.7309,-4.7309,-4.7309,-4.7309,-4.7309,-4.7309,-4.7309,-4.7309,-4.7309,-4.7309,-4.7309,-4.7309,-4.7309,-4.7309,-4.7309,-4.7309,-4.7309,-4.7309,-4.7309,-4.7309,-4.7309,-4.7309,-4.7309,-4.7309,-4.7309,-4.7309,-4.7309,-4.7309,-4.7309,-4.7309,-4.7309,-4.7309,-4.7309,-4.7309,-4.7309,-4.7309,-4.7309,-4.7309,-4.7309,-4.7309,-4.7309,-4.7309,-4.7309,-4.7309,-4.7309,-4.7309,-4.7309,-4.7309,-4.7309,-4.7309,-4.7309,-4.7309,-4.7309,-4.7309,-4.7309,-4.7309,-4.6954,-4.617,-4.6141,-4.5715,-4.4866,-4.3906,-4.3038,-4.2276,-4.2354,-4.2541,-4.2729,-4.2915,-4.3036,-4.3036,-4.3036,-4.2915,-3.5995,-3.4968,0.0,0.0,-3.5078,-3.6112,-4.3048,-4.2893,-4.2254,-4.5734,-4.5362,0.0,0.0,0.0,0.0,0.0,0.0,0.0,0.0,0.0,0.0,0.0,0.0,0.0,0.0,0.0,0.0,0.0,0.0,0.0,-4.329,-4.3942,-4.4369,-4.4527,-4.5663,-4.6376,-4.6488,-4.7055,-4.7309,0.0,-4.7309,-4.7309,-4.7309,-4.7309,-4.7309,-4.7309,-4.7309,-4.7309,-4.7309,-4.7309,-4.7309,-4.7309,-4.7309,-4.7309,-4.7309,-4.7309,-4.7309,-4.7309,-4.7309,-4.7309,-4.7309,-4.7309,-4.7309,-4.7309,-4.7309,-4.7309,-4.7309,-4.7309,-4.7309,-4.7309,-4.7309,-4.7309,-4.7309,-4.7309,-4.7309,-4.7309,-4.7309,-4.7309,-4.7309,-4.7309,-4.7309,-4.7309,-4.7309,-4.7309,-4.7309,-4.7309,-4.7309,-4.7309,-4.7309,-4.7309,-4.7309,-4.7309,-4.7309,-4.7309,-4.7309,-4.7309,-4.7206,-4.7013,-4.6998,-4.6614,-4.5745,-4.4211,-4.3409,-4.3346,-4.2872,-4.2729,-4.2955,-4.313,-4.325,-4.325,-4.3076,-4.2996,-3.5675,0.0,0.0,-3.7891,0.0,-4.0785,-4.3956,-4.4495,-4.4711,-4.6169,0.0,0.0,0.0,0.0,0.0,0.0,0.0,0.0,0.0,0.0,0.0,0.0,0.0,0.0,0.0,0.0,0.0,0.0,0.0,-4.329,-4.329,-4.3643,-4.3988,-4.4295,-4.5274,-4.5975,-4.6279,-4.6666,-4.6995,-4.7309,-4.698,-4.6995,-4.7309,-4.7309,-4.7309,-4.7309,-4.7309,-4.7309,-4.7309,-4.7309,-4.7309,-4.7309,-4.7309,-4.7309,-4.7309,-4.7309,-4.7309,-4.7309,-4.7309,-4.7309,-4.7309,-4.7309,-4.7309,-4.7309,-4.7309,-4.7309,-4.7309,-4.7309,-4.7309,-4.7309,-4.7309,-4.7309,-4.7309,-4.7309,-4.7309,-4.7309,-4.7309,-4.7309,-4.7309,-4.7309,-4.7309,-4.7309,-4.7309,-4.7309,-4.7309,-4.7309,-4.7309,-4.7309,-4.7309,-4.7309,-4.7309,-4.7309,-4.7309,-4.7309,-4.7309,-4.7309,-4.7309,-4.7309,-4.7309,-4.7101,-4.6629,-4.5348,-4.4499,-4.4189,-4.3622,-4.3364,-4.3471,-4.3374,-4.329,-4.329,-4.321,-4.3155,-3.4679,0.0,-3.9297,-4.189,-4.3765,0.0,-4.3747,-4.4799,-4.6148,-4.6553,0.0,0.0,0.0,0.0,0.0,0.0,0.0,0.0,0.0,0.0,0.0,0.0,0.0,0.0,0.0,0.0,0.0,0.0,0.0,-4.329,-4.329,-4.329,-4.3604,-4.4287,-4.484,-4.5454,-4.6142,-4.6142,-4.6426,-4.695,-4.6411,-4.6501,-4.713,-4.713,-4.7189,-4.7309,-4.7309,-4.7309,-4.7309,-4.7309,-4.7309,-4.7309,-4.7309,-4.7309,-4.7309,-4.7309,-4.7309,-4.7309,-4.7309,-4.7309,-4.7309,-4.7309,-4.7309,-4.7309,-4.7309,-4.7309,-4.7309,-4.7309,-4.7309,-4.7309,-4.7309,-4.7309,-4.7309,-4.7309,-4.7309,-4.7309,-4.7309,-4.7309,-4.7309,-4.7309,-4.7309,-4.7309,-4.7309,-4.7309,-4.7309,-4.7309,-4.7309,-4.7309,-4.7309,-4.7309,-4.7309,-4.7309,-4.7309,-4.7309,-4.7309,-4.7309,-4.7309,-4.7309,-4.7309,-4.7309,-4.7309,-4.6599,-4.5877,-4.5145,-4.4487,-4.4184,-4.421,-4.3822,-4.3574,-4.3469,-4.3469,-4.3409,-3.5296,0.0,-3.9771,0.0,-4.1197,-4.1388,0.0,0.0,-4.4244,0.0,0.0,0.0,0.0,0.0,0.0,0.0,0.0,0.0,0.0,0.0,0.0,0.0,0.0,0.0,0.0,0.0,0.0,0.0,-4.329,-4.329,-4.329,-4.329,-4.3604,-4.4287,-4.4407,-4.4766,-4.5424,-4.5424,-4.5484,-4.5559,-4.5469,-4.5783,-4.6414,-4.6414,-4.677,-4.7309,-4.7309,-4.7309,-4.7309,-4.7309,-4.7309,-4.7309,-4.7309,-4.7309,-4.7309,-4.7309,-4.7309,-4.7309,-4.7309,-4.7309,-4.7309,-4.7309,-4.7309,-4.7309,-4.7309,-4.7309,-4.7309,-4.7309,-4.7309,-4.7309,-4.7309,-4.7309,-4.7309,-4.7309,-4.7309,-4.7309,-4.7309,-4.7309,-4.7309,-4.7309,-4.7309,-4.7309,-4.7309,-4.7309,-4.7309,-4.7309,-4.7309,-4.7309,-4.7309,-4.7309,-4.7309,-4.7309,-4.7309,-4.7309,-4.7309,-4.7309,-4.7309,-4.7309,-4.7309,-4.7309,-4.7309,-4.7176,-4.7086,-4.6954,-4.556,-4.4935,-4.5128,-4.508,-4.4736,-4.4182,-4.4182,-4.3883,-3.72,-3.7207,-3.7794,0.0,-4.126,-3.9864,-4.5128,0.0,0.0,0.0,0.0,0.0,0.0,0.0,0.0,0.0,0.0,0.0,0.0,0.0,0.0,0.0,0.0,0.0,0.0,0.0,0.0,0.0,-4.329,-4.329,-4.329,-4.329,-4.3424,-4.3708,-4.4122,-4.4451,-4.4751,-4.4751,-4.4751,-4.4751,-4.5125,-4.5454,-4.5753,-4.5753,-4.6322,-4.7309,-4.7309,-4.7309,-4.7309,-4.7309,-4.7309,-4.7309,-4.7309,-4.7309,-4.7309,-4.7309,-4.7309,-4.7309,-4.7309,-4.7309,-4.7309,-4.7309,-4.7309,-4.7309,-4.7309,-4.7309,-4.7309,-4.7309,-4.7309,-4.7309,-4.7309,-4.7309,-4.7309,-4.7309,-4.7309,-4.7309,-4.7309,-4.7309,-4.7309,-4.7309,-4.7309,-4.7309,-4.7309,-4.7309,-4.7309,-4.7309,-4.7309,-4.7309,-4.7309,-4.7309,-4.7309,-4.7309,-4.7309,-4.7309,-4.7309,-4.7309,-4.7309,-4.7309,-4.7309,-4.7309,-4.7309,-4.7309,-4.7309,-4.7309,-4.6282,-4.5747,-4.5873,-4.5484,-4.5155,-4.487,-4.487,-4.4706,0.0,0.0,-3.641,-4.2493,-4.0563,-3.8366,0.0,0.0,0.0,0.0,0.0,0.0,0.0,0.0,0.0,0.0,0.0,0.0,0.0,0.0,0.0,0.0,0.0,0.0,0.0,0.0,0.0,0.0,-4.329,-4.329,-4.329,-4.329,-4.3364,-4.3544,-4.3858,-4.4097,-4.4236,-4.4056,-4.3982,-4.3982,-4.4515,-4.4885,-4.505,-4.505,-4.5678,-4.68,-4.68,-4.689,-4.7055,-4.7055,-4.716,-4.7309,-4.7309,-4.7309,-4.7309,-4.7309,-4.7309,-4.7309,-4.7309,-4.7309,-4.7309,-4.7309,-4.7309,-4.7309,-4.7309,-4.7309,-4.7309,-4.7309,-4.7309,-4.7309,-4.7309,-4.7309,-4.7309,-4.7309,-4.7309,-4.7309,-4.7309,-4.7309,-4.7309,-4.7309,-4.7309,-4.7309,-4.7309,-4.7309,-4.7309,-4.7309,-4.7309,-4.7309,-4.7309,-4.7309,-4.7309,-4.7309,-4.7309,-4.7309,-4.7309,-4.7309,-4.7309,-4.7309,-4.7309,-4.7309,-4.7309,-4.7309,-4.7309,-4.7309,-4.683,-4.6576,-4.6576,-4.6052,-4.5723,-4.5559,-4.5559,-4.5469,0.0,-3.6809,0.0,-3.8732,-3.7414,0.0,0.0,0.0,0.0,0.0,0.0,0.0,0.0,0.0,0.0,0.0,0.0,0.0,0.0,0.0,0.0,0.0,0.0,0.0,0.0,0.0,0.0,0.0,-4.329,-4.329,-4.329,-4.329,-4.3574,-4.4242,-4.3648,-4.3568,-4.4005,-4.3407,-4.308,-4.308,-4.33,-4.3723,-4.4362,-4.4362,-4.4751,-4.5394,-4.5394,-4.5768,-4.6324,-4.6324,-4.6741,-4.7309,-4.7309,-4.7309,-4.7309,-4.7309,-4.7309,-4.7309,-4.7309,-4.7309,-4.7309,-4.7309,-4.7309,-4.7309,-4.7309,-4.7309,-4.7309,-4.7309,-4.7309,-4.7309,-4.7309,-4.7309,-4.7309,-4.7309,-4.7309,-4.7309,-4.7309,-4.7309,-4.7309,-4.7309,-4.7309,-4.7309,-4.7309,-4.7309,-4.7309,-4.7309,-4.7309,-4.7309,-4.7309,-4.7309,-4.7309,-4.7309,-4.7309,-4.7309,-4.7309,-4.7309,-4.7309,-4.7309,-4.7309,-4.7309,-4.7309,-4.7309,-4.7309,-4.7309,-4.7279,-4.7249,-4.7249,-4.7219,-4.6875,-4.6277,-4.6277,-4.5918,0.0,0.0,0.0,-3.8661,-3.5892,-3.3338,0.0,0.0,0.0,0.0,0.0,0.0,0.0,0.0,0.0,0.0,0.0,0.0,0.0,0.0,0.0,0.0,0.0,0.0,0.0,0.0,0.0,0.0,0.0,-4.1971,-4.3215,-4.2132,-4.2132,-4.3604,-4.3289,-4.3114,-4.3164,-4.3074,-4.2981,-4.2981,-4.321,-4.3424,-4.3648,-4.3648,-4.3768,-4.4032,-4.4032,-4.4661,-4.5663,-4.5663,-4.6052,-4.6681,-4.6681,-4.6935,-4.7309,-4.7309,-4.7309,-4.7309,-4.7309,-4.7309,-4.7309,-4.7309,-4.7309,-4.7309,-4.7309,-4.7309,-4.7309,-4.7309,-4.7309,-4.7309,-4.7309,-4.7309,-4.7309,-4.7309,-4.7309,-4.7309,-4.7309,-4.7309,-4.7309,-4.7309,-4.7309,-4.7309,-4.7309,-4.7309,-4.7309,-4.7309,-4.7309,-4.7309,-4.7309,-4.7309,-4.7309,-4.7309,-4.7309,-4.7309,-4.7309,-4.7309,-4.7309,-4.7309,-4.7309,-4.7309,-4.7309,-4.7309,-4.7309,-4.7309,-4.7309,-4.7309,-4.7309,-4.7309,-4.7189,-4.695,-4.695,-4.6815,-3.561,0.0,0.0,0.0,0.0,-3.2028,0.0,0.0,0.0,0.0,0.0,0.0,0.0,0.0,0.0,0.0,0.0,0.0,0.0,0.0,0.0,0.0,0.0,0.0,0.0,0.0,0.0,0.0,0.0,0.0,-4.3215,-4.2102,-4.1944,-4.3165,-4.2996,-4.2795,-4.2622,-4.2809,-4.2915,-4.2915,-4.317,-4.329,-4.329,-4.329,-4.329,-4.329,-4.329,-4.3917,-4.496,-4.496,-4.5364,-4.6007,-4.619,-4.6591,-4.6995,-4.7219,-4.7309,-4.7309,-4.7309,-4.7309,-4.7309,-4.7309,-4.7309,-4.7309,-4.7309,-4.7309,-4.7309,-4.7309,-4.7309,-4.7309,-4.7309,-4.7309,-4.7309,-4.7309,-4.7309,-4.7309,-4.7309,-4.7309,-4.7309,-4.7309,-4.7309,-4.7309,-4.7309,-4.7309,-4.7309,-4.7309,-4.7309,-4.7309,-4.7309,-4.7309,-4.7309,-4.7309,-4.7309,-4.7309,-4.7309,-4.7309,-4.7309,-4.7309,-4.7309,-4.7309,-4.7309,-4.7309,-4.7309,-4.7309,-4.7309,-4.7309,-4.7309,-4.7309,-4.7309,-4.7309,-4.7309,-4.7309,0.0,0.0,0.0,0.0,0.0,0.0,0.0,0.0,0.0,0.0,0.0,0.0,0.0,0.0,0.0,0.0,0.0,0.0,0.0,0.0,0.0,0.0,0.0,0.0,0.0,0.0,0.0,0.0,-4.326,-4.326,-4.329,-4.329,-4.321,-4.2996,-4.2795,-4.2622,-4.2392,-4.2581,-4.2688,-4.2688,-4.309,-4.329,-4.329,-4.329,-4.329,-4.329,-4.329,-4.3663,-4.4287,-4.4287,-4.4676,-4.5334,-4.6007,-4.6234,-4.6324,-4.704,-4.7279,-4.7279,-4.7294,-4.7309,-4.7309,-4.7309,-4.7309,-4.7309,-4.7309,-4.7309,-4.7309,-4.7309,-4.7309,-4.7309,-4.7309,-4.7309,-4.7309,-4.7309,-4.7309,-4.7309,-4.7309,-4.7309,-4.7309,-4.7309,-4.7309,-4.7309,-4.7309,-4.7309,-4.7309,-4.7309,-4.7309,-4.7309,-4.7309,-4.7309,-4.7309,-4.7309,-4.7309,-4.7309,-4.7309,-4.7309,-4.7309,-4.7309,-4.7309,-4.7309,-4.7309,-4.7309,-4.7309,-4.7309,-4.7309,-4.7309,-4.7309,-4.7309,-4.7309,-4.7309,-4.7309,-4.7309,-3.405,0.0,0.0,0.0,0.0,0.0,0.0,0.0,0.0,0.0,0.0,0.0,0.0,0.0,0.0,0.0,0.0,0.0,0.0,0.0,0.0,0.0,0.0,0.0,0.0,0.0,0.0,0.0,-4.1897,-4.1808,-4.3205,-4.329,-4.313,-4.2809,-4.2729,-4.2541,-4.2216,-4.2541,-4.2688,-4.2688,-4.309,-4.329,-4.329,-4.329,-4.329,-4.329,-4.329,-4.3394,-4.3559,-4.3559,-4.3947,-4.4601,-4.4796,-4.5155,-4.5663,-4.6352,-4.6591,-4.6666,-4.7145,-4.7309,-4.7309,-4.7309,-4.7309,-4.7309,-4.7309,-4.7309,-4.7309,-4.7309,-4.7309,-4.7309,-4.7309,-4.7309,-4.7309,-4.7309,-4.7309,-4.7309,-4.7309,-4.7309,-4.7309,-4.7309,-4.7309,-4.7309,-4.7309,-4.7309,-4.7309,-4.7309,-4.7309,-4.7309,-4.7309,-4.7309,-4.7309,-4.7309,-4.7309,-4.7309,-4.7309,-4.7309,-4.7309,-4.7309,-4.7309,-4.7309,-4.7309,-4.7309,-4.7309,-4.7309,-4.7309,-4.7309,-4.7309,-4.7309,-4.7309,-4.7309,-4.7309,-4.7309,-3.402,-3.4101,-3.4101,0.0,0.0,0.0,-3.2652,-3.488,0.0,0.0,0.0,0.0,0.0,0.0,0.0,0.0,0.0,0.0,0.0,0.0,0.0,0.0,0.0,0.0,0.0,-4.2692,-4.2894,-4.2996,-4.2164,-4.2075,-4.326,-4.329,-4.317,-4.285,-4.2729,-4.2541,-4.2242,-4.2541,-4.2688,-4.2688,-4.309,-4.329,-4.329,-4.329,-4.329,-4.329,-4.329,-4.329,-4.329,-4.329,-4.3514,-4.3888,-4.4212,-4.4541,-4.496,-4.5648,-4.6082,-4.6381,-4.677,-4.707,-4.7309,-4.7309,-4.7309,-4.7309,-4.7309,-4.7309,-4.7309,-4.7309,-4.7309,-4.7309,-4.7309,-4.7309,-4.7309,-4.7309,-4.7309,-4.7309,-4.7309,-4.7309,-4.7309,-4.7309,-4.7309,-4.7309,-4.7309,-4.7309,-4.7309,-4.7309,-4.7309,-4.7309,-4.7309,-4.7309,-4.7309,-4.7309,-4.7309,-4.7309,-4.7309,-4.7309,-4.7309,-4.7309,-4.7309,-4.7309,-4.7309,-4.7309,-4.7309,-4.7309,-4.7309,-4.7309,-4.7309,-4.7309,-4.7309,-4.7309,-4.7309,-4.7309,-3.3825,-3.4036,-3.4101,0.0,0.0,0.0,-3.2409,-3.5873,-3.9121,0.0,0.0,0.0,0.0,0.0,0.0,0.0,0.0,0.0,0.0,0.0,0.0,0.0,0.0,0.0,-4.2366,-4.257,-4.2749,-4.297,-4.3155,-4.329,-4.329,-4.329,-4.321,-4.3036,-4.285,-4.2662,-4.2433,-4.2607,-4.2729,-4.2729,-4.313,-4.329,-4.329,-4.329,-4.329,-4.329,-4.329,-4.329,-4.329,-4.329,-4.329,-4.3349,-4.3973,-4.4212,-4.4287,-4.4945,-4.5574,-4.6085,-4.6234,-4.6711,-4.7204,-4.7279,-4.7309,-4.7309,-4.7309,-4.7309,-4.7309,-4.7309,-4.7309,-4.7309,-4.7309,-4.7309,-4.7309,-4.7309,-4.7309,-4.7309,-4.7309,-4.7309,-4.7309,-4.7309,-4.7309,-4.7309,-4.7309,-4.7309,-4.7309,-4.7309,-4.7309,-4.7309,-4.7309,-4.7309,-4.7309,-4.7309,-4.7309,-4.7309,-4.7309,-4.7309,-4.7309,-4.7309,-4.7309,-4.7309,-4.7309,-4.7309,-4.7309,-4.7309,-4.7309,-4.7309,-4.7309,-4.7309,-4.7309,-4.7309,-4.7266,-4.7251,0.0,0.0,0.0,0.0,0.0,0.0,-3.3064,-3.3185,-3.391,0.0,0.0,0.0,0.0,0.0,0.0,0.0,0.0,0.0,0.0,0.0,0.0,0.0,0.0,0.0,-4.2133,-4.2332,-4.2553,-4.2743,-4.309,-4.329,-4.329,-4.329,-4.321,-4.3036,-4.2955,-4.2835,-4.2662,-4.2835,-4.2955,-4.2941,-4.321,-4.329,-4.329,-4.329,-4.329,-4.329,-4.329,-4.329,-4.329,-4.329,-4.329,-4.3305,-4.3439,-4.3484,-4.3559,-4.4272,-4.4586,-4.4855,-4.5948,-4.6369,-4.6563,-4.713,-4.7309,-4.7309,-4.7309,-4.7309,-4.7309,-4.7309,-4.7309,-4.7309,-4.7309,-4.7309,-4.7309,-4.7309,-4.7309,-4.7309,-4.7309,-4.7309,-4.7309,-4.7309,-4.7309,-4.7309,-4.7309,-4.7309,-4.7309,-4.7309,-4.7309,-4.7309,-4.7309,-4.7309,-4.7309,-4.7309,-4.7309,-4.7309,-4.7309,-4.7309,-4.7309,-4.7309,-4.7309,-4.7309,-4.7309,-4.7309,-4.7309,-4.7309,-4.7309,-4.7309,-4.7309,-4.7309,-4.7309,-4.7309,-4.7062,-4.6975,0.0,0.0,0.0,-3.276,0.0,0.0,0.0,-3.2682,-3.3393,0.0,0.0,0.0,0.0,0.0,0.0,0.0,0.0,0.0,0.0,0.0,0.0,0.0,0.0,0.0,-4.2092,-4.2276,-4.2538,-4.2828,-4.3025,-4.321,-4.329,-4.329,-4.325,-4.3155,-4.3036,-4.2941,-4.2835,-4.2955,-4.2981,-4.2981,-4.321,-4.329,-4.329,-4.329,-4.329,-4.329,-4.329,-4.329,-4.329,-4.329,-4.329,-4.329,-4.329,-4.329,-4.3334,-4.3663,-4.3992,-4.4407,-4.508,-4.5753,-4.6381,-4.6711,-4.704,-4.7309,-4.7309,-4.7309,-4.7309,-4.7309,-4.7309,-4.7309,-4.7309,-4.7309,-4.7309,-4.7309,-4.7309,-4.7309,-4.7309,-4.7309,-4.7309,-4.7309,-4.7309,-4.7309,-4.7309,-4.7309,-4.7309,-4.7309,-4.7309,-4.7309,-4.7309,-4.7309,-4.7309,-4.7309,-4.7309,-4.7309,-4.7309,-4.7309,-4.7309,-4.7309,-4.7309,-4.7309,-4.7309,-4.7309,-4.7309,-4.7309,-4.7309,-4.7207,-4.7121,-4.7121,-4.7121,-4.7062,-4.6844,-4.6756,0.0,0.0,0.0,0.0,0.0,-3.1809,0.0,0.0,0.0,0.0,0.0,0.0,0.0,0.0,0.0,0.0,0.0,0.0,0.0,0.0,0.0,0.0,0.0,0.0,0.0,-4.127,-4.2023,-4.2879,-4.2985,-4.3076,-4.329,-4.329,-4.329,-4.329,-4.3155,-4.3076,-4.3076,-4.3076,-4.3076,-4.3076,-4.321,-4.329,-4.329,-4.329,-4.329,-4.329,-4.329,-4.329,-4.329,-4.329,-4.329,-4.329,-4.329,-4.329,-4.329,-4.329,-4.3618,-4.4152,-4.4272,-4.511,-4.6157,-4.6234,-4.677,-4.7309,-4.7309,-4.7309,-4.7309,-4.7309,-4.7309,-4.7309,-4.7309,-4.7309,-4.7309,-4.7309,-4.7309,-4.7309,-4.7309,-4.7309,-4.7309,-4.7309,-4.7309,-4.7266,-4.7207,-4.7266,-4.7266,-4.7207,-4.7266,-4.7309,-4.7309,-4.7309,-4.7309,-4.7309,-4.7309,-4.7309,-4.7309,-4.7309,-4.7309,-4.7309,-4.7309,-4.7309,-4.7309,-4.7309,-4.7309,-4.7309,-4.7251,-4.7121,-4.6916,-4.6829,-4.6785,-4.6844,-4.6624,-4.6506,0.0,0.0,0.0,0.0,-3.0582,0.0,0.0,0.0,-2.9774,-2.9027,0.0,0.0,0.0,0.0,0.0,0.0,0.0,0.0,0.0,0.0,0.0,0.0,0.0,0.0,0.0,-3.7558,-4.0079,-4.2526,-4.2915,-4.3076,-4.329,-4.329,-4.329,-4.329,-4.329,-4.325,-4.325,-4.325,-4.325,-4.325,-4.329,-4.329,-4.329,-4.329,-4.329,-4.329,-4.329,-4.329,-4.329,-4.329,-4.329,-4.329,-4.329,-4.329,-4.329,-4.329,-4.3349,-4.3484,-4.4067,-4.4796,-4.5514,-4.6127,-4.677,-4.7309,-4.7309,-4.7309,-4.7309,-4.7309,-4.7309,-4.7309,-4.7309,-4.7309,-4.7309,-4.7309,-4.7309,-4.7309,-4.7309,-4.7309,-4.7309,-4.7309,-4.7309,-4.7207,-4.6975,-4.7164,-4.7207,-4.6975,-4.7164,-4.7309,-4.7309,-4.7309,-4.7309,-4.7309,-4.7309,-4.7309,-4.7309,-4.7309,-4.7309,-4.7309,-4.7309,-4.7309,-4.7309,-4.7309,-4.7309,-4.7309,-4.7062,-4.6931,-4.6916,-4.6476,-4.6403,-4.6639,-4.6358,-4.6254,0.0,0.0,0.0,0.0,0.0,0.0,-3.1166,0.0,-2.8312,0.0,0.0,0.0,0.0,0.0,0.0,0.0,0.0,0.0,0.0,0.0,0.0,0.0,0.0,0.0,0.0,0.0,0.0,0.0,-4.0562,-4.0753,-4.1017,-4.2467,-4.329,-4.329,-4.329,-4.329,-4.329,-4.329,-4.329,-4.329,-4.329,-4.329,-4.329,-4.329,-4.329,-4.329,-4.329,-4.329,-4.329,-4.329,-4.329,-4.329,-4.329,-4.329,-4.329,-4.329,-4.329,-4.3334,-4.3604,-4.4182,-4.49,-4.5978,-4.677,-4.7309,-4.7309,-4.7309,-4.7309,-4.7309,-4.7309,-4.7309,-4.7309,-4.7309,-4.7309,-4.7309,-4.7309,-4.7309,-4.7309,-4.7309,-4.7309,-4.7309,-4.7164,-4.7019,-4.6916,-4.7121,-4.7207,-4.6931,-4.7121,-4.7309,-4.7309,-4.7309,-4.7309,-4.7309,-4.7309,-4.7309,-4.7309,-4.7309,-4.7309,-4.7309,-4.7309,-4.7309,-4.7309,-4.7164,-4.7062,-4.7062,-4.6844,-4.6668,-4.6476,-4.6299,-4.618,-4.6194,-4.6105,-4.6015,-3.1119,0.0,0.0,0.0,0.0,0.0,0.0,0.0,0.0,0.0,0.0,0.0,0.0,0.0,0.0,0.0,0.0,0.0,0.0,0.0,0.0,0.0,0.0,0.0,0.0,0.0,0.0,-3.7546,-3.8465,-3.9061,-3.9388,-4.187,-4.329,-4.329,-4.329,-4.329,-4.329,-4.329,-4.329,-4.329,-4.329,-4.329,-4.329,-4.329,-4.329,-4.329,-4.329,-4.329,-4.329,-4.329,-4.329,-4.329,-4.329,-4.329,-4.329,-4.329,-4.329,-4.329,-4.329,-4.3843,-4.4766,-4.5906,-4.677,-4.7309,-4.7309,-4.7309,-4.7309,-4.7309,-4.7309,-4.7309,-4.7309,-4.7309,-4.7309,-4.7309,-4.7309,-4.7309,-4.7309,-4.7309,-4.7309,-4.7309,-4.7164,-4.6975,-4.6916,-4.7062,-4.7121,-4.6931,-4.7121,-4.7309,-4.7309,-4.7309,-4.7309,-4.7309,-4.7309,-4.7309,-4.7309,-4.7309,-4.7309,-4.7309,-4.7019,-4.7019,-4.7309,-4.6829,-4.6682,-4.6916,-4.6712,-4.6447,-4.621,-4.6121,-4.6046,-4.588,-4.588,-4.588,0.0,0.0,0.0,-3.1221,0.0,0.0,0.0,0.0,-2.6835,0.0,0.0,0.0,0.0,0.0,0.0,0.0,0.0,0.0,0.0,0.0,0.0,0.0,0.0,0.0,0.0,0.0,0.0,-3.4986,-3.7447,-3.9061,-3.9388,-4.187,-4.329,-4.329,-4.329,-4.329,-4.329,-4.329,-4.329,-4.329,-4.329,-4.329,-4.329,-4.329,-4.329,-4.329,-4.329,-4.329,-4.329,-4.329,-4.329,-4.329,-4.329,-4.329,-4.329,-4.329,-4.329,-4.329,-4.329,-4.4182,-4.5379,-4.6097,-4.677,-4.7309,-4.7309,-4.7309,-4.7309,-4.7309,-4.7309,-4.7309,-4.7309,-4.7309,-4.7309,-4.7309,-4.7309,-4.7309,-4.7309,-4.7309,-4.7309,-4.7309,-4.7309,-4.7207,-4.6931,-4.6916,-4.6916,-4.6916,-4.7121,-4.7309,-4.7309,-4.7309,-4.7309,-4.7309,-4.7309,-4.7309,-4.7309,-4.7309,-4.7309,-4.7309,-4.6403,-4.6299,-4.7251,-4.6358,-4.6166,-4.6873,-4.6712,-4.6447,-4.621,-4.6001,-4.5925,-4.588,-4.588,-4.588,0.0,0.0,-3.6707,-3.5836,0.0,0.0,0.0,0.0,0.0,0.0,0.0,0.0,0.0,0.0,0.0,0.0,0.0,0.0,0.0,0.0,0.0,0.0,0.0,0.0,0.0,0.0,0.0,-3.216,-3.3181,-3.3873,-3.4171,-3.8327,-4.0704,-4.0704,-4.2393,-4.329,-4.329,-4.329,-4.329,-4.329,-4.329,-4.329,-4.329,-4.329,-4.329,-4.329,-4.329,-4.329,-4.329,-4.329,-4.329,-4.329,-4.329,-4.329,-4.329,-4.329,-4.329,-4.329,-4.329,-4.4197,-4.5334,-4.5559,-4.6396,-4.7309,-4.7309,-4.7309,-4.7309,-4.7309,-4.7309,-4.7309,-4.7309,-4.7309,-4.7309,-4.7309,-4.7309,-4.7309,-4.7309,-4.7309,-4.7309,-4.7309,-4.7164,-4.7062,-4.7164,-4.7019,-4.6916,-4.6916,-4.7121,-4.7309,-4.7309,-4.7309,-4.7309,-4.7309,-4.7309,-4.7309,-4.7309,-4.6682,-4.6032,-4.5341,-4.484,-4.4688,-4.5024,-4.5038,-4.5204,-4.5432,-4.5896,-4.6105,-4.6001,-4.5925,-4.588,-4.588,-4.588,-4.588,-3.9184,-3.9581,0.0,-3.8434,-3.6983,0.0,-3.4617,0.0,0.0,0.0,0.0,0.0,0.0,0.0,0.0,0.0,0.0,0.0,0.0,-2.6806,0.0,0.0,0.0,0.0,0.0,0.0,-2.8573,-2.9572,-3.0556,-3.1219,0.0,0.0,-3.9388,-3.9388,-4.1929,-4.329,-4.329,-4.329,-4.329,-4.329,-4.329,-4.329,-4.329,-4.329,-4.329,-4.329,-4.329,-4.329,-4.329,-4.329,-4.329,-4.329,-4.329,-4.329,-4.329,-4.329,-4.329,-4.329,-4.329,-4.4197,-4.5289,-4.5289,-4.6202,-4.7309,-4.7309,-4.7309,-4.7309,-4.7309,-4.7309,-4.7309,-4.7309,-4.7309,-4.7266,-4.7164,-4.7164,-4.7164,-4.7164,-4.6873,-4.6638,-4.6741,-4.6638,-4.655,-4.6726,-4.6916,-4.7019,-4.7019,-4.7207,-4.7309,-4.7309,-4.7309,-4.7164,-4.6785,-4.7062,-4.7309,-4.7309,-4.6726,-4.6032,-4.5281,-4.4748,-4.4549,-4.4854,-4.4869,-4.5021,-4.5355,-4.5806,-4.6015,-4.6015,-4.5925,-4.588,-4.588,-4.588,-4.588]},{"header":{"parameterUnit":"m.s-1","parameterCategory":1,"la1":30.6,"la2":29.2853,"lo1":-89.7004,"lo2":-87.6739,"dy":0.0162,"dx":0.0183,"nx":112,"ny":82,"refTime":"2023-03-31T12:00:00:Z","depth":0,"parameterNumber":3,"parameterNumberName":"V-component_of_WINDS"},"data":[0.0,0.0,0.0,0.0,0.0,0.0,0.0,0.0,0.0,0.0,0.0,0.0,0.0,0.0,0.0,0.0,0.0,0.0,0.0,0.0,0.0,0.0,0.0,0.0,0.0,0.0,0.0,0.0,0.0,0.0,0.0,0.0,0.0,0.0,0.0,0.0,0.0,0.0,0.0,0.0,0.0,0.0,0.0,0.0,0.0,0.0,0.0,0.0,0.0,0.0,0.0,0.0,0.0,0.0,0.0,0.0,0.0,0.0,0.0,0.0,0.0,0.0,0.0,0.0,0.0,0.0,0.0,0.0,0.0,0.0,0.0,0.0,0.0,0.0,0.0,0.0,0.0,0.0,0.0,0.0,0.0,0.0,0.0,0.0,0.0,0.0,0.0,0.0,0.0,0.0,2.3588,2.5025,2.5697,2.6071,2.6053,2.6545,2.5418,2.2133,0.0,0.0,0.0,0.0,0.0,0.0,0.0,0.0,0.0,0.0,0.0,0.0,0.0,0.0,0.0,0.0,0.0,0.0,0.0,0.0,0.0,0.0,0.0,0.0,0.0,0.0,0.0,0.0,0.0,0.0,0.0,0.0,0.0,0.0,0.0,0.0,0.0,0.0,0.0,0.0,0.0,0.0,0.0,0.0,0.0,0.0,0.0,0.0,0.0,0.0,0.0,0.0,0.0,0.0,0.0,0.0,0.0,0.0,0.0,0.0,0.0,0.0,0.0,0.0,0.0,0.0,0.0,0.0,0.0,0.0,0.0,0.0,0.0,0.0,0.0,0.0,0.0,0.0,0.0,0.0,0.0,0.0,0.0,0.0,0.0,0.0,0.0,0.0,0.0,0.0,0.0,0.0,0.0,0.0,0.0,0.0,0.0,0.0,0.0,0.0,0.0,0.0,0.0,0.0,2.4066,2.6058,2.6379,2.6426,2.6391,2.649,2.5503,2.3103,0.0,0.0,0.0,0.0,0.0,0.0,0.0,0.0,0.0,0.0,0.0,0.0,0.0,0.0,0.0,0.0,0.0,0.0,0.0,0.0,0.0,0.0,0.0,0.0,0.0,0.0,0.0,0.0,0.0,0.0,0.0,0.0,0.0,0.0,0.0,0.0,0.0,0.0,0.0,0.0,0.0,0.0,0.0,0.0,0.0,0.0,0.0,0.0,0.0,0.0,0.0,0.0,0.0,0.0,0.0,0.0,0.0,0.0,0.0,0.0,0.0,0.0,0.0,0.0,0.0,0.0,0.0,0.0,0.0,0.0,0.0,0.0,0.0,0.0,0.0,0.0,0.0,0.0,0.0,0.0,0.0,0.0,0.0,0.0,0.0,0.0,0.0,0.0,0.0,0.0,0.0,0.0,0.0,0.0,0.0,0.0,0.0,0.0,0.0,0.0,0.0,0.0,0.0,2.5679,2.7353,2.8294,2.8402,2.8402,2.8402,2.8402,2.72,2.4338,2.4044,0.0,0.0,0.0,0.0,0.0,0.0,0.0,0.0,0.0,0.0,0.0,0.0,0.0,0.0,0.0,0.0,0.0,0.0,0.0,0.0,0.0,0.0,0.0,0.0,0.0,0.0,0.0,0.0,0.0,0.0,0.0,0.0,0.0,0.0,0.0,0.0,0.0,0.0,0.0,0.0,0.0,0.0,0.0,0.0,0.0,0.0,0.0,0.0,0.0,0.0,0.0,0.0,0.0,0.0,0.0,0.0,0.0,0.0,0.0,0.0,0.0,0.0,0.0,0.0,0.0,0.0,0.0,0.0,0.0,0.0,0.0,0.0,0.0,0.0,0.0,0.0,0.0,0.0,0.0,0.0,0.0,0.0,0.0,0.0,0.0,0.0,0.0,0.0,0.0,0.0,0.0,0.0,0.0,0.0,0.0,0.0,0.0,0.0,0.0,0.0,0.0,0.0,2.8126,2.9539,2.9848,2.9942,2.9994,2.9994,2.9994,2.8623,2.5431,2.5214,0.0,0.0,0.0,0.0,0.0,0.0,0.0,0.0,0.0,0.0,0.0,0.0,0.0,0.0,0.0,0.0,0.0,0.0,0.0,0.0,0.0,0.0,0.0,0.0,0.0,0.0,0.0,0.0,0.0,0.0,0.0,0.0,0.0,0.0,0.0,0.0,0.0,0.0,0.0,0.0,0.0,0.0,0.0,0.0,0.0,0.0,0.0,0.0,0.0,0.0,0.0,0.0,0.0,0.0,0.0,0.0,0.0,0.0,0.0,0.0,0.0,0.0,0.0,0.0,0.0,0.0,0.0,0.0,0.0,0.0,0.0,0.0,0.0,0.0,0.0,0.0,0.0,0.0,0.0,0.0,0.0,0.0,0.0,0.0,0.0,0.0,0.0,0.0,0.0,0.0,0.0,0.0,0.0,0.0,0.0,0.0,0.0,0.0,0.0,0.0,0.0,0.0,2.6819,2.8176,2.9473,2.9827,2.9994,2.9994,2.9994,2.8814,2.6005,2.583,0.0,0.0,0.0,0.0,0.0,0.0,0.0,0.0,0.0,0.0,0.0,0.0,0.0,0.0,0.0,0.0,0.0,0.0,0.0,0.0,0.0,0.0,0.0,0.0,0.0,0.0,0.0,0.0,0.0,0.0,0.0,0.0,0.0,0.0,0.0,0.0,0.0,0.0,0.0,0.0,0.0,0.0,0.0,0.0,0.0,0.0,0.0,0.0,0.0,0.0,0.0,0.0,0.0,0.0,0.0,0.0,0.0,0.0,0.0,0.0,0.0,0.0,0.0,0.0,0.0,0.0,0.0,0.0,0.0,0.0,0.0,0.0,0.0,0.0,0.0,0.0,0.0,0.0,0.0,0.0,0.0,0.0,0.0,0.0,0.0,0.0,0.0,0.0,0.0,0.0,0.0,0.0,0.0,0.0,0.0,0.0,0.0,0.0,0.0,0.0,0.0,0.0,2.7158,2.8682,0.0,2.9564,2.9774,2.9774,2.9889,2.8814,2.6051,0.0,0.0,0.0,0.0,0.0,0.0,0.0,0.0,0.0,0.0,0.0,0.0,0.0,0.0,0.0,0.0,0.0,0.0,0.0,0.0,0.0,0.0,0.0,0.0,0.0,0.0,0.0,0.0,0.0,0.0,0.0,0.0,0.0,0.0,0.0,0.0,0.0,0.0,0.0,0.0,0.0,0.0,0.0,0.0,0.0,0.0,0.0,0.0,0.0,0.0,0.0,0.0,0.0,0.0,0.0,0.0,0.0,0.0,0.0,0.0,0.0,0.0,0.0,0.0,0.0,0.0,0.0,0.0,0.0,0.0,0.0,0.0,0.0,0.0,0.0,0.0,0.0,0.0,0.0,0.0,0.0,0.0,0.0,0.0,0.0,0.0,0.0,0.0,0.0,0.0,0.0,0.0,0.0,0.0,0.0,0.0,0.0,0.0,0.0,0.0,0.0,0.0,2.4887,2.7252,2.8983,0.0,2.9237,2.9448,2.9448,2.9722,2.8714,2.597,0.0,0.0,0.0,0.0,0.0,0.0,0.0,0.0,0.0,0.0,0.0,0.0,0.0,0.0,0.0,0.0,0.0,0.0,0.0,0.0,0.0,0.0,0.0,0.0,0.0,0.0,0.0,0.0,0.0,0.0,0.0,0.0,0.0,0.0,0.0,0.0,0.0,0.0,0.0,0.0,0.0,0.0,0.0,0.0,0.0,0.0,0.0,0.0,0.0,0.0,0.0,0.0,0.0,0.0,0.0,0.0,0.0,0.0,0.0,0.0,0.0,0.0,0.0,0.0,0.0,0.0,0.0,0.0,0.0,0.0,0.0,0.0,0.0,0.0,0.0,0.0,0.0,0.0,0.0,0.0,0.0,0.0,0.0,0.0,0.0,0.0,0.0,0.0,0.0,0.0,0.0,0.0,0.0,0.0,0.0,0.0,0.0,0.0,0.0,0.0,0.0,0.0,2.4143,2.6784,2.8684,2.8684,2.893,2.9079,2.9079,2.9396,2.8401,0.0,0.0,0.0,0.0,0.0,0.0,0.0,0.0,0.0,0.0,0.0,0.0,0.0,0.0,0.0,0.0,0.0,0.0,0.0,0.0,0.0,0.0,0.0,0.0,0.0,0.0,0.0,0.0,0.0,0.0,0.0,0.0,0.0,0.0,0.0,0.0,0.0,0.0,0.0,0.0,0.0,0.0,0.0,0.0,0.0,0.0,0.0,0.0,0.0,0.0,0.0,0.0,0.0,0.0,0.0,0.0,0.0,0.0,0.0,0.0,0.0,0.0,0.0,0.0,0.0,0.0,0.0,0.0,0.0,0.0,0.0,0.0,0.0,0.0,0.0,0.0,0.0,0.0,0.0,0.0,0.0,0.0,0.0,0.0,0.0,0.0,0.0,0.0,0.0,0.0,0.0,0.0,0.0,0.0,0.0,0.0,0.0,0.0,0.0,0.0,0.0,0.0,0.0,2.4207,2.6834,2.8684,2.8684,2.893,2.9026,2.8834,2.9089,2.8097,2.5441,0.0,0.0,0.0,0.0,0.0,0.0,0.0,0.0,0.0,0.0,0.0,0.0,0.0,0.0,0.0,0.0,0.0,0.0,0.0,0.0,0.0,0.0,0.0,0.0,0.0,0.0,0.0,0.0,0.0,0.0,0.0,0.0,0.0,0.0,0.0,0.0,0.0,0.0,0.0,0.0,0.0,0.0,0.0,0.0,0.0,0.0,0.0,0.0,0.0,0.0,0.0,0.0,0.0,0.0,0.0,0.0,0.0,0.0,0.0,0.0,0.0,0.0,0.0,0.0,0.0,0.0,0.0,0.0,0.0,0.0,0.0,0.0,0.0,0.0,0.0,0.0,0.0,0.0,0.0,0.0,0.0,0.0,0.0,0.0,0.0,0.0,0.0,0.0,0.0,0.0,0.0,0.0,0.0,0.0,0.0,0.0,0.0,0.0,0.0,0.0,0.0,0.0,2.3816,2.6626,2.8674,2.8568,2.8664,2.8717,2.8568,2.8771,2.8031,2.5924,0.0,0.0,0.0,0.0,0.0,0.0,0.0,0.0,0.0,0.0,0.0,0.0,0.0,0.0,0.0,0.0,0.0,0.0,0.0,0.0,0.0,0.0,0.0,0.0,0.0,0.0,0.0,0.0,0.0,0.0,0.0,0.0,0.0,0.0,0.0,0.0,0.0,0.0,0.0,0.0,0.0,0.0,0.0,0.0,0.0,0.0,0.0,0.0,0.0,0.0,0.0,0.0,0.0,0.0,0.0,0.0,0.0,0.0,0.0,0.0,0.0,0.0,0.0,0.0,0.0,0.0,0.0,0.0,0.0,0.0,0.0,0.0,0.0,0.0,0.0,0.0,0.0,0.0,0.0,0.0,0.0,0.0,0.0,0.0,0.0,0.0,0.0,0.0,0.0,0.0,0.0,0.0,0.0,0.0,0.0,0.0,0.0,0.0,0.0,0.0,0.0,0.0,2.3281,2.6458,2.8621,2.8398,2.8344,2.8344,2.8291,2.8568,2.812,2.6804,0.0,0.0,0.0,0.0,0.0,0.0,0.0,0.0,0.0,0.0,0.0,0.0,0.0,0.0,0.0,0.0,0.0,0.0,0.0,0.0,0.0,0.0,0.0,0.0,0.0,0.0,0.0,0.0,0.0,0.0,0.0,0.0,0.0,0.0,0.0,0.0,0.0,0.0,0.0,0.0,0.0,0.0,0.0,0.0,0.0,0.0,0.0,0.0,0.0,0.0,0.0,0.0,0.0,0.0,0.0,0.0,0.0,0.0,0.0,0.0,2.6889,0.0,0.0,0.0,0.0,0.0,0.0,0.0,0.0,0.0,0.0,0.0,0.0,0.0,0.0,0.0,0.0,0.0,0.0,0.0,0.0,0.0,0.0,0.0,0.0,0.0,0.0,0.0,0.0,0.0,0.0,0.0,0.0,0.0,0.0,0.0,0.0,0.0,0.0,0.0,0.0,0.0,2.4064,2.6939,2.8973,2.892,2.8717,2.8514,2.8291,2.8568,2.8172,2.6844,2.6937,0.0,0.0,0.0,0.0,0.0,0.0,0.0,0.0,0.0,0.0,0.0,0.0,0.0,0.0,0.0,0.0,0.0,0.0,0.0,0.0,0.0,0.0,0.0,0.0,0.0,0.0,0.0,0.0,0.0,0.0,0.0,0.0,0.0,0.0,0.0,0.0,0.0,0.0,0.0,0.0,0.0,0.0,0.0,0.0,0.0,0.0,0.0,0.0,0.0,0.0,0.0,0.0,0.0,0.0,0.0,0.0,0.0,0.0,0.0,0.0,2.7436,0.0,0.0,0.0,0.0,0.0,0.0,0.0,0.0,0.0,0.0,0.0,0.0,0.0,0.0,0.0,0.0,0.0,0.0,0.0,0.0,0.0,0.0,0.0,0.0,0.0,0.0,0.0,0.0,0.0,0.0,0.0,0.0,0.0,0.0,0.0,0.0,0.0,0.0,0.0,0.0,2.4861,2.8386,3.0794,3.0628,3.0026,2.9618,2.946,2.9122,2.8588,2.7941,2.8029,0.0,0.0,0.0,0.0,0.0,0.0,0.0,0.0,0.0,0.0,0.0,0.0,0.0,0.0,0.0,0.0,0.0,0.0,0.0,0.0,0.0,0.0,0.0,0.0,0.0,0.0,0.0,0.0,0.0,0.0,0.0,0.0,0.0,0.0,0.0,0.0,0.0,0.0,0.0,0.0,0.0,0.0,0.0,0.0,0.0,0.0,0.0,0.0,0.0,0.0,0.0,0.0,0.0,2.9488,2.9635,2.9425,2.9658,3.0039,3.0462,3.0205,3.0345,3.0674,2.9372,0.0,0.0,0.0,0.0,0.0,0.0,0.0,0.0,0.0,0.0,0.0,0.0,0.0,0.0,0.0,0.0,0.0,0.0,0.0,0.0,0.0,0.0,0.0,0.0,3.1418,3.0969,0.0,0.0,0.0,0.0,0.0,0.0,0.0,0.0,0.0,0.0,0.0,0.0,2.5875,2.992,3.2705,3.2443,3.152,3.0968,3.0968,3.0224,2.9743,2.9743,2.9607,2.9471,0.0,0.0,0.0,0.0,0.0,0.0,0.0,0.0,0.0,0.0,0.0,0.0,0.0,0.0,0.0,0.0,0.0,0.0,0.0,0.0,0.0,0.0,0.0,0.0,0.0,0.0,0.0,0.0,0.0,0.0,0.0,0.0,2.5864,2.5932,0.0,0.0,0.0,0.0,0.0,0.0,0.0,0.0,0.0,0.0,0.0,0.0,0.0,2.78,2.7971,3.0085,3.1179,3.1203,3.3078,3.397,3.3959,3.397,3.4162,3.4376,3.2935,0.0,3.1078,3.1375,0.0,0.0,0.0,0.0,0.0,0.0,0.0,0.0,0.0,0.0,0.0,0.0,0.0,0.0,0.0,0.0,0.0,0.0,0.0,0.0,0.0,0.0,3.5059,3.5014,3.3845,3.3167,0.0,3.0713,2.7329,2.8298,2.6998,0.0,0.0,0.0,0.0,0.0,0.0,0.0,2.752,3.0671,3.2755,3.2755,3.2342,3.2079,3.2079,3.2252,3.2303,3.2303,3.2497,3.2099,3.095,3.1891,0.0,0.0,0.0,0.0,0.0,0.0,0.0,0.0,0.0,0.0,0.0,0.0,0.0,0.0,0.0,0.0,0.0,0.0,0.0,0.0,0.0,0.0,0.0,0.0,0.0,0.0,0.0,0.0,0.0,2.6311,2.6477,2.6558,2.6694,2.6104,0.0,0.0,0.0,0.0,0.0,0.0,0.0,0.0,0.0,2.8783,2.9913,3.0568,3.0657,3.2486,3.341,3.3422,3.4354,3.4775,3.4775,3.4775,3.4872,3.4933,3.4185,3.3623,3.3161,3.2757,3.2328,3.1764,0.0,0.0,0.0,0.0,2.8374,2.9656,2.9258,3.0479,0.0,3.2308,0.0,0.0,0.0,0.0,0.0,0.0,0.0,0.0,0.0,0.0,3.4545,3.5196,3.4925,3.4642,3.5077,3.2586,3.0432,0.0,2.9484,2.7427,2.5454,0.0,0.0,0.0,0.0,2.9181,2.9761,3.2487,3.4385,3.4385,3.3822,3.3464,3.3464,3.3227,3.2914,3.2579,3.3254,3.3303,3.2529,3.2842,3.2096,0.0,0.0,0.0,0.0,0.0,0.0,0.0,0.0,0.0,0.0,0.0,0.0,0.0,0.0,0.0,0.0,0.0,0.0,0.0,0.0,0.0,0.0,0.0,0.0,0.0,0.0,0.0,0.0,2.6898,2.7081,2.7524,2.7731,2.7279,0.0,0.0,0.0,0.0,0.0,0.0,2.9141,3.0158,3.0706,3.0637,3.2227,3.3104,3.3104,3.4246,3.4775,3.4775,3.4775,3.4775,3.4775,3.4775,3.4775,3.4775,3.4775,3.4775,3.4739,3.3863,3.3561,3.3603,3.3187,3.2293,3.1192,3.0704,3.0814,3.1156,3.1156,3.225,3.3652,3.3743,3.3461,3.3044,3.2582,0.0,0.0,0.0,0.0,3.1437,3.2633,3.3256,3.382,3.4835,3.5271,3.5271,3.4884,3.3713,3.288,0.0,3.2012,2.9955,2.7708,0.0,0.0,0.0,0.0,3.1398,3.1708,3.4029,3.562,3.562,3.5054,3.4642,3.4498,3.3952,3.3436,3.3005,3.3647,3.3983,3.3891,3.3533,3.2971,3.2126,0.0,0.0,0.0,0.0,0.0,0.0,0.0,0.0,0.0,0.0,0.0,0.0,0.0,0.0,0.0,0.0,0.0,0.0,0.0,0.0,0.0,0.0,0.0,0.0,0.0,0.0,0.0,0.0,0.0,2.9683,3.0812,0.0,0.0,0.0,0.0,2.9906,2.9954,3.0704,3.2196,3.2337,3.3056,3.4486,3.4619,3.4667,3.4667,3.4739,3.4775,3.4775,3.4775,3.4775,3.4775,3.4775,3.4775,3.4775,3.4775,3.4775,3.4823,3.4739,3.486,3.4943,3.3353,3.2832,3.2766,3.1034,3.135,3.258,3.267,3.374,3.515,3.539,3.4394,3.2791,3.1216,3.0648,0.0,0.0,3.1471,3.2572,3.2557,3.3597,3.4727,3.4811,3.4835,3.4835,3.4835,3.3597,3.3027,0.0,3.3752,3.2515,3.2049,0.0,3.0778,2.9667,3.0512,3.1708,3.2873,3.4541,3.562,3.562,3.556,3.5304,3.4836,3.4752,3.4659,3.4607,3.4239,3.4305,3.5002,3.4552,3.4502,3.4882,3.3475,0.0,0.0,0.0,0.0,0.0,0.0,0.0,0.0,0.0,0.0,0.0,0.0,0.0,0.0,0.0,0.0,0.0,0.0,0.0,0.0,0.0,0.0,0.0,0.0,0.0,0.0,0.0,0.0,2.9833,3.0122,0.0,3.0874,3.0922,3.1096,3.1601,3.2563,3.3392,3.397,3.3994,3.4258,3.4763,3.4775,3.4775,3.4775,3.4775,3.4775,3.4775,3.4775,3.4775,3.4775,3.4775,3.4775,3.4775,3.4775,3.4775,3.4775,3.4775,3.4884,3.4872,3.4293,3.4112,3.4098,3.3484,3.3594,3.4064,3.4064,3.4438,3.4981,3.5078,3.4929,3.459,3.4014,3.3842,3.3796,3.375,3.3876,3.4029,3.3994,3.4414,3.4775,3.4775,3.4775,3.4775,3.4775,3.439,3.4162,3.4824,3.3701,3.2478,3.1966,3.2837,3.2997,3.1281,3.2466,3.3718,3.4147,3.4715,3.4945,3.4606,3.4712,3.4588,3.4052,3.4176,3.4264,3.4179,3.4052,3.4098,3.4427,3.3994,3.3895,3.4186,3.3696,3.1893,0.0,0.0,0.0,0.0,0.0,0.0,0.0,0.0,0.0,0.0,0.0,0.0,0.0,0.0,0.0,0.0,0.0,0.0,0.0,0.0,0.0,0.0,0.0,0.0,0.0,0.0,2.8378,3.0146,3.0362,3.0795,3.1841,3.1937,3.2322,3.3212,3.4198,3.4775,3.4775,3.4775,3.4775,3.4775,3.4775,3.4775,3.4775,3.4775,3.4775,3.4775,3.4775,3.4775,3.4775,3.4775,3.4547,3.4078,3.4546,3.4474,3.4078,3.4607,3.4775,3.4775,3.4775,3.4775,3.4775,3.4775,3.4775,3.4775,3.4775,3.4775,3.4775,3.4775,3.503,3.532,3.532,3.532,3.532,3.532,3.5066,3.4775,3.4775,3.4775,3.4775,3.4775,3.4775,3.4775,3.4775,3.4366,3.4198,3.4679,3.3994,3.2996,3.2094,3.3116,3.338,3.1464,3.2334,3.3224,3.3224,3.3537,3.3633,3.3272,3.3713,3.3807,3.3274,3.2897,3.2892,3.3358,3.2748,3.2769,3.3683,3.2454,3.1967,3.2421,3.1709,3.0343,2.8359,0.0,0.0,0.0,0.0,0.0,0.0,0.0,0.0,0.0,0.0,0.0,0.0,0.0,0.0,0.0,0.0,0.0,0.0,0.0,0.0,0.0,0.0,0.0,2.6226,2.8005,2.9737,3.0819,3.1877,3.2923,3.3886,3.3994,3.421,3.4739,3.4775,3.4775,3.4775,3.4727,3.4715,3.4727,3.4715,3.4715,3.4727,3.4763,3.4775,3.4775,3.4775,3.4775,3.4775,3.4775,3.4006,3.2659,3.4174,3.397,3.2695,3.4162,3.4775,3.4775,3.4775,3.4775,3.4775,3.4775,3.4775,3.4823,3.4739,3.4751,3.4775,3.4775,3.4823,3.4823,3.4823,3.4823,3.4823,3.4823,3.4823,3.4775,3.4775,3.4775,3.4775,3.4775,3.4775,3.4775,3.4775,3.3645,3.302,3.4535,3.4775,3.4354,3.2839,3.2575,3.2046,3.047,3.0242,0.0,3.0206,3.1151,3.1765,3.1741,3.2587,3.2996,3.2515,3.0987,3.0743,3.2326,3.0524,3.0509,3.2925,3.0225,2.9071,2.9997,2.7921,2.8177,3.0986,0.0,0.0,0.0,0.0,0.0,0.0,0.0,0.0,0.0,0.0,0.0,0.0,0.0,0.0,0.0,0.0,0.0,0.0,0.0,0.0,0.0,0.0,2.8991,2.8991,2.9496,3.0555,3.2406,3.2887,3.332,3.3934,3.3994,3.421,3.4739,3.4775,3.4775,3.4775,3.3753,3.332,3.3693,3.3344,3.332,3.3717,3.4451,3.4775,3.4775,3.4775,3.4775,3.4775,3.4775,3.4546,3.421,3.4643,3.4534,3.4222,3.4655,3.4775,3.4775,3.4775,3.4775,3.4775,3.4775,3.4775,3.4727,3.397,3.4198,3.4775,3.4775,3.5078,3.5368,3.5368,3.5368,3.5368,3.5368,3.5078,3.4775,3.4775,3.4775,3.4775,3.4775,3.4775,3.4775,3.4775,3.445,3.427,3.4691,3.4775,3.4691,3.4258,3.4186,3.4042,3.3585,3.3525,0.0,3.2961,3.3212,3.3104,3.2346,3.1492,3.1216,3.1886,3.0434,3.0457,3.2698,3.2319,3.2426,3.3488,3.2706,3.2377,3.2666,3.0471,2.9753,0.0,0.0,0.0,0.0,0.0,0.0,0.0,0.0,0.0,0.0,0.0,0.0,0.0,0.0,0.0,0.0,0.0,0.0,0.0,0.0,0.0,0.0,2.916,3.0975,3.1649,3.1553,3.1973,3.3428,3.3609,3.3801,3.427,3.4318,3.445,3.4763,3.4775,3.4775,3.4775,3.397,3.3416,3.3296,3.3416,3.3416,3.3284,3.4318,3.4775,3.4775,3.4775,3.4775,3.4775,3.4775,3.4475,0.0,3.4547,3.4402,3.3909,3.451,3.4775,0.0,0.0,0.0,0.0,0.0,3.4775,3.4691,3.4138,3.433,3.4775,3.4775,3.503,3.5271,3.5271,3.4809,3.4285,3.4285,3.3601,3.3008,3.3681,3.3849,3.4018,3.4631,3.4775,3.4775,3.4775,3.427,3.4042,3.4655,3.4306,0.0,3.4715,3.4282,3.3621,3.2947,3.2659,3.2394,3.2094,3.225,3.2154,3.1553,3.1048,3.1043,3.1657,3.0218,0.0,0.0,0.0,3.1568,3.1786,3.2194,0.0,0.0,0.0,2.9433,3.0773,0.0,0.0,0.0,2.9178,2.798,0.0,0.0,0.0,0.0,0.0,0.0,0.0,0.0,0.0,0.0,0.0,0.0,0.0,0.0,0.0,0.0,3.0591,3.243,3.379,3.3705,3.3633,3.403,3.4078,3.427,3.4727,3.4775,3.4775,3.4775,3.4775,3.4775,3.4775,0.0,0.0,0.0,0.0,3.415,3.3296,3.4318,3.4775,3.4775,3.4775,3.4775,3.4775,3.4775,3.4078,3.2839,3.4234,3.4042,3.2875,3.4258,3.4775,3.4775,3.4775,3.4775,3.4763,3.4643,3.4679,3.4763,3.4643,0.0,0.0,3.4775,3.4775,3.4775,3.4775,3.3861,3.2767,3.2767,3.1733,3.0951,3.2394,3.2767,3.3116,3.445,3.4775,3.4775,3.4775,3.3741,3.3176,3.451,3.3717,3.32,3.4534,3.3681,3.225,3.0759,3.0134,2.9785,2.9677,3.0074,3.0338,3.0266,0.0,0.0,3.1693,3.0218,3.0019,3.1653,3.0435,2.9638,2.9631,3.0417,2.9929,2.7872,2.7672,2.8813,3.1365,3.115,3.2188,3.4306,2.9932,2.8998,0.0,0.0,0.0,0.0,0.0,0.0,0.0,0.0,0.0,0.0,0.0,0.0,0.0,0.0,0.0,3.105,3.2478,3.3646,3.3946,3.427,3.451,3.4619,3.4631,3.4667,3.4775,3.4775,3.4775,3.4775,3.4775,3.4775,3.4775,3.3633,3.3056,3.3284,3.3068,3.3068,3.3284,3.4318,3.4775,3.4775,0.0,0.0,3.4775,3.4775,3.4619,3.439,3.4643,3.4607,3.4402,3.4655,3.4775,3.4775,3.4775,3.4775,3.4679,3.3897,3.4114,3.4667,3.3873,3.4126,3.4775,3.4775,3.4775,3.4775,3.4775,3.457,0.0,3.4378,3.415,3.3982,3.4246,3.4378,3.4402,3.4715,3.4775,3.4775,3.4775,3.4595,3.4463,3.4715,3.4534,3.4475,3.4727,3.4534,3.4078,3.3346,3.3142,3.2781,3.1997,3.1973,3.1865,3.1452,3.0398,3.0278,3.1597,3.0218,3.0144,3.2159,3.1963,3.1945,3.2234,3.2445,3.2494,3.2418,3.2743,3.3206,3.3744,3.3703,3.3925,3.4384,3.3442,3.3016,0.0,0.0,0.0,0.0,0.0,0.0,0.0,0.0,0.0,0.0,0.0,2.9322,0.0,0.0,3.0949,3.1616,3.2563,3.3537,3.4282,3.4619,3.4775,3.4775,3.4775,3.4775,3.4775,3.4775,3.4775,3.4775,3.4775,3.4775,3.4775,3.409,3.3549,3.3296,3.3537,3.3549,3.3284,3.4318,3.4775,3.4775,3.4775,3.4775,3.4775,3.4775,3.4775,3.4775,3.4775,3.4775,3.4775,3.4775,3.4775,3.4775,3.4775,3.4775,3.4715,3.4246,3.4378,3.4751,3.4234,3.4402,3.4775,3.4775,3.4775,3.4775,3.4775,3.4282,3.3669,3.3669,3.308,3.2647,3.3452,3.3669,3.3861,3.4643,3.4775,3.4775,3.4775,3.4775,3.4775,3.4775,3.4775,3.4775,3.4775,3.4775,3.4595,3.4066,3.355,3.308,3.2563,3.2262,3.2018,3.1741,3.0995,3.085,3.1633,3.0983,3.0948,3.1977,3.2463,3.2797,3.2988,3.3458,3.3797,3.4063,3.4272,3.4397,3.4397,3.4397,3.4397,3.4397,3.4147,3.4063,0.0,0.0,0.0,0.0,0.0,0.0,0.0,0.0,3.0591,3.1354,3.1187,3.1048,3.1369,3.118,3.1288,3.2142,3.2659,3.3392,3.4655,3.4775,3.4775,3.4775,3.4775,3.4775,3.4775,3.4775,3.4775,3.4775,3.4775,3.4775,3.4775,3.4775,3.4451,3.3609,3.4402,3.4426,3.3597,3.4414,3.4775,3.4775,3.4775,3.4835,3.498,3.498,3.4991,3.5087,3.5087,3.5087,3.5087,3.5087,3.5087,3.5075,3.4979,3.498,3.4919,3.4823,3.4775,3.4775,3.4775,3.4775,3.4775,3.4775,3.4775,3.4775,3.4775,3.3945,3.2947,3.2947,3.201,3.1312,3.2611,3.2947,3.3272,3.4474,3.4775,3.4775,3.4775,3.4775,3.4775,3.4775,3.4775,3.4775,3.4775,3.4691,3.4486,3.4054,3.3248,3.2623,3.2515,3.201,3.1705,3.1705,3.1705,3.1705,3.1705,3.1705,3.1705,3.1705,3.2351,3.2729,3.2729,3.3628,3.4147,3.4147,3.4314,3.4397,3.4397,3.4397,3.4397,3.4397,3.4008,3.3966,2.4451,2.2197,2.1322,2.4183,2.5552,2.6881,0.0,0.0,3.3582,3.3086,3.4007,3.484,3.4401,3.4306,3.4294,3.4402,3.4474,3.4583,3.4763,3.4775,3.4775,3.4775,3.4775,3.4775,3.4775,3.4775,3.4775,3.4775,3.4775,3.4775,3.4775,3.4775,3.4727,3.4655,3.4715,3.4727,3.4607,3.4727,3.4775,3.4775,3.4775,3.5076,3.5533,3.5533,3.5785,3.623,3.623,3.623,3.623,3.623,3.623,3.6182,3.5713,3.5533,3.5473,3.5004,3.4775,3.4775,3.4775,3.4775,3.4775,3.4775,3.4775,3.4775,3.4775,3.4655,3.451,3.451,3.439,3.4342,3.4523,3.451,3.4607,3.4739,3.4775,3.4775,3.4775,3.4775,3.4775,3.4775,3.4775,3.4775,3.4775,3.439,3.4066,3.4006,3.3561,3.3032,3.2563,3.201,3.1705,3.1705,3.1705,3.1705,3.1705,3.1705,3.1705,3.1705,3.1793,3.1837,3.1837,3.2686,3.3172,3.3172,3.3966,3.4397,3.4397,3.4397,3.4397,3.4397,3.4356,3.4147,2.5859,2.5302,2.5284,2.6639,2.8331,2.9916,3.0829,3.2638,3.4066,3.3933,3.4294,3.4775,3.5175,3.428,3.3777,0.0,3.4066,3.3789,3.4655,3.4775,3.4775,3.4775,3.4294,3.4042,3.4294,3.4595,3.4655,3.4342,3.4607,3.4775,3.4775,3.4775,3.4775,3.4775,3.4775,3.4775,3.4775,3.5087,3.5292,3.5292,3.5605,3.5857,3.6074,3.6074,3.6194,3.6411,3.6411,3.6411,3.6411,3.6411,3.6411,3.6386,3.6158,3.6074,3.5966,3.5087,3.4775,3.4775,3.4775,3.4775,3.4775,3.4775,3.4775,3.4775,3.4775,3.4775,3.4775,3.4775,3.4775,3.4775,3.4775,3.503,3.5175,3.4872,3.503,3.5175,3.4884,3.4775,3.4775,3.4775,3.4775,3.4775,3.4775,3.4595,3.445,3.445,3.3813,3.3212,3.2984,3.2755,3.2626,3.2581,3.2031,3.1805,3.2069,3.1849,3.1705,3.1705,3.1937,3.2125,3.2125,3.2655,3.2988,3.2988,3.3373,3.3586,3.3586,3.3586,3.3586,3.3586,3.3356,3.327,2.6465,2.6899,2.7473,2.8328,2.9998,3.1495,3.1916,3.2851,3.3685,3.4091,3.3845,3.3808,3.4763,3.3446,3.283,3.4546,3.3636,3.3196,3.4619,3.4775,3.4619,3.4234,3.3657,3.32,3.2971,3.3837,3.4366,3.421,3.457,3.4775,3.4775,3.4775,3.4775,3.4775,3.4919,3.5003,3.5003,3.5569,3.5833,3.5845,3.6218,3.6483,3.6627,3.6771,3.6843,3.6843,3.6843,3.6843,3.6843,3.6843,3.6843,3.6819,3.6675,3.6627,3.6519,3.5605,3.5256,3.5256,3.5256,3.5111,3.5003,3.5003,3.4895,3.4775,3.4775,3.4775,3.4775,3.4775,3.4775,3.4823,3.4969,3.532,3.5512,3.5307,3.556,3.5656,3.5126,3.503,3.4981,3.4835,3.4775,3.4823,3.4981,3.503,3.503,3.503,3.4389,3.3857,3.3513,3.3496,3.3484,3.3412,3.2726,3.2453,3.2772,3.2362,3.2057,3.2057,3.2288,3.2431,3.255,3.2828,3.3074,3.3202,3.333,3.3373,3.3373,3.3373,3.3373,3.3373,3.3099,3.3099,2.5365,2.4708,2.4522,2.7246,2.8413,2.9672,3.2521,3.2789,3.2678,3.3438,3.2967,3.2543,3.3139,3.2353,3.2331,3.4458,3.3871,3.3563,3.4665,3.4775,3.427,3.2755,3.2996,3.2478,0.0,3.2106,3.3741,3.4679,3.4775,3.4775,3.4775,3.4775,3.4775,3.4775,3.5328,3.5593,3.5593,3.611,3.6386,3.6386,3.6398,3.6675,3.718,3.7697,3.7938,3.7938,3.7938,3.7938,3.7938,3.7938,3.7938,3.7878,3.7372,3.7168,3.7108,3.6555,3.6362,3.6362,3.6362,3.6014,3.5593,3.5593,3.5244,3.4775,3.4775,3.4775,3.4775,3.4775,3.4775,3.4932,3.5416,3.5572,3.5716,3.6216,3.6358,3.6228,3.5716,3.5572,3.5416,3.4872,3.4775,3.4981,3.5476,3.5572,3.5572,3.5572,3.5536,3.5136,3.4125,3.3969,3.3995,3.3982,3.3893,3.3822,3.3866,3.3301,3.2945,3.2945,3.2593,3.255,3.2957,3.2988,3.3202,3.367,3.4147,3.4356,3.4356,3.4356,3.4356,3.4356,3.4356,3.4356,2.4493,0.0,2.6953,2.7994,2.9197,3.0373,3.1356,3.1618,3.171,3.2167,3.123,3.0495,3.1038,2.9983,2.9777,3.2078,3.1565,3.1809,3.4426,3.3621,3.3056,3.3933,3.2959,0.0,0.0,0.0,0.0,3.3284,3.4198,3.4775,3.4775,3.4775,3.4943,3.534,3.5521,3.5785,3.6134,3.6663,3.6928,3.694,3.7276,3.7553,3.7721,3.7902,3.7986,3.7986,3.7986,3.7986,3.7986,3.7986,3.7986,3.7962,3.7781,3.7709,3.7697,3.7517,3.7457,3.7348,3.6651,3.629,3.6134,3.6134,3.5785,3.5352,3.5352,3.51,3.4775,3.4775,3.4775,3.4932,3.5464,3.562,3.5668,3.5847,3.5847,3.58,3.562,3.532,3.5223,3.574,3.5307,3.4981,3.5524,3.532,3.5175,3.5572,3.562,3.5451,3.5124,3.5046,3.5149,3.5456,3.4873,3.4603,3.4958,3.4117,3.3583,3.3583,3.3071,3.2871,3.2988,3.2988,3.3074,3.3245,3.3373,3.3458,3.3458,3.3458,3.3458,3.3458,3.3458,3.3628,0.0,2.6612,2.8326,2.9186,3.0125,3.0899,3.1167,3.1013,3.0847,3.1259,3.0173,2.9285,2.9485,2.8344,2.825,3.0859,3.0399,3.0859,3.4306,3.3657,3.3092,3.3897,3.2959,3.2551,0.0,0.0,0.0,3.2539,3.3765,3.4342,3.4018,3.4474,3.5076,3.5605,3.5978,3.6338,3.6675,3.7216,3.7481,3.7481,3.7817,3.7986,3.7986,3.7986,3.7673,3.7168,3.7733,3.7661,3.718,3.7745,3.7986,3.7986,3.7986,3.7986,3.7986,3.7986,3.7986,3.789,3.7204,3.6843,3.6687,3.6687,3.6326,3.5905,3.5905,3.5533,3.5112,3.5112,3.4968,3.4932,3.5464,3.562,3.5668,3.5847,3.5895,3.5847,3.5668,3.532,3.5211,3.574,3.5259,3.4981,3.5524,3.532,3.5223,3.5572,3.562,3.5668,3.5847,3.5868,3.605,3.6499,3.5967,3.5724,3.6005,3.5199,3.4678,3.4678,3.4172,3.3893,3.3819,3.3647,3.3546,3.3513,3.3501,3.3501,3.3501,3.3501,3.3501,3.3501,3.3501,3.367,2.7072,2.7935,2.8535,3.0675,3.1013,3.0991,3.1823,3.0991,3.0141,3.0586,2.9746,2.8766,0.0,0.0,2.749,3.0512,3.0117,3.0633,3.416,3.4655,3.4138,0.0,0.0,0.0,0.0,0.0,0.0,3.2551,0.0,3.3622,3.2707,3.4066,3.5124,3.5677,3.6675,3.7204,3.7228,3.7733,3.7986,3.7986,3.7986,3.7986,3.7986,3.7986,3.7168,3.5821,3.7324,3.7132,3.5857,3.736,3.7986,3.7986,3.7986,3.7986,3.7986,3.7986,3.7986,3.7986,3.7986,3.7649,3.7228,3.7228,3.6879,3.6447,3.6447,3.6074,3.5653,3.5629,3.5256,3.4957,3.5476,3.5572,3.5704,3.6228,3.6358,3.6168,3.5704,3.5572,3.5416,3.4981,3.4872,3.4969,3.5476,3.5572,3.5572,3.562,3.562,3.58,3.631,3.6405,3.6593,3.7062,3.7046,3.705,3.705,3.6502,3.6149,3.6149,3.574,3.545,3.5365,3.4895,3.4637,3.4502,3.4463,3.445,3.445,3.441,3.4397,3.4397,3.4397,3.4397,2.628,2.7994,2.9956,3.071,3.0972,3.1189,3.1603,3.1107,3.019,2.8844,2.7476,2.5987,0.0,0.0,0.0,2.6417,2.6933,0.0,3.1898,3.2439,0.0,3.3044,0.0,3.3428,3.3777,3.4198,0.0,0.0,3.3813,3.4679,3.4811,3.5196,3.5833,3.6759,3.7048,3.7385,3.7781,3.7914,3.7986,3.7986,3.7986,3.7986,3.7986,3.7986,3.7757,3.7397,3.7805,3.7757,3.7409,3.7817,3.7986,3.7986,3.7986,3.7986,3.7986,3.7986,3.7986,3.7986,3.7986,3.789,3.7781,3.7781,3.7421,3.7,3.7,3.6627,3.6122,3.5725,3.5521,3.5427,3.5574,3.532,3.5126,3.5656,3.5512,3.5259,3.5512,3.5271,3.5223,3.5883,3.5656,3.532,3.5078,3.4981,3.5271,3.6086,3.5847,3.5668,3.5812,3.6452,3.6968,3.7108,3.7422,3.7678,3.7678,3.7116,3.6776,3.6776,3.627,3.5913,3.59,3.577,3.5692,3.5678,3.5273,3.5064,3.5064,3.462,3.4397,3.4397,3.4397,3.4397,2.7904,2.9165,3.0443,3.0724,3.0724,3.0783,3.1254,3.0748,2.965,2.7804,2.6166,2.4604,2.2917,2.2231,0.0,0.0,0.0,0.0,3.1094,3.1635,3.2072,0.0,3.3284,0.0,3.4679,3.4775,3.4463,0.0,3.433,3.4763,3.4607,3.5461,3.6338,3.7168,3.7421,3.7685,3.7986,3.7986,3.7986,3.7986,3.7986,3.7986,3.7986,3.7986,3.7601,3.6988,0.0,3.7589,3.7,3.7697,3.7986,3.7986,3.7986,3.7986,3.7986,3.7986,3.7986,3.7986,3.7986,3.7986,3.7986,3.7986,3.7781,3.7541,3.7541,3.7168,3.6687,3.6386,3.6128,3.5903,3.5649,3.5405,3.5175,3.5223,3.503,3.4884,3.5175,3.503,3.4969,3.5596,3.5452,3.5126,3.4823,3.4981,3.5368,3.5943,3.5991,3.5943,3.5943,3.664,3.7201,3.7413,3.7703,3.79,3.79,3.7599,3.7403,3.7403,3.709,3.6776,3.6515,3.6502,3.6371,3.6109,3.5809,3.5652,3.5652,3.5312,3.5142,3.5142,3.5142,3.5142,3.0056,3.0472,3.0495,3.0724,3.0412,3.0213,3.0806,2.9742,2.822,2.6736,2.5259,2.3877,2.2745,2.2836,2.3712,2.5544,0.0,2.7331,3.0484,3.1385,3.2066,3.2987,3.326,3.3765,3.4691,3.4715,3.4727,3.4919,3.4955,3.4643,3.3753,3.5485,3.6747,3.7276,3.7745,3.7986,3.7986,3.7986,3.7986,3.7986,3.7986,3.7986,3.7986,3.7986,3.7228,3.6014,3.7385,0.0,3.6038,3.7409,3.7986,3.7986,3.7986,3.7986,3.7986,3.7986,3.7986,3.7986,3.7986,3.7986,3.7986,3.7986,3.7986,3.7986,3.7986,3.7661,3.7276,3.7216,3.6899,3.6468,3.5837,3.5734,3.5574,3.5029,3.4823,3.4775,3.4775,3.4775,3.4775,3.4775,3.4775,3.4823,3.4872,3.5271,3.5668,3.58,3.6168,3.6499,3.6606,3.6875,3.7261,3.7749,3.7854,3.79,3.79,3.79,3.79,3.79,3.79,3.7678,3.7142,3.7116,3.6881,3.6358,3.6266,3.6227,3.6227,3.6136,3.6109,3.6109,3.6109,3.6109,2.9049,2.9661,3.0692,3.0495,3.0464,3.038,3.0213,2.7391,0.0,2.39,2.3269,2.2745,2.2359,2.2413,2.2972,2.4315,2.5973,2.7161,2.736,3.0269,3.2273,0.0,3.3104,3.4102,3.4715,0.0,0.0,0.0,0.0,3.605,3.5869,3.6615,3.73,3.7829,3.7938,3.7986,3.7986,3.7986,3.7986,3.7986,3.7986,3.7986,3.7986,3.7986,3.7829,3.7589,3.7866,0.0,3.7601,3.7866,3.7986,3.7986,3.7986,3.7986,3.7986,3.7986,3.7986,3.7986,3.7986,3.7986,3.7986,3.7986,3.7986,3.7986,3.7986,3.7926,3.7757,3.7312,3.746,3.7522,3.6527,3.6281,3.6174,3.5584,3.5148,3.4775,3.4775,3.4775,3.4775,3.4775,3.4775,3.492,3.5368,3.5524,3.5895,3.6687,3.6922,3.7121,3.7564,3.7307,3.7155,3.7214,3.7657,3.79,3.79,3.79,3.79,3.79,3.79,3.7861,3.7756,3.7743,3.7691,3.7599,3.7103,3.6841,3.6841,3.6345,3.6109,3.6109,3.6109,3.6109,2.8877,2.9521,3.0681,3.0287,3.0088,2.9694,2.8411,0.0,0.0,2.1549,2.1115,2.1118,2.0818,2.1148,0.0,2.4589,2.5954,2.7133,2.8418,3.056,0.0,3.2203,3.3047,3.3849,0.0,0.0,0.0,0.0,0.0,3.5942,3.6771,3.7312,3.7721,3.7974,3.7986,3.7986,3.7986,3.7986,3.7986,3.7986,3.7986,3.7986,3.7986,3.7986,3.7986,3.7986,3.7986,0.0,3.6819,3.7637,3.7493,3.6831,3.7661,3.7986,3.7986,3.7986,3.7986,3.7986,3.7986,3.7986,3.7986,3.7986,3.7986,3.7986,3.7986,3.7986,3.7979,3.8052,3.8226,3.83,3.7837,3.7717,3.7552,3.7011,3.6715,3.6456,3.6124,3.6062,3.5976,3.5693,3.5644,3.5692,3.5991,3.6228,3.6546,3.7015,3.7353,3.7611,3.7854,3.7657,3.7505,3.7505,3.7762,3.79,3.79,3.79,3.79,3.79,3.79,3.79,3.79,3.79,3.79,3.79,3.7625,3.7469,3.7469,3.7181,3.7037,3.7037,3.7037,3.7037,2.9518,3.0056,3.095,3.0401,2.9911,2.9034,2.7077,2.5853,2.4048,2.0423,1.9768,1.9884,1.9981,2.0427,2.1892,0.0,2.5823,2.6879,2.9911,3.0857,3.1658,0.0,3.3227,0.0,0.0,0.0,0.0,0.0,0.0,0.0,3.7288,3.7757,3.7986,3.7986,3.7986,3.7986,3.7986,3.7986,3.7986,3.7986,3.7986,3.7986,3.7986,3.7986,3.7986,3.7986,3.7986,0.0,0.0,3.7324,3.7048,3.5773,3.736,3.7986,3.7986,3.7986,3.7986,3.7986,3.7986,3.7986,3.7986,3.7986,3.7986,3.7986,3.7986,3.7986,3.8092,3.8631,3.8883,3.9007,3.9057,3.9042,3.8843,3.8225,3.8101,3.7975,3.7498,3.7398,3.7285,3.6845,3.6669,3.6628,3.6723,3.6951,3.7155,3.7261,3.7611,3.79,3.79,3.79,3.79,3.79,3.79,3.79,3.79,3.79,3.79,3.79,3.79,3.79,3.79,3.79,3.79,3.79,3.79,3.79,3.79,3.79,3.79,3.79,3.79,3.79,3.1256,3.156,3.1772,3.1219,3.0276,2.9044,2.7692,0.0,2.2535,2.1665,2.0327,1.9833,2.1321,2.1639,2.2655,2.5594,2.5485,2.6151,2.9309,3.0036,3.1009,3.2997,0.0,0.0,0.0,0.0,0.0,0.0,0.0,0.0,3.7902,3.795,3.7986,3.7986,3.7986,3.7986,3.7986,3.7986,3.7986,3.7986,3.7986,3.7986,3.7986,3.7986,3.7986,3.7986,3.7986,0.0,0.0,3.7324,3.7048,3.5773,3.736,3.7986,3.7986,3.7986,3.7986,3.7986,3.7986,3.7986,3.7986,3.7986,3.7986,3.7986,3.7986,3.7986,3.8092,3.8631,3.9181,3.9622,3.9609,3.9601,3.9354,3.8326,3.8101,3.8076,3.8038,3.8025,3.8013,3.7962,3.7498,3.7291,3.7769,3.7441,3.7261,3.7749,3.7854,3.79,3.79,3.79,3.79,3.79,3.79,3.79,3.79,3.79,3.79,3.79,3.79,3.79,3.79,3.79,3.79,3.79,3.79,3.79,3.79,3.79,3.79,3.79,3.79,3.79,2.9388,3.0579,3.2066,3.1373,3.0722,2.9501,2.676,0.0,2.3196,2.0741,1.9763,1.9538,2.0341,2.0427,2.1547,2.4925,2.5374,0.0,3.0934,3.1709,3.2605,3.4574,0.0,0.0,0.0,0.0,0.0,0.0,0.0,0.0,3.7938,3.7986,3.7986,3.7986,3.7986,3.7986,3.7986,3.7986,3.7986,3.7986,3.7986,3.7986,3.7986,3.7986,3.7986,3.7986,3.7986,0.0,0.0,3.694,3.6495,3.4463,3.7,3.7986,3.7986,3.7986,3.7986,3.7986,3.7986,3.7986,3.7986,3.7986,3.7986,3.7986,3.7986,3.7986,3.8092,3.8631,3.9218,3.9788,4.0096,4.0438,4.0558,4.0126,4.0011,3.9921,3.9561,3.9483,3.9393,3.9071,3.8827,3.872,3.8912,3.8765,3.8553,3.8389,3.8383,3.8266,3.7952,3.79,3.79,3.79,3.79,3.79,3.79,3.79,3.79,3.79,3.79,3.79,3.79,3.79,3.79,3.79,3.79,3.79,3.79,3.79,3.79,3.79,3.79,3.79,2.8723,3.0421,3.2381,3.1732,3.0838,2.9223,0.0,0.0,2.315,2.0104,1.9374,1.9351,1.9572,1.9674,2.0927,2.4406,2.553,2.7321,3.1245,3.2133,3.3032,0.0,0.0,0.0,0.0,0.0,0.0,0.0,0.0,0.0,3.7926,3.7986,3.7986,3.7986,3.7986,3.7986,3.7986,3.7986,3.7986,3.7986,3.7986,3.7733,3.73,3.7769,3.7733,3.7312,3.7781,0.0,0.0,3.6879,3.6398,3.4246,3.6928,3.8092,3.8198,3.8039,3.8092,3.8198,3.8039,3.7986,3.7986,3.7986,3.7986,3.7986,3.7986,3.7986,3.8145,3.8841,3.962,4.0249,4.0656,4.101,4.1311,4.1311,4.1311,4.1193,4.0775,4.0684,4.0566,4.0187,3.9965,3.9847,3.9847,3.9716,3.9468,3.9037,3.8828,3.8566,3.8187,3.8004,3.79,3.79,3.79,3.79,3.79,3.79,3.79,3.79,3.79,3.79,3.79,3.79,3.79,3.79,3.79,3.79,3.79,3.79,3.79,3.79,3.79,3.79,3.0445,3.1917,3.283,3.2544,3.0383,2.7899,0.0,2.4014,2.1771,2.0233,1.9583,1.9351,1.9572,2.0035,2.1326,2.4223,2.6007,0.0,2.9379,3.0311,0.0,0.0,0.0,0.0,0.0,0.0,0.0,0.0,0.0,0.0,3.7986,3.7986,3.7986,3.7986,3.7986,3.7986,3.7986,3.7986,3.7986,3.7986,3.7986,3.7168,3.5701,3.7264,3.712,0.0,0.0,0.0,0.0,3.7324,3.7036,3.5749,3.736,3.8303,3.8736,3.8198,3.8356,3.8736,3.8198,3.7986,3.7986,3.7986,3.7986,3.7986,3.7986,3.7986,3.825,3.9374,4.0453,4.1261,4.1261,4.1311,4.1311,4.1311,4.1311,4.1311,4.1311,4.1311,4.1311,4.1298,4.0814,4.0409,4.0409,3.9965,3.9612,3.9599,3.9089,3.871,3.8697,3.824,3.79,3.79,3.79,3.79,3.79,3.79,3.79,3.79,3.79,3.79,3.79,3.79,3.79,3.79,3.79,3.79,3.79,3.79,3.79,3.79,3.79,3.79,2.7219,2.8462,2.9395,2.8754,2.7852,2.6628,2.4591,2.34,2.22,2.0289,1.9572,1.944,1.9857,1.9574,2.0082,2.2597,2.5211,0.0,0.0,0.0,0.0,0.0,0.0,0.0,0.0,0.0,0.0,0.0,0.0,0.0,3.7926,3.7986,3.7986,3.7986,3.7986,3.7986,3.7986,3.7986,3.7986,3.7986,3.7986,3.7311,3.6136,3.742,3.7275,0.0,0.0,0.0,0.0,3.7324,3.7048,3.5823,3.7788,3.8409,3.8303,3.8945,3.8998,3.8841,3.905,3.9154,3.9154,3.9154,3.9154,3.9154,3.9154,3.8893,3.8776,3.9942,4.0504,4.0858,4.1211,4.1311,4.1311,4.1311,4.1311,4.1311,4.1311,4.1311,4.1311,4.1311,4.1167,4.1036,4.1036,4.0893,4.0631,4.0226,3.9991,3.9743,3.9377,3.8815,3.8462,3.8462,3.8122,3.79,3.79,3.79,3.79,3.79,3.79,3.79,3.79,3.79,3.79,3.79,3.79,3.79,3.79,3.79,3.79,3.79,3.79,3.79,2.5451,2.668,2.7568,2.6948,2.6152,0.0,2.366,2.2589,2.1546,2.0248,2.0247,2.0411,2.0161,2.0544,2.118,2.2173,2.5697,0.0,0.0,0.0,0.0,0.0,0.0,0.0,0.0,0.0,0.0,0.0,0.0,0.0,3.7967,3.7986,3.7986,3.7986,3.7986,3.7986,3.7986,3.7986,3.7986,3.7986,3.8198,3.7518,3.6086,3.7627,3.7494,0.0,0.0,0.0,0.0,3.7577,3.7397,3.6666,3.8188,3.8579,3.8421,3.9374,3.9478,3.9206,3.9581,3.9697,3.9685,3.9581,3.953,3.9581,3.9788,3.9672,3.9569,4.03,4.0656,4.0858,4.1211,4.1311,4.1311,4.1311,4.1311,4.1311,4.1311,4.1311,4.1311,4.1311,4.1311,4.1311,4.1311,4.1311,4.1193,4.0814,4.0566,4.0292,3.9952,3.9416,3.8958,3.8736,3.841,3.8122,3.7926,3.79,3.79,3.79,3.79,3.79,3.79,3.79,3.79,3.79,3.79,3.79,3.79,3.79,3.79,3.79,3.79,3.79,0.0,2.609,2.676,2.6449,2.495,2.345,2.3172,2.1567,0.0,2.0292,2.1495,2.2086,2.063,2.2442,2.372,2.2515,0.0,0.0,0.0,0.0,0.0,0.0,0.0,0.0,0.0,0.0,0.0,0.0,0.0,0.0,3.8108,3.8039,3.8039,3.8145,3.8092,3.8039,3.8039,3.8039,3.7979,3.7923,3.8518,3.7675,3.5645,3.7836,3.77,0.0,0.0,0.0,0.0,3.8039,3.8092,3.8198,3.8736,3.8893,3.8945,3.9581,3.98,3.9749,3.98,3.98,3.9736,3.9465,3.9374,3.9465,3.9981,4.0287,4.0453,4.0504,4.0858,4.1274,4.1261,4.1261,4.1261,4.1311,4.1311,4.1311,4.1311,4.1311,4.1311,4.1311,4.1261,4.1261,4.1261,4.1261,4.1261,4.1261,4.0791,4.0474,4.0474,4.0004,3.9455,3.8893,3.8762,3.8501,3.8004,3.7926,3.79,3.79,3.79,3.79,3.79,3.79,3.79,3.79,3.79,3.79,3.79,3.79,3.79,3.79,3.79,3.79,2.2513,0.0,2.304,2.2605,2.2014,2.1507,0.0,2.0808,2.0698,2.2029,2.2412,2.2601,0.0,0.0,0.0,0.0,0.0,0.0,0.0,0.0,0.0,0.0,0.0,0.0,0.0,0.0,0.0,0.0,0.0,3.8378,3.9233,3.8461,3.8409,3.927,3.8841,3.8631,3.8631,3.8198,3.7788,3.7332,3.8341,3.758,3.5445,3.8229,3.8477,0.0,0.0,0.0,3.8631,3.8631,3.8893,3.9362,3.989,3.9839,3.9633,4.0555,4.0656,4.0351,4.0757,4.0795,4.0593,4.03,4.0198,4.0249,4.0351,4.0287,4.0236,4.0453,4.0605,4.0757,4.0946,4.0997,4.1047,4.1261,4.1311,4.1311,4.1311,4.1311,4.1311,4.1311,4.1147,4.0997,4.0997,4.0997,4.0997,4.0997,4.103,4.1102,4.1102,4.0592,4.0174,4.003,3.9233,3.8658,3.8527,3.8148,3.79,3.79,3.79,3.79,3.79,3.79,3.79,3.79,3.79,3.79,3.79,3.79,3.79,3.79,3.79,3.79,2.1502,2.1583,2.1732,2.242,2.1715,2.1109,2.1879,2.1219,2.0886,2.2644,2.2863,2.3003,0.0,0.0,0.0,0.0,2.4553,0.0,0.0,0.0,0.0,0.0,0.0,0.0,0.0,0.0,0.0,0.0,0.0,3.878,3.9647,3.9114,3.905,3.9685,3.9374,3.9218,3.9218,3.8945,3.8222,3.7114,3.878,3.8366,3.6198,3.8854,3.9297,0.0,0.0,0.0,3.8739,3.8042,3.8536,3.9736,4.03,4.0147,3.98,4.0757,4.0858,4.0555,4.0808,4.0744,4.0529,4.0504,4.0402,4.0338,4.0338,4.0236,4.0185,4.0402,4.0504,4.0555,4.0694,4.0795,4.0896,4.0909,4.111,4.1261,4.1147,4.111,4.111,4.111,4.0896,4.0744,4.0744,4.0744,4.0744,4.0744,4.0946,4.111,4.111,4.0924,4.0723,4.0448,3.9638,3.9011,3.8736,3.8214,3.79,3.79,3.79,3.79,3.79,3.79,3.79,3.79,3.79,3.79,3.79,3.79,3.79,3.79,3.79,3.79,2.119,2.119,2.1684,2.3695,2.256,2.1436,2.3286,2.2023,2.1008,2.3027,2.3449,2.3633,0.0,2.4902,0.0,0.0,0.0,0.0,0.0,0.0,0.0,0.0,0.0,0.0,0.0,0.0,0.0,0.0,0.0,3.9076,3.9752,3.975,3.98,3.9942,3.9852,3.9852,3.9942,3.98,3.8906,3.7356,3.9484,3.9408,3.7442,3.9622,4.0032,3.8976,0.0,0.0,3.8886,3.7655,3.8204,3.9942,4.0402,4.03,3.9993,4.0643,4.0744,4.0555,4.0453,4.0287,4.0134,4.03,4.0236,4.0032,4.0032,4.0032,4.0083,4.03,4.0351,4.0402,4.0453,4.0593,4.0744,4.0542,4.0858,4.111,4.0896,4.0833,4.0833,4.0833,4.0643,4.0453,4.0453,4.0453,4.0453,4.0453,4.0694,4.0883,4.0883,4.1147,4.1115,4.0605,4.0056,3.9494,3.8893,3.8344,3.7991,3.7913,3.79,3.79,3.79,3.79,3.79,3.79,3.79,3.79,3.79,3.79,3.79,3.79,3.79,3.79,2.119,2.119,2.1684,2.3695,2.2662,2.16,2.3322,2.2126,2.1564,2.4807,2.5459,0.0,0.0,2.5704,2.5581,0.0,0.0,0.0,0.0,0.0,0.0,0.0,0.0,0.0,0.0,0.0,0.0,0.0,0.0,3.9254,4.0218,3.9931,4.0108,4.101,4.0605,4.0605,4.106,4.0147,3.9296,3.8488,3.9833,3.9805,3.8527,4.0317,4.0858,4.0236,0.0,3.9893,3.9904,3.9906,4.021,4.0732,4.0795,4.0946,4.101,4.0707,4.0694,4.0782,4.0338,4.0121,4.0083,3.989,3.9788,3.9736,3.9736,3.9736,3.9788,3.9788,3.9839,3.989,4.0083,4.0173,4.0287,4.0453,4.0555,4.0605,4.0555,4.0555,4.0555,4.0555,4.0338,4.0173,4.0173,4.0173,4.0173,4.0173,4.058,4.0883,4.0883,4.1147,4.1272,4.1193,4.0644,4.0069,3.952,3.8932,3.8383,3.7926,3.79,3.79,3.79,3.79,3.79,3.79,3.79,3.79,3.79,3.79,3.79,3.79,3.79,3.79,2.119,2.119,2.1949,2.5061,2.3547,2.2215,2.5632,2.3372,2.1759,2.6088,2.4592,0.0,0.0,0.0,2.5348,2.9995,0.0,0.0,0.0,0.0,0.0,0.0,0.0,0.0,0.0,0.0,0.0,0.0,0.0,0.0,4.0151,4.0284,4.0491,4.0858,4.0909,4.0909,4.0858,4.0542,3.9745,3.8501,3.9846,3.9805,3.8553,4.0119,4.0656,4.0236,0.0,3.9196,3.9815,3.9106,3.9509,4.0694,4.0694,4.0757,4.0858,4.0605,4.0389,4.0236,4.0134,4.0032,3.9839,3.9736,3.9697,3.9697,3.9697,3.9697,3.9697,3.9697,3.9697,3.9749,3.9839,3.9981,4.007,4.0044,4.03,4.0453,4.0338,4.0287,4.0287,4.0287,4.0083,3.989,3.989,3.989,3.989,3.989,4.0338,4.0643,4.0478,4.0946,4.1161,4.0909,4.0577,4.022,3.9826,3.9138,3.8475,3.7939,3.79,3.79,3.79,3.79,3.79,3.79,3.79,3.79,3.79,3.79,3.79,3.79,3.79,3.79,2.119,2.119,2.2052,2.5624,2.3917,2.2651,2.7635,2.4431,2.168,2.5937,2.3768,0.0,0.0,2.7825,0.0,0.0,0.0,0.0,0.0,0.0,0.0,0.0,0.0,0.0,0.0,0.0,0.0,0.0,0.0,0.0,3.9661,4.0279,4.0565,4.0504,4.0909,4.0909,4.0504,4.0643,4.0087,3.8823,3.9976,3.9925,3.8849,3.9965,4.0389,4.0109,3.8664,3.8692,3.9687,3.8539,3.8966,4.0402,4.0402,4.0351,4.03,4.0402,4.0096,3.9749,3.9929,3.989,3.9697,3.9697,3.9697,3.9697,3.9697,3.9697,3.9697,3.9697,3.9697,3.9697,3.9697,3.9839,3.9929,3.9736,3.9993,4.0249,4.0032,4.0032,4.0032,4.0032,3.9839,3.9697,3.9697,3.9697,3.9697,3.9697,4.0096,4.0338,4.0134,4.0694,4.0959,4.0555,4.0445,4.0281,3.9874,3.906,3.8382,3.7939,3.79,3.79,3.79,3.79,3.79,3.79,3.79,3.79,3.79,3.79,3.79,3.79,3.79,3.79,2.119,2.119,2.1719,2.3867,2.2811,2.2548,2.7711,2.4631,2.1239,2.322,2.4607,0.0,0.0,3.204,0.0,0.0,0.0,0.0,0.0,0.0,0.0,0.0,0.0,0.0,0.0,0.0,0.0,0.0,0.0,0.0,3.8861,3.9451,4.0016,4.0491,4.0555,4.0555,4.0504,4.0287,4.0224,4.0324,4.0453,4.044,4.0324,4.0453,4.0504,4.044,4.0325,4.0173,4.007,4.0211,4.0236,4.0134,4.0134,3.9981,3.98,4.0032,3.9942,3.9697,3.9749,3.9749,3.9697,3.9697,3.9697,3.9697,3.9697,3.9697,3.9697,3.9697,3.9697,3.9697,3.9697,3.9697,3.9749,3.9697,3.9749,3.9736,3.9749,3.9749,3.9749,3.9749,3.9697,3.9697,3.9697,3.9697,3.9697,3.9697,3.9929,4.0121,4.007,4.0389,4.0555,4.0504,4.0516,4.0167,3.9343,3.8709,3.822,3.7939,3.79,3.79,3.79,3.79,3.79,3.79,3.79,3.79,3.79,3.79,3.79,3.79,3.79,3.79,2.119,2.119,2.1983,2.5256,2.3603,2.2411,2.7042,2.5062,2.2848,2.4994,2.4777,0.0,0.0,0.0,0.0,0.0,0.0,0.0,0.0,0.0,0.0,0.0,0.0,0.0,0.0,0.0,0.0,0.0,0.0,0.0,3.853,3.9103,3.9638,3.9981,4.0351,4.0351,3.9993,4.0083,4.0083,3.9993,3.9993,4.0096,4.0236,4.0096,4.0096,4.0236,4.0096,3.9942,3.9839,3.9942,3.9942,3.9839,3.9839,3.9788,3.9697,3.9788,3.9788,3.9697,3.9697,3.9697,3.9697,3.9697,3.9697,3.9697,3.9697,3.9697,3.9697,3.9697,3.9697,3.9697,3.9697,3.9697,3.9697,3.9697,3.9697,3.9697,3.9697,3.9697,3.9697,3.9697,3.9697,3.9697,3.9697,3.9697,3.9697,3.9697,3.9929,4.0032,3.989,4.0249,4.0351,4.0044,4.0147,4.0019,3.9475,3.9104,3.8644,3.8168,3.7852,3.7703,3.79,3.7749,3.7703,3.79,3.79,3.79,3.79,3.79,3.79,3.79,3.79,3.79,2.119,2.119,2.2017,2.5417,2.3695,2.2184,2.5964,2.499,2.4021,2.6623,2.5982,2.5506,2.7366,0.0,0.0,0.0,0.0,0.0,0.0,0.0,0.0,0.0,0.0,0.0,0.0,0.0,0.0,0.0,0.0,0.0,0.0,3.8514,3.9058,3.9675,4.0045,4.0044,3.9697,3.989,3.989,3.9697,3.9697,3.9788,3.9981,3.9788,3.9788,3.9981,3.9788,3.9697,3.9697,3.9697,3.9697,3.9697,3.9697,3.9697,3.9697,3.9697,3.9697,3.9697,3.9697,3.9697,3.9697,3.9697,3.9697,3.9697,3.9697,3.9697,3.9697,3.9697,3.9697,3.9697,3.9697,3.9697,3.9697,3.9697,3.9697,3.9697,3.9697,3.9697,3.9697,3.9697,3.9697,3.9697,3.9697,3.9697,3.9697,3.9697,3.9839,3.9929,3.9749,3.9993,4.0096,3.9749,3.9839,3.9855,3.9484,3.9287,3.8955,3.8351,3.789,3.7699,3.7913,3.7703,3.7703,3.79,3.79,3.7854,3.7749,3.7749,3.7749,3.7749,3.7749,3.7808,2.1213,2.1213,2.1684,2.3695,2.2719,2.1924,2.4586,2.4319,2.4404,2.7594,2.8554,2.9392,3.1234,3.0193,0.0,0.0,0.0,0.0,0.0,0.0,0.0,0.0,0.0,0.0,0.0,0.0,0.0,0.0,0.0,0.0,0.0,3.7466,3.8178,3.9626,3.9675,3.9697,3.9697,3.9697,3.9697,3.9697,3.9697,3.9697,3.9697,3.9697,3.9697,3.9697,3.9697,3.9697,3.9697,3.9697,3.9697,3.9697,3.9697,3.9697,3.9697,3.9697,3.9697,3.9697,3.9697,3.9697,3.9697,3.9697,3.9697,3.9697,3.9697,3.9697,3.9697,3.9697,3.9697,3.9697,3.9697,3.9697,3.9697,3.9697,3.9697,3.9697,3.9697,3.9697,3.9697,3.9697,3.9697,3.9697,3.9697,3.9697,3.9697,3.9697,3.9697,3.9697,3.9697,3.9697,3.9697,3.9697,3.9697,3.9574,3.9209,3.9196,3.8925,3.8342,3.8062,3.7912,3.788,3.79,3.79,3.79,3.79,3.7762,3.7505,3.7505,3.7505,3.7505,3.7505,3.7657,2.2949,2.2282,2.1684,2.3695,0.0,0.0,2.4315,2.5194,2.6524,2.8892,3.0131,3.0521,2.978,0.0,0.0,0.0,0.0,0.0,0.0,0.0,0.0,0.0,0.0,0.0,0.0,0.0,0.0,0.0,0.0,0.0,0.0,3.6726,3.7668,3.9626,3.9675,3.9697,3.9697,3.9697,3.9697,3.9697,3.9697,3.9697,3.9697,3.9697,3.9697,3.9697,3.9697,3.9697,3.9697,3.9697,3.9697,3.9697,3.9697,3.9697,3.9697,3.9697,3.9697,3.9697,3.9697,3.9697,3.9697,3.9697,3.9697,3.9697,3.9697,3.9697,3.9697,3.9697,3.9697,3.9697,3.9697,3.9697,3.9697,3.9697,3.9697,3.9697,3.9697,3.9697,3.9697,3.9697,3.9697,3.9697,3.9697,3.9697,3.9697,3.9697,3.9697,3.9697,3.9697,3.9697,3.9697,3.9697,3.9697,3.9673,3.9561,3.9335,3.9106,3.8925,3.8689,3.8337,3.7939,3.7703,3.7703,3.79,3.7703,3.7564,3.7505,3.7307,3.7214,3.7214,3.7413,3.7551,2.3867,2.334,0.0,2.5876,2.5532,2.4694,2.5509,0.0,0.0,0.0,3.1138,3.1263,3.0141,0.0,0.0,0.0,0.0,0.0,0.0,0.0,0.0,0.0,0.0,0.0,0.0,0.0,0.0,0.0,0.0,0.0,0.0,3.6393,3.727,3.9195,3.9246,3.9382,3.9697,3.9697,3.9697,3.9697,3.9697,3.9697,3.9697,3.9697,3.9697,3.9697,3.9697,3.9697,3.9697,3.9697,3.9697,3.9697,3.9697,3.9697,3.9697,3.9697,3.9697,3.9697,3.9697,3.9697,3.9697,3.9697,3.9697,3.9697,3.9697,3.9697,3.9697,3.9697,3.9697,3.9697,3.9697,3.9697,3.9697,3.9697,3.9697,3.9697,3.9697,3.9697,3.9697,3.9697,3.9697,3.9697,3.9697,3.9697,3.9697,3.9697,3.9697,3.9697,3.9697,3.9697,3.9697,3.9697,3.9697,3.9697,3.9697,3.9537,3.9335,3.9208,3.9041,3.8761,3.829,3.7971,3.7844,3.7913,3.7657,3.7459,3.7353,3.7062,3.6956,3.6956,3.7108,3.7261,2.4418,2.4338,2.5084,2.8804,2.73,0.0,2.7878,2.7522,2.7622,3.0965,0.0,3.1465,3.1597,0.0,0.0,0.0,0.0,0.0,0.0,0.0,0.0,0.0,0.0,0.0,0.0,0.0,0.0,0.0,0.0,0.0,0.0,3.6385,3.7067,3.8437,3.8542,3.893,3.9609,3.9672,3.9697,3.9697,3.9697,3.9697,3.9697,3.9697,3.9697,3.9697,3.9697,3.9697,3.9697,3.9697,3.9697,3.9697,3.9697,3.9697,3.9697,3.9697,3.9697,3.9697,3.9697,3.9697,3.9697,3.9697,3.9697,3.9697,3.9697,3.9697,3.9697,3.9697,3.9697,3.9697,3.9697,3.9697,3.9697,3.9697,3.9697,3.9697,3.9697,3.9697,3.9697,3.9697,3.9697,3.9697,3.9697,3.9697,3.9697,3.9697,3.9697,3.9697,3.9697,3.9697,3.9697,3.9697,3.9697,3.9697,3.9697,3.9697,3.9574,3.9259,3.9234,3.9131,3.883,3.8505,3.816,3.7899,3.7637,3.7307,3.7062,3.6815,3.6675,3.6675,3.6675,3.6815,2.6152,2.5406,0.0,0.0,2.5486,2.6057,3.0494,3.0103,2.9449,3.18,3.1031,0.0,0.0,0.0,0.0,0.0,0.0,0.0,0.0,0.0,0.0,0.0,0.0,0.0,0.0,0.0,0.0,0.0,0.0,0.0,3.6405,3.6385,3.6819,3.7695,3.8316,3.8742,3.9095,3.9484,3.9697,0.0,3.9697,3.9697,3.9697,3.9697,3.9697,3.9697,3.9697,3.9697,3.9697,3.9697,3.9697,3.9697,3.9697,3.9697,3.9697,3.9697,3.9697,3.9697,3.9697,3.9697,3.9697,3.9697,3.9697,3.9697,3.9697,3.9697,3.9697,3.9697,3.9697,3.9697,3.9697,3.9697,3.9697,3.9697,3.9697,3.9697,3.9697,3.9697,3.9697,3.9697,3.9697,3.9697,3.9697,3.9697,3.9697,3.9697,3.9697,3.9697,3.9697,3.9697,3.9697,3.9697,3.9697,3.9697,3.9697,3.9697,3.9698,3.9624,3.9611,3.9461,3.9156,3.8601,3.8153,3.7929,3.7433,3.7062,3.6769,3.6593,3.6452,3.6452,3.6628,3.6722,2.586,0.0,0.0,2.7529,0.0,2.9226,3.1137,3.1084,3.0945,3.2029,0.0,0.0,0.0,0.0,0.0,0.0,0.0,0.0,0.0,0.0,0.0,0.0,0.0,0.0,0.0,0.0,0.0,0.0,0.0,3.6405,3.6405,3.6378,3.6666,3.7333,3.799,3.8492,3.8919,3.9157,3.9433,3.9697,3.9421,3.9433,3.9697,3.9697,3.9697,3.9697,3.9697,3.9697,3.9697,3.9697,3.9697,3.9697,3.9697,3.9697,3.9697,3.9697,3.9697,3.9697,3.9697,3.9697,3.9697,3.9697,3.9697,3.9697,3.9697,3.9697,3.9697,3.9697,3.9697,3.9697,3.9697,3.9697,3.9697,3.9697,3.9697,3.9697,3.9697,3.9697,3.9697,3.9697,3.9697,3.9697,3.9697,3.9697,3.9697,3.9697,3.9697,3.9697,3.9697,3.9697,3.9697,3.9697,3.9697,3.9697,3.9697,3.9697,3.9697,3.9697,3.9697,3.961,3.9474,3.8989,3.8597,3.8329,3.767,3.7282,3.7128,3.6638,3.6405,3.6405,3.6499,3.6534,2.5138,0.0,2.8551,3.0365,3.1506,0.0,3.1061,3.1296,3.1716,3.192,0.0,0.0,0.0,0.0,0.0,0.0,0.0,0.0,0.0,0.0,0.0,0.0,0.0,0.0,0.0,0.0,0.0,0.0,0.0,3.6405,3.6405,3.6405,3.6669,3.7161,3.7626,3.814,3.8718,3.8718,3.8956,3.9396,3.8944,3.9019,3.9546,3.9546,3.9597,3.9697,3.9697,3.9697,3.9697,3.9697,3.9697,3.9697,3.9697,3.9697,3.9697,3.9697,3.9697,3.9697,3.9697,3.9697,3.9697,3.9697,3.9697,3.9697,3.9697,3.9697,3.9697,3.9697,3.9697,3.9697,3.9697,3.9697,3.9697,3.9697,3.9697,3.9697,3.9697,3.9697,3.9697,3.9697,3.9697,3.9697,3.9697,3.9697,3.9697,3.9697,3.9697,3.9697,3.9697,3.9697,3.9697,3.9697,3.9697,3.9697,3.9697,3.9697,3.9697,3.9697,3.9697,3.9697,3.9697,3.9449,3.9182,3.8985,3.8163,3.7736,3.7676,3.7016,3.6644,3.6556,3.6556,3.6505,2.5585,0.0,2.8829,0.0,2.959,2.9726,0.0,0.0,3.0693,0.0,0.0,0.0,0.0,0.0,0.0,0.0,0.0,0.0,0.0,0.0,0.0,0.0,0.0,0.0,0.0,0.0,0.0,0.0,3.6405,3.6405,3.6405,3.6405,3.6669,3.7161,3.7262,3.7563,3.8115,3.8115,3.8165,3.8228,3.8153,3.8417,3.9032,3.9032,3.9245,3.9697,3.9697,3.9697,3.9697,3.9697,3.9697,3.9697,3.9697,3.9697,3.9697,3.9697,3.9697,3.9697,3.9697,3.9697,3.9697,3.9697,3.9697,3.9697,3.9697,3.9697,3.9697,3.9697,3.9697,3.9697,3.9697,3.9697,3.9697,3.9697,3.9697,3.9697,3.9697,3.9697,3.9697,3.9697,3.9697,3.9697,3.9697,3.9697,3.9697,3.9697,3.9697,3.9697,3.9697,3.9697,3.9697,3.9697,3.9697,3.9697,3.9697,3.9697,3.9697,3.9697,3.9697,3.9697,3.9697,3.9673,3.9598,3.9574,3.8741,3.8209,3.7951,3.7826,3.7538,3.7073,3.7073,3.6822,2.6718,2.6909,2.7396,0.0,2.9703,2.85,3.1746,0.0,0.0,0.0,0.0,0.0,0.0,0.0,0.0,0.0,0.0,0.0,0.0,0.0,0.0,0.0,0.0,0.0,0.0,0.0,0.0,0.0,3.6405,3.6405,3.6405,3.6405,3.6518,3.6757,3.7023,3.7299,3.755,3.755,3.755,3.755,3.7864,3.814,3.8391,3.8391,3.8868,3.9697,3.9697,3.9697,3.9697,3.9697,3.9697,3.9697,3.9697,3.9697,3.9697,3.9697,3.9697,3.9697,3.9697,3.9697,3.9697,3.9697,3.9697,3.9697,3.9697,3.9697,3.9697,3.9697,3.9697,3.9697,3.9697,3.9697,3.9697,3.9697,3.9697,3.9697,3.9697,3.9697,3.9697,3.9697,3.9697,3.9697,3.9697,3.9697,3.9697,3.9697,3.9697,3.9697,3.9697,3.9697,3.9697,3.9697,3.9697,3.9697,3.9697,3.9697,3.9697,3.9697,3.9697,3.9697,3.9697,3.9697,3.9697,3.9697,3.9007,3.8642,3.8492,3.8165,3.7889,3.7651,3.7651,3.7513,0.0,0.0,2.6211,3.0732,2.9134,2.7303,0.0,0.0,0.0,0.0,0.0,0.0,0.0,0.0,0.0,0.0,0.0,0.0,0.0,0.0,0.0,0.0,0.0,0.0,0.0,0.0,0.0,0.0,3.6405,3.6405,3.6405,3.6405,3.6468,3.6619,3.6883,3.7084,3.7283,3.7132,3.7069,3.7069,3.7436,3.7663,3.7801,3.7801,3.8329,3.927,3.927,3.9346,3.9484,3.9484,3.9572,3.9697,3.9697,3.9697,3.9697,3.9697,3.9697,3.9697,3.9697,3.9697,3.9697,3.9697,3.9697,3.9697,3.9697,3.9697,3.9697,3.9697,3.9697,3.9697,3.9697,3.9697,3.9697,3.9697,3.9697,3.9697,3.9697,3.9697,3.9697,3.9697,3.9697,3.9697,3.9697,3.9697,3.9697,3.9697,3.9697,3.9697,3.9697,3.9697,3.9697,3.9697,3.9697,3.9697,3.9697,3.9697,3.9697,3.9697,3.9697,3.9697,3.9697,3.9697,3.9697,3.9697,3.9295,3.9082,3.9082,3.8642,3.8366,3.8228,3.8228,3.8153,0.0,2.5954,0.0,2.7564,2.6687,0.0,0.0,0.0,0.0,0.0,0.0,0.0,0.0,0.0,0.0,0.0,0.0,0.0,0.0,0.0,0.0,0.0,0.0,0.0,0.0,0.0,0.0,0.0,3.6405,3.6405,3.6405,3.6405,3.6644,3.7123,3.6707,3.6802,3.7584,3.6991,3.6713,3.6713,3.6575,3.6769,3.7224,3.7224,3.755,3.809,3.809,3.8404,3.8957,3.8957,3.922,3.9697,3.9697,3.9697,3.9697,3.9697,3.9697,3.9697,3.9697,3.9697,3.9697,3.9697,3.9697,3.9697,3.9697,3.9697,3.9697,3.9697,3.9697,3.9697,3.9697,3.9697,3.9697,3.9697,3.9697,3.9697,3.9697,3.9697,3.9697,3.9697,3.9697,3.9697,3.9697,3.9697,3.9697,3.9697,3.9697,3.9697,3.9697,3.9697,3.9697,3.9697,3.9697,3.9697,3.9697,3.9697,3.9697,3.9697,3.9697,3.9697,3.9697,3.9697,3.9697,3.9697,3.9672,3.9647,3.9647,3.9622,3.9333,3.8831,3.8831,3.853,0.0,0.0,0.0,2.7259,2.5424,2.3725,0.0,0.0,0.0,0.0,0.0,0.0,0.0,0.0,0.0,0.0,0.0,0.0,0.0,0.0,0.0,0.0,0.0,0.0,0.0,0.0,0.0,0.0,0.0,3.4907,3.6342,3.5353,3.5353,3.6669,3.6647,3.6823,3.7275,3.687,3.6709,3.6709,3.6499,3.6518,3.6707,3.6707,3.6807,3.6948,3.6948,3.7475,3.8316,3.8316,3.8642,3.917,3.917,3.9383,3.9697,3.9697,3.9697,3.9697,3.9697,3.9697,3.9697,3.9697,3.9697,3.9697,3.9697,3.9697,3.9697,3.9697,3.9697,3.9697,3.9697,3.9697,3.9697,3.9697,3.9697,3.9697,3.9697,3.9697,3.9697,3.9697,3.9697,3.9697,3.9697,3.9697,3.9697,3.9697,3.9697,3.9697,3.9697,3.9697,3.9697,3.9697,3.9697,3.9697,3.9697,3.9697,3.9697,3.9697,3.9697,3.9697,3.9697,3.9697,3.9697,3.9697,3.9697,3.9697,3.9697,3.9697,3.9597,3.9396,3.9396,3.9283,2.4531,0.0,0.0,0.0,0.0,2.2635,0.0,0.0,0.0,0.0,0.0,0.0,0.0,0.0,0.0,0.0,0.0,0.0,0.0,0.0,0.0,0.0,0.0,0.0,0.0,0.0,0.0,0.0,0.0,0.0,3.6342,3.5328,3.5273,3.6461,3.6722,3.6956,3.7214,3.6968,3.6815,3.6815,3.6546,3.6405,3.6405,3.6405,3.6405,3.6405,3.6405,3.6933,3.7726,3.7726,3.8065,3.8605,3.8844,3.9094,3.9433,3.9622,3.9697,3.9697,3.9697,3.9697,3.9697,3.9697,3.9697,3.9697,3.9697,3.9697,3.9697,3.9697,3.9697,3.9697,3.9697,3.9697,3.9697,3.9697,3.9697,3.9697,3.9697,3.9697,3.9697,3.9697,3.9697,3.9697,3.9697,3.9697,3.9697,3.9697,3.9697,3.9697,3.9697,3.9697,3.9697,3.9697,3.9697,3.9697,3.9697,3.9697,3.9697,3.9697,3.9697,3.9697,3.9697,3.9697,3.9697,3.9697,3.9697,3.9697,3.9697,3.9697,3.9697,3.9697,3.9697,3.9697,0.0,0.0,0.0,0.0,0.0,0.0,0.0,0.0,0.0,0.0,0.0,0.0,0.0,0.0,0.0,0.0,0.0,0.0,0.0,0.0,0.0,0.0,0.0,0.0,0.0,0.0,0.0,0.0,3.638,3.638,3.6405,3.6405,3.6499,3.6722,3.6956,3.7214,3.7505,3.7261,3.7108,3.7108,3.664,3.6405,3.6405,3.6405,3.6405,3.6405,3.6405,3.6719,3.7161,3.7161,3.7487,3.804,3.8605,3.8881,3.8957,3.9471,3.9672,3.9672,3.9685,3.9697,3.9697,3.9697,3.9697,3.9697,3.9697,3.9697,3.9697,3.9697,3.9697,3.9697,3.9697,3.9697,3.9697,3.9697,3.9697,3.9697,3.9697,3.9697,3.9697,3.9697,3.9697,3.9697,3.9697,3.9697,3.9697,3.9697,3.9697,3.9697,3.9697,3.9697,3.9697,3.9697,3.9697,3.9697,3.9697,3.9697,3.9697,3.9697,3.9697,3.9697,3.9697,3.9697,3.9697,3.9697,3.9697,3.9697,3.9697,3.9697,3.9697,3.9697,3.9697,3.9697,2.3075,0.0,0.0,0.0,0.0,0.0,0.0,0.0,0.0,0.0,0.0,0.0,0.0,0.0,0.0,0.0,0.0,0.0,0.0,0.0,0.0,0.0,0.0,0.0,0.0,0.0,0.0,0.0,3.65,3.6424,3.6414,3.6405,3.6593,3.6968,3.7062,3.7307,3.7762,3.7307,3.7108,3.7108,3.664,3.6405,3.6405,3.6405,3.6405,3.6405,3.6405,3.6493,3.6631,3.6631,3.6958,3.7425,3.7588,3.7889,3.8316,3.8894,3.9094,3.9157,3.9559,3.9697,3.9697,3.9697,3.9697,3.9697,3.9697,3.9697,3.9697,3.9697,3.9697,3.9697,3.9697,3.9697,3.9697,3.9697,3.9697,3.9697,3.9697,3.9697,3.9697,3.9697,3.9697,3.9697,3.9697,3.9697,3.9697,3.9697,3.9697,3.9697,3.9697,3.9697,3.9697,3.9697,3.9697,3.9697,3.9697,3.9697,3.9697,3.9697,3.9697,3.9697,3.9697,3.9697,3.9697,3.9697,3.9697,3.9697,3.9697,3.9697,3.9697,3.9697,3.9697,3.9697,2.2947,2.3001,2.3001,0.0,0.0,0.0,2.2284,2.3973,0.0,0.0,0.0,0.0,0.0,0.0,0.0,0.0,0.0,0.0,0.0,0.0,0.0,0.0,0.0,0.0,0.0,3.7193,3.696,3.6722,3.6491,3.6414,3.638,3.6405,3.6546,3.6922,3.7062,3.7307,3.7703,3.7307,3.7108,3.7108,3.664,3.6405,3.6405,3.6405,3.6405,3.6405,3.6405,3.6405,3.6405,3.6405,3.6593,3.6908,3.7098,3.7374,3.7726,3.8304,3.8668,3.8919,3.9245,3.9496,3.9697,3.9697,3.9697,3.9697,3.9697,3.9697,3.9697,3.9697,3.9697,3.9697,3.9697,3.9697,3.9697,3.9697,3.9697,3.9697,3.9697,3.9697,3.9697,3.9697,3.9697,3.9697,3.9697,3.9697,3.9697,3.9697,3.9697,3.9697,3.9697,3.9697,3.9697,3.9697,3.9697,3.9697,3.9697,3.9697,3.9697,3.9697,3.9697,3.9697,3.9697,3.9697,3.9697,3.9697,3.9697,3.9697,3.9697,3.9697,3.9697,3.9697,3.9697,3.9697,2.2815,2.2957,2.3001,0.0,0.0,0.0,2.1912,2.4425,2.6699,0.0,0.0,0.0,0.0,0.0,0.0,0.0,0.0,0.0,0.0,0.0,0.0,0.0,0.0,0.0,3.7564,3.7746,3.7573,3.6781,3.6534,3.6405,3.6405,3.6405,3.6499,3.6675,3.6922,3.7168,3.7459,3.7201,3.7062,3.7062,3.6593,3.6405,3.6405,3.6405,3.6405,3.6405,3.6405,3.6405,3.6405,3.6405,3.6405,3.6455,3.6897,3.7098,3.7161,3.7713,3.8241,3.8756,3.8881,3.9195,3.9609,3.9672,3.9697,3.9697,3.9697,3.9697,3.9697,3.9697,3.9697,3.9697,3.9697,3.9697,3.9697,3.9697,3.9697,3.9697,3.9697,3.9697,3.9697,3.9697,3.9697,3.9697,3.9697,3.9697,3.9697,3.9697,3.9697,3.9697,3.9697,3.9697,3.9697,3.9697,3.9697,3.9697,3.9697,3.9697,3.9697,3.9697,3.9697,3.9697,3.9697,3.9697,3.9697,3.9697,3.9697,3.9697,3.9697,3.9697,3.9697,3.9697,3.9749,3.9736,0.0,0.0,0.0,0.0,0.0,0.0,2.2302,2.2542,2.3143,0.0,0.0,0.0,0.0,0.0,0.0,0.0,0.0,0.0,0.0,0.0,0.0,0.0,0.0,0.0,3.7854,3.7866,3.7648,3.7074,3.664,3.6405,3.6405,3.6405,3.6499,3.6675,3.6769,3.6909,3.7168,3.6909,3.6769,3.6756,3.6499,3.6405,3.6405,3.6405,3.6405,3.6405,3.6405,3.6405,3.6405,3.6405,3.6405,3.6417,3.6531,3.6568,3.6631,3.7149,3.7412,3.7638,3.8555,3.8994,3.9158,3.9546,3.9697,3.9697,3.9697,3.9697,3.9697,3.9697,3.9697,3.9697,3.9697,3.9697,3.9697,3.9697,3.9697,3.9697,3.9697,3.9697,3.9697,3.9697,3.9697,3.9697,3.9697,3.9697,3.9697,3.9697,3.9697,3.9697,3.9697,3.9697,3.9697,3.9697,3.9697,3.9697,3.9697,3.9697,3.9697,3.9697,3.9697,3.9697,3.9697,3.9697,3.9697,3.9697,3.9697,3.9697,3.9697,3.9697,3.9697,3.9697,3.9929,4.0032,0.0,0.0,0.0,2.3693,0.0,0.0,0.0,2.3366,2.415,0.0,0.0,0.0,0.0,0.0,0.0,0.0,0.0,0.0,0.0,0.0,0.0,0.0,0.0,0.0,3.79,3.7899,3.7635,3.7066,3.6747,3.6499,3.6405,3.6405,3.6452,3.6534,3.6675,3.6756,3.6909,3.6769,3.6709,3.6709,3.6499,3.6405,3.6405,3.6405,3.6405,3.6405,3.6405,3.6405,3.6405,3.6405,3.6405,3.6405,3.6405,3.6405,3.6443,3.6719,3.6996,3.7262,3.7826,3.8391,3.8919,3.9195,3.9471,3.9697,3.9697,3.9697,3.9697,3.9697,3.9697,3.9697,3.9697,3.9697,3.9697,3.9697,3.9697,3.9697,3.9697,3.9697,3.9697,3.9697,3.9697,3.9697,3.9697,3.9697,3.9697,3.9697,3.9697,3.9697,3.9697,3.9697,3.9697,3.9697,3.9697,3.9697,3.9697,3.9697,3.9697,3.9697,3.9697,3.9697,3.9697,3.9697,3.9697,3.9697,3.9697,3.9788,3.989,3.989,3.989,3.9929,4.0185,4.0287,0.0,0.0,0.0,0.0,0.0,2.4574,0.0,0.0,0.0,0.0,0.0,0.0,0.0,0.0,0.0,0.0,0.0,0.0,0.0,0.0,0.0,0.0,0.0,0.0,0.0,3.6916,3.7097,3.6947,3.6794,3.6628,3.6405,3.6405,3.6405,3.6405,3.6534,3.6628,3.6628,3.6628,3.6628,3.6628,3.6499,3.6405,3.6405,3.6405,3.6405,3.6405,3.6405,3.6405,3.6405,3.6405,3.6405,3.6405,3.6405,3.6405,3.6405,3.6405,3.6681,3.7048,3.7149,3.7852,3.873,3.8881,3.9245,3.9697,3.9697,3.9697,3.9697,3.9697,3.9697,3.9697,3.9697,3.9697,3.9697,3.9697,3.9697,3.9697,3.9697,3.9697,3.9697,3.9697,3.9697,3.9749,3.9788,3.9749,3.9749,3.9788,3.9749,3.9697,3.9697,3.9697,3.9697,3.9697,3.9697,3.9697,3.9697,3.9697,3.9697,3.9697,3.9697,3.9697,3.9697,3.9697,3.9697,3.9697,3.9736,3.989,4.007,4.0173,4.0224,4.0185,4.044,4.0605,0.0,0.0,0.0,0.0,2.3733,0.0,0.0,0.0,2.3054,2.2424,0.0,0.0,0.0,0.0,0.0,0.0,0.0,0.0,0.0,0.0,0.0,0.0,0.0,0.0,0.0,3.3448,3.5226,3.6967,3.6815,3.6628,3.6405,3.6405,3.6405,3.6405,3.6405,3.6452,3.6452,3.6452,3.6452,3.6452,3.6405,3.6405,3.6405,3.6405,3.6405,3.6405,3.6405,3.6405,3.6405,3.6405,3.6405,3.6405,3.6405,3.6405,3.6405,3.6405,3.6455,3.6568,3.7059,3.7588,3.8191,3.8705,3.9245,3.9697,3.9697,3.9697,3.9697,3.9697,3.9697,3.9697,3.9697,3.9697,3.9697,3.9697,3.9697,3.9697,3.9697,3.9697,3.9697,3.9697,3.9697,3.9788,4.0032,3.9839,3.9788,4.0032,3.9839,3.9697,3.9697,3.9697,3.9697,3.9697,3.9697,3.9697,3.9697,3.9697,3.9697,3.9697,3.9697,3.9697,3.9697,3.9697,3.9697,3.9697,3.9929,4.0083,4.007,4.058,4.0694,4.0453,4.0744,4.0833,0.0,0.0,0.0,0.0,0.0,0.0,2.5692,0.0,2.3809,0.0,0.0,0.0,0.0,0.0,0.0,0.0,0.0,0.0,0.0,0.0,0.0,0.0,0.0,0.0,0.0,0.0,0.0,0.0,3.5028,3.4806,3.4494,3.5713,3.6405,3.6405,3.6405,3.6405,3.6405,3.6405,3.6405,3.6405,3.6405,3.6405,3.6405,3.6405,3.6405,3.6405,3.6405,3.6405,3.6405,3.6405,3.6405,3.6405,3.6405,3.6405,3.6405,3.6405,3.6405,3.6443,3.6669,3.7073,3.7676,3.858,3.9245,3.9697,3.9697,3.9697,3.9697,3.9697,3.9697,3.9697,3.9697,3.9697,3.9697,3.9697,3.9697,3.9697,3.9697,3.9697,3.9697,3.9697,3.9839,3.9981,4.007,3.989,3.9788,4.0083,3.989,3.9697,3.9697,3.9697,3.9697,3.9697,3.9697,3.9697,3.9697,3.9697,3.9697,3.9697,3.9697,3.9697,3.9697,3.9839,3.9929,3.9929,4.0185,4.0389,4.058,4.0782,4.0946,4.0959,4.106,4.1161,2.802,0.0,0.0,0.0,0.0,0.0,0.0,0.0,0.0,0.0,0.0,0.0,0.0,0.0,0.0,0.0,0.0,0.0,0.0,0.0,0.0,0.0,0.0,0.0,0.0,0.0,0.0,3.2782,3.3363,3.3509,3.3124,3.5211,3.6405,3.6405,3.6405,3.6405,3.6405,3.6405,3.6405,3.6405,3.6405,3.6405,3.6405,3.6405,3.6405,3.6405,3.6405,3.6405,3.6405,3.6405,3.6405,3.6405,3.6405,3.6405,3.6405,3.6405,3.6405,3.6405,3.6405,3.687,3.7563,3.8605,3.9245,3.9697,3.9697,3.9697,3.9697,3.9697,3.9697,3.9697,3.9697,3.9697,3.9697,3.9697,3.9697,3.9697,3.9697,3.9697,3.9697,3.9697,3.9839,4.0032,4.007,3.9929,3.989,4.0083,3.989,3.9697,3.9697,3.9697,3.9697,3.9697,3.9697,3.9697,3.9697,3.9697,3.9697,3.9697,3.9981,3.9981,3.9697,4.0173,4.0313,4.007,4.0338,4.0643,4.0883,4.0984,4.1097,4.1311,4.1311,4.1311,0.0,0.0,0.0,2.8111,0.0,0.0,0.0,0.0,2.4109,0.0,0.0,0.0,0.0,0.0,0.0,0.0,0.0,0.0,0.0,0.0,0.0,0.0,0.0,0.0,0.0,0.0,0.0,3.0547,3.248,3.3509,3.3124,3.5211,3.6405,3.6405,3.6405,3.6405,3.6405,3.6405,3.6405,3.6405,3.6405,3.6405,3.6405,3.6405,3.6405,3.6405,3.6405,3.6405,3.6405,3.6405,3.6405,3.6405,3.6405,3.6405,3.6405,3.6405,3.6405,3.6405,3.6405,3.7073,3.8078,3.868,3.9245,3.9697,3.9697,3.9697,3.9697,3.9697,3.9697,3.9697,3.9697,3.9697,3.9697,3.9697,3.9697,3.9697,3.9697,3.9697,3.9697,3.9697,3.9697,3.9788,4.0083,4.007,4.007,4.007,3.989,3.9697,3.9697,3.9697,3.9697,3.9697,3.9697,3.9697,3.9697,3.9697,3.9697,3.9697,4.0605,4.0693,3.9736,4.0655,4.0844,4.0121,4.0338,4.0643,4.0883,4.1147,4.1261,4.1311,4.1311,4.1311,0.0,0.0,3.3051,3.2267,0.0,0.0,0.0,0.0,0.0,0.0,0.0,0.0,0.0,0.0,0.0,0.0,0.0,0.0,0.0,0.0,0.0,0.0,0.0,0.0,0.0,0.0,0.0,2.8142,2.8843,2.9058,2.8737,3.2231,3.423,3.423,3.5651,3.6405,3.6405,3.6405,3.6405,3.6405,3.6405,3.6405,3.6405,3.6405,3.6405,3.6405,3.6405,3.6405,3.6405,3.6405,3.6405,3.6405,3.6405,3.6405,3.6405,3.6405,3.6405,3.6405,3.6405,3.7086,3.804,3.8228,3.8931,3.9697,3.9697,3.9697,3.9697,3.9697,3.9697,3.9697,3.9697,3.9697,3.9697,3.9697,3.9697,3.9697,3.9697,3.9697,3.9697,3.9697,3.9839,3.9929,3.9839,3.9981,4.007,4.007,3.989,3.9697,3.9697,3.9697,3.9697,3.9697,3.9697,3.9697,3.9697,4.0313,4.0995,4.173,4.2181,4.2315,4.1985,4.1999,4.1878,4.1631,4.1235,4.106,4.1147,4.1261,4.1311,4.1311,4.1311,4.1311,3.5204,3.5639,0.0,3.4607,3.33,0.0,3.1169,0.0,0.0,0.0,0.0,0.0,0.0,0.0,0.0,0.0,0.0,0.0,0.0,2.4083,0.0,0.0,0.0,0.0,0.0,0.0,2.5447,2.582,2.6504,2.6782,0.0,0.0,3.3124,3.3124,3.5261,3.6405,3.6405,3.6405,3.6405,3.6405,3.6405,3.6405,3.6405,3.6405,3.6405,3.6405,3.6405,3.6405,3.6405,3.6405,3.6405,3.6405,3.6405,3.6405,3.6405,3.6405,3.6405,3.6405,3.6405,3.7086,3.8002,3.8002,3.8768,3.9697,3.9697,3.9697,3.9697,3.9697,3.9697,3.9697,3.9697,3.9697,3.9749,3.9839,3.9839,3.9839,3.9839,4.0121,4.0364,4.0275,4.0364,4.0465,4.0262,4.007,3.9981,3.9981,3.9788,3.9697,3.9697,3.9697,3.9839,4.0224,3.9929,3.9697,3.9697,4.0262,4.0995,4.1766,4.2279,4.2461,4.2195,4.2208,4.2075,4.1743,4.1335,4.1161,4.1161,4.1261,4.1311,4.1311,4.1311,4.1311]}]]